﻿<?xml version="1.0" encoding="utf-8"?><gpx creator="Garmin Desktop App" version="1.1" xsi:schemaLocation="http://www.topografix.com/GPX/1/1 http://www.topografix.com/GPX/1/1/gpx.xsd http://www.garmin.com/xmlschemas/WaypointExtension/v1 http://www8.garmin.com/xmlschemas/WaypointExtensionv1.xsd http://www.garmin.com/xmlschemas/TrackPointExtension/v1 http://www.garmin.com/xmlschemas/TrackPointExtensionv1.xsd http://www.garmin.com/xmlschemas/GpxExtensions/v3 http://www8.garmin.com/xmlschemas/GpxExtensionsv3.xsd http://www.garmin.com/xmlschemas/ActivityExtension/v1 http://www8.garmin.com/xmlschemas/ActivityExtensionv1.xsd http://www.garmin.com/xmlschemas/AdventuresExtensions/v1 http://www8.garmin.com/xmlschemas/AdventuresExtensionv1.xsd http://www.garmin.com/xmlschemas/PressureExtension/v1 http://www.garmin.com/xmlschemas/PressureExtensionv1.xsd http://www.garmin.com/xmlschemas/TripExtensions/v1 http://www.garmin.com/xmlschemas/TripExtensionsv1.xsd http://www.garmin.com/xmlschemas/TripMetaDataExtensions/v1 http://www.garmin.com/xmlschemas/TripMetaDataExtensionsv1.xsd http://www.garmin.com/xmlschemas/ViaPointTransportationModeExtensions/v1 http://www.garmin.com/xmlschemas/ViaPointTransportationModeExtensionsv1.xsd http://www.garmin.com/xmlschemas/CreationTimeExtension/v1 http://www.garmin.com/xmlschemas/CreationTimeExtensionsv1.xsd http://www.garmin.com/xmlschemas/AccelerationExtension/v1 http://www.garmin.com/xmlschemas/AccelerationExtensionv1.xsd http://www.garmin.com/xmlschemas/PowerExtension/v1 http://www.garmin.com/xmlschemas/PowerExtensionv1.xsd http://www.garmin.com/xmlschemas/VideoExtension/v1 http://www.garmin.com/xmlschemas/VideoExtensionv1.xsd" xmlns="http://www.topografix.com/GPX/1/1" xmlns:xsi="http://www.w3.org/2001/XMLSchema-instance" xmlns:wptx1="http://www.garmin.com/xmlschemas/WaypointExtension/v1" xmlns:gpxtrx="http://www.garmin.com/xmlschemas/GpxExtensions/v3" xmlns:gpxtpx="http://www.garmin.com/xmlschemas/TrackPointExtension/v1" xmlns:gpxx="http://www.garmin.com/xmlschemas/GpxExtensions/v3" xmlns:trp="http://www.garmin.com/xmlschemas/TripExtensions/v1" xmlns:adv="http://www.garmin.com/xmlschemas/AdventuresExtensions/v1" xmlns:prs="http://www.garmin.com/xmlschemas/PressureExtension/v1" xmlns:tmd="http://www.garmin.com/xmlschemas/TripMetaDataExtensions/v1" xmlns:vptm="http://www.garmin.com/xmlschemas/ViaPointTransportationModeExtensions/v1" xmlns:ctx="http://www.garmin.com/xmlschemas/CreationTimeExtension/v1" xmlns:gpxacc="http://www.garmin.com/xmlschemas/AccelerationExtension/v1" xmlns:gpxpx="http://www.garmin.com/xmlschemas/PowerExtension/v1" xmlns:vidx1="http://www.garmin.com/xmlschemas/VideoExtension/v1">

  <metadata>
    <link href="http://www.garmin.com">
      <text>Garmin International</text>
    </link>
    <time>2022-03-28T06:40:08Z</time>
    <bounds maxlat="45.757267903536558" maxlon="7.185184909030795" minlat="45.73495720513165" minlon="7.159175695851445" />
  </metadata>

  <trk>
    <name>punta leysser2022-03-27</name>
    <extensions>
      <gpxx:TrackExtension>
        <gpxx:DisplayColor>Yellow</gpxx:DisplayColor>
      </gpxx:TrackExtension>
      <gpxtrkx:TrackStatsExtension xmlns:gpxtrkx="http://www.garmin.com/xmlschemas/TrackStatsExtension/v1">
        <gpxtrkx:Distance>9726</gpxtrkx:Distance>
        <gpxtrkx:TotalElapsedTime>23416</gpxtrkx:TotalElapsedTime>
        <gpxtrkx:MovingTime>14115</gpxtrkx:MovingTime>
        <gpxtrkx:StoppedTime>9150</gpxtrkx:StoppedTime>
        <gpxtrkx:MovingSpeed>0.689</gpxtrkx:MovingSpeed>
        <gpxtrkx:MaxSpeed>2.051</gpxtrkx:MaxSpeed>
        <gpxtrkx:MaxElevation>2776.2</gpxtrkx:MaxElevation>
        <gpxtrkx:MinElevation>1783.093</gpxtrkx:MinElevation>
        <gpxtrkx:Ascent>1053</gpxtrkx:Ascent>
        <gpxtrkx:Descent>1049.917</gpxtrkx:Descent>
        <gpxtrkx:AvgAscentRate>0.073</gpxtrkx:AvgAscentRate>
        <gpxtrkx:MaxAscentRate>0.343</gpxtrkx:MaxAscentRate>
        <gpxtrkx:AvgDescentRate>0.099</gpxtrkx:AvgDescentRate>
        <gpxtrkx:MaxDescentRate>-0.826</gpxtrkx:MaxDescentRate>
      </gpxtrkx:TrackStatsExtension>
    </extensions>
    <trkseg>
      <trkpt lat="45.734992157667875" lon="7.184874275699258">
        <ele>1788.24</ele>
        <time>2022-03-27T07:35:53Z</time>
      </trkpt>
      <trkpt lat="45.73499240912497" lon="7.184873353689909">
        <ele>1788.24</ele>
        <time>2022-03-27T07:35:54Z</time>
      </trkpt>
      <trkpt lat="45.734992576763034" lon="7.184871258214116">
        <ele>1784.77</ele>
        <time>2022-03-27T07:35:57Z</time>
      </trkpt>
      <trkpt lat="45.73499190621078" lon="7.184869665652514">
        <ele>1784.77</ele>
        <time>2022-03-27T07:35:58Z</time>
      </trkpt>
      <trkpt lat="45.734988553449512" lon="7.184875030070543">
        <ele>1785.6700000000001</ele>
        <time>2022-03-27T07:36:10Z</time>
      </trkpt>
      <trkpt lat="45.73498360812664" lon="7.184905456379056">
        <ele>1784.3099999999999</ele>
        <time>2022-03-27T07:36:25Z</time>
      </trkpt>
      <trkpt lat="45.734986960887909" lon="7.184894476085901">
        <ele>1784.4300000000001</ele>
        <time>2022-03-27T07:36:45Z</time>
      </trkpt>
      <trkpt lat="45.734981847926974" lon="7.184887351468206">
        <ele>1784.28</ele>
        <time>2022-03-27T07:37:04Z</time>
      </trkpt>
      <trkpt lat="45.734973214566708" lon="7.184879723936319">
        <ele>1784.3699999999999</ele>
        <time>2022-03-27T07:37:18Z</time>
      </trkpt>
      <trkpt lat="45.734963323920965" lon="7.1848807297647">
        <ele>1784.3699999999999</ele>
        <time>2022-03-27T07:37:43Z</time>
      </trkpt>
      <trkpt lat="45.734980003908277" lon="7.184870755299926">
        <ele>1784.8499999999999</ele>
        <time>2022-03-27T07:37:59Z</time>
      </trkpt>
      <trkpt lat="45.735029205679893" lon="7.184807974845171">
        <ele>1786.95</ele>
        <time>2022-03-27T07:38:12Z</time>
      </trkpt>
      <trkpt lat="45.735086789354682" lon="7.184745529666543">
        <ele>1790.04</ele>
        <time>2022-03-27T07:38:25Z</time>
      </trkpt>
      <trkpt lat="45.735153006389737" lon="7.184702949598432">
        <ele>1791.75</ele>
        <time>2022-03-27T07:38:35Z</time>
      </trkpt>
      <trkpt lat="45.73519567027688" lon="7.184569677338004">
        <ele>1793.23</ele>
        <time>2022-03-27T07:38:48Z</time>
      </trkpt>
      <trkpt lat="45.735209500417113" lon="7.184466412290931">
        <ele>1796.4000000000001</ele>
        <time>2022-03-27T07:39:01Z</time>
      </trkpt>
      <trkpt lat="45.735219977796078" lon="7.184354430064559">
        <ele>1798.9400000000001</ele>
        <time>2022-03-27T07:39:16Z</time>
      </trkpt>
      <trkpt lat="45.735254092141986" lon="7.184252757579088">
        <ele>1801.7</ele>
        <time>2022-03-27T07:39:31Z</time>
      </trkpt>
      <trkpt lat="45.735288877040148" lon="7.184200119227171">
        <ele>1803.95</ele>
        <time>2022-03-27T07:39:42Z</time>
      </trkpt>
      <trkpt lat="45.735352830961347" lon="7.184072630479932">
        <ele>1806.3699999999999</ele>
        <time>2022-03-27T07:39:58Z</time>
      </trkpt>
      <trkpt lat="45.735366912558675" lon="7.183979339897633">
        <ele>1808.73</ele>
        <time>2022-03-27T07:40:12Z</time>
      </trkpt>
      <trkpt lat="45.735368672758341" lon="7.183866268023849">
        <ele>1811.22</ele>
        <time>2022-03-27T07:40:27Z</time>
      </trkpt>
      <trkpt lat="45.735411671921611" lon="7.183754704892635">
        <ele>1813.6400000000001</ele>
        <time>2022-03-27T07:40:42Z</time>
      </trkpt>
      <trkpt lat="45.735443104058504" lon="7.183651858940721">
        <ele>1815.54</ele>
        <time>2022-03-27T07:40:55Z</time>
      </trkpt>
      <trkpt lat="45.735411085188389" lon="7.183546414598823">
        <ele>1817.8699999999999</ele>
        <time>2022-03-27T07:41:10Z</time>
      </trkpt>
      <trkpt lat="45.735371103510261" lon="7.183428313583136">
        <ele>1819.3900000000001</ele>
        <time>2022-03-27T07:41:24Z</time>
      </trkpt>
      <trkpt lat="45.735368337482214" lon="7.183395624160767">
        <ele>1819.8800000000001</ele>
        <time>2022-03-27T07:41:30Z</time>
      </trkpt>
      <trkpt lat="45.735373701900244" lon="7.183394869789481">
        <ele>1819.4100000000001</ele>
        <time>2022-03-27T07:41:41Z</time>
      </trkpt>
      <trkpt lat="45.735377306118608" lon="7.183382632210851">
        <ele>1819.5599999999999</ele>
        <time>2022-03-27T07:42:00Z</time>
      </trkpt>
      <trkpt lat="45.735433800145984" lon="7.183319348841906">
        <ele>1819.0599999999999</ele>
        <time>2022-03-27T07:42:12Z</time>
      </trkpt>
      <trkpt lat="45.735546285286546" lon="7.183224046602845">
        <ele>1817.3800000000001</ele>
        <time>2022-03-27T07:42:24Z</time>
      </trkpt>
      <trkpt lat="45.735649550333619" lon="7.183242822065949">
        <ele>1818.1800000000001</ele>
        <time>2022-03-27T07:42:34Z</time>
      </trkpt>
      <trkpt lat="45.735803190618753" lon="7.183134527876973">
        <ele>1817.25</ele>
        <time>2022-03-27T07:42:49Z</time>
      </trkpt>
      <trkpt lat="45.735862534493208" lon="7.183064874261618">
        <ele>1816.99</ele>
        <time>2022-03-27T07:43:00Z</time>
      </trkpt>
      <trkpt lat="45.735888099297881" lon="7.183031179010868">
        <ele>1816.9200000000001</ele>
        <time>2022-03-27T07:43:04Z</time>
      </trkpt>
      <trkpt lat="45.735934283584356" lon="7.183052552863956">
        <ele>1817.3199999999999</ele>
        <time>2022-03-27T07:43:14Z</time>
      </trkpt>
      <trkpt lat="45.735974265262485" lon="7.183107119053602">
        <ele>1817.7</ele>
        <time>2022-03-27T07:43:24Z</time>
      </trkpt>
      <trkpt lat="45.73612455278635" lon="7.183189932256937">
        <ele>1820.6700000000001</ele>
        <time>2022-03-27T07:43:40Z</time>
      </trkpt>
      <trkpt lat="45.736206527799368" lon="7.183254640549421">
        <ele>1821.8199999999999</ele>
        <time>2022-03-27T07:43:50Z</time>
      </trkpt>
      <trkpt lat="45.73621834628284" lon="7.183257825672627">
        <ele>1821.22</ele>
        <time>2022-03-27T07:44:00Z</time>
      </trkpt>
      <trkpt lat="45.736232260242105" lon="7.18325262889266">
        <ele>1821.4200000000001</ele>
        <time>2022-03-27T07:44:11Z</time>
      </trkpt>
      <trkpt lat="45.736237876117229" lon="7.183249443769455">
        <ele>1821.6300000000001</ele>
        <time>2022-03-27T07:44:26Z</time>
      </trkpt>
      <trkpt lat="45.73624080978334" lon="7.183254137635231">
        <ele>1821.6300000000001</ele>
        <time>2022-03-27T07:44:40Z</time>
      </trkpt>
      <trkpt lat="45.736241396516562" lon="7.18325212597847">
        <ele>1821.49</ele>
        <time>2022-03-27T07:44:54Z</time>
      </trkpt>
      <trkpt lat="45.73624424636364" lon="7.183265285566449">
        <ele>1821.49</ele>
        <time>2022-03-27T07:45:08Z</time>
      </trkpt>
      <trkpt lat="45.736243240535259" lon="7.183257658034563">
        <ele>1821.4100000000001</ele>
        <time>2022-03-27T07:45:21Z</time>
      </trkpt>
      <trkpt lat="45.736239971593022" lon="7.183247180655599">
        <ele>1821.6099999999999</ele>
        <time>2022-03-27T07:45:36Z</time>
      </trkpt>
      <trkpt lat="45.736219184473157" lon="7.183236954733729">
        <ele>1822.1500000000001</ele>
        <time>2022-03-27T07:45:50Z</time>
      </trkpt>
      <trkpt lat="45.736176017671824" lon="7.183196637779474">
        <ele>1821.6099999999999</ele>
        <time>2022-03-27T07:45:56Z</time>
      </trkpt>
      <trkpt lat="45.736123966053128" lon="7.18318079598248">
        <ele>1821</ele>
        <time>2022-03-27T07:46:08Z</time>
      </trkpt>
      <trkpt lat="45.736107118427753" lon="7.183185489848256">
        <ele>1820.6400000000001</ele>
        <time>2022-03-27T07:46:11Z</time>
      </trkpt>
      <trkpt lat="45.736069483682513" lon="7.183175096288323">
        <ele>1819.5599999999999</ele>
        <time>2022-03-27T07:46:15Z</time>
      </trkpt>
      <trkpt lat="45.736047606915236" lon="7.183135282248259">
        <ele>1818.71</ele>
        <time>2022-03-27T07:46:19Z</time>
      </trkpt>
      <trkpt lat="45.736041236668825" lon="7.183150285854936">
        <ele>1818.5699999999999</ele>
        <time>2022-03-27T07:46:21Z</time>
      </trkpt>
      <trkpt lat="45.73592078872025" lon="7.183072585612536">
        <ele>1817.1400000000001</ele>
        <time>2022-03-27T07:46:34Z</time>
      </trkpt>
      <trkpt lat="45.735914167016745" lon="7.183070406317711">
        <ele>1817.21</ele>
        <time>2022-03-27T07:46:35Z</time>
      </trkpt>
      <trkpt lat="45.735882399603724" lon="7.183055151253939">
        <ele>1817.75</ele>
        <time>2022-03-27T07:46:43Z</time>
      </trkpt>
      <trkpt lat="45.735851638019085" lon="7.18306839466095">
        <ele>1818.4100000000001</ele>
        <time>2022-03-27T07:46:47Z</time>
      </trkpt>
      <trkpt lat="45.735828755423427" lon="7.183075435459614">
        <ele>1818.3299999999999</ele>
        <time>2022-03-27T07:46:51Z</time>
      </trkpt>
      <trkpt lat="45.735671678557992" lon="7.183239720761776">
        <ele>1818.25</ele>
        <time>2022-03-27T07:47:07Z</time>
      </trkpt>
      <trkpt lat="45.735648460686207" lon="7.183250449597836">
        <ele>1818.5</ele>
        <time>2022-03-27T07:47:10Z</time>
      </trkpt>
      <trkpt lat="45.735506303608418" lon="7.183228237554431">
        <ele>1819.0699999999999</ele>
        <time>2022-03-27T07:47:25Z</time>
      </trkpt>
      <trkpt lat="45.735453329980373" lon="7.183145172894001">
        <ele>1821.21</ele>
        <time>2022-03-27T07:47:34Z</time>
      </trkpt>
      <trkpt lat="45.735429106280208" lon="7.18311969190836">
        <ele>1821.4400000000001</ele>
        <time>2022-03-27T07:47:38Z</time>
      </trkpt>
      <trkpt lat="45.735412929207087" lon="7.183201499283314">
        <ele>1820.97</ele>
        <time>2022-03-27T07:47:43Z</time>
      </trkpt>
      <trkpt lat="45.735404714941978" lon="7.183347176760435">
        <ele>1820.4300000000001</ele>
        <time>2022-03-27T07:47:56Z</time>
      </trkpt>
      <trkpt lat="45.735400440171361" lon="7.183284061029553">
        <ele>1820.5899999999999</ele>
        <time>2022-03-27T07:48:02Z</time>
      </trkpt>
      <trkpt lat="45.735411588102579" lon="7.183122541755438">
        <ele>1821.6600000000001</ele>
        <time>2022-03-27T07:48:17Z</time>
      </trkpt>
      <trkpt lat="45.735417371615767" lon="7.183116255328059">
        <ele>1820.46</ele>
        <time>2022-03-27T07:48:28Z</time>
      </trkpt>
      <trkpt lat="45.735422316938639" lon="7.183134611696005">
        <ele>1820.51</ele>
        <time>2022-03-27T07:48:59Z</time>
      </trkpt>
      <trkpt lat="45.735428771004081" lon="7.183133773505688">
        <ele>1821.8099999999999</ele>
        <time>2022-03-27T07:49:17Z</time>
      </trkpt>
      <trkpt lat="45.735423741862178" lon="7.183132683858275">
        <ele>1821.8399999999999</ele>
        <time>2022-03-27T07:49:30Z</time>
      </trkpt>
      <trkpt lat="45.735411588102579" lon="7.183083482086659">
        <ele>1821.79</ele>
        <time>2022-03-27T07:49:46Z</time>
      </trkpt>
      <trkpt lat="45.73538769967854" lon="7.183026485145092">
        <ele>1821.72</ele>
        <time>2022-03-27T07:49:56Z</time>
      </trkpt>
      <trkpt lat="45.735385688021779" lon="7.183019444346428">
        <ele>1821.9400000000001</ele>
        <time>2022-03-27T07:50:09Z</time>
      </trkpt>
      <trkpt lat="45.735388034954667" lon="7.183004776015878">
        <ele>1822.05</ele>
        <time>2022-03-27T07:50:29Z</time>
      </trkpt>
      <trkpt lat="45.73539893142879" lon="7.182914167642593">
        <ele>1822.79</ele>
        <time>2022-03-27T07:50:42Z</time>
      </trkpt>
      <trkpt lat="45.735403960570693" lon="7.182895140722394">
        <ele>1822.6900000000001</ele>
        <time>2022-03-27T07:50:46Z</time>
      </trkpt>
      <trkpt lat="45.735408654436469" lon="7.182851722463965">
        <ele>1822.9300000000001</ele>
        <time>2022-03-27T07:50:49Z</time>
      </trkpt>
      <trkpt lat="45.735430112108588" lon="7.182616526260972">
        <ele>1824.2</ele>
        <time>2022-03-27T07:51:04Z</time>
      </trkpt>
      <trkpt lat="45.735446875914931" lon="7.182394489645958">
        <ele>1825.3900000000001</ele>
        <time>2022-03-27T07:51:19Z</time>
      </trkpt>
      <trkpt lat="45.735485516488552" lon="7.182188797742128">
        <ele>1826.76</ele>
        <time>2022-03-27T07:51:34Z</time>
      </trkpt>
      <trkpt lat="45.735502280294895" lon="7.18200221657753">
        <ele>1828.22</ele>
        <time>2022-03-27T07:51:48Z</time>
      </trkpt>
      <trkpt lat="45.735509488731623" lon="7.181822089478374">
        <ele>1828.8199999999999</ele>
        <time>2022-03-27T07:52:01Z</time>
      </trkpt>
      <trkpt lat="45.735494317486882" lon="7.181633077561855">
        <ele>1830.3099999999999</ele>
        <time>2022-03-27T07:52:14Z</time>
      </trkpt>
      <trkpt lat="45.735483672469854" lon="7.181436773389578">
        <ele>1832.0999999999999</ele>
        <time>2022-03-27T07:52:29Z</time>
      </trkpt>
      <trkpt lat="45.735478894785047" lon="7.181346919387579">
        <ele>1832.96</ele>
        <time>2022-03-27T07:52:38Z</time>
      </trkpt>
      <trkpt lat="45.735480822622776" lon="7.181305680423975">
        <ele>1833.26</ele>
        <time>2022-03-27T07:52:41Z</time>
      </trkpt>
      <trkpt lat="45.735542010515928" lon="7.181081967428327">
        <ele>1834.52</ele>
        <time>2022-03-27T07:52:58Z</time>
      </trkpt>
      <trkpt lat="45.735598253086209" lon="7.180964704602957">
        <ele>1835.51</ele>
        <time>2022-03-27T07:53:10Z</time>
      </trkpt>
      <trkpt lat="45.735640497878194" lon="7.180889183655381">
        <ele>1836.8299999999999</ele>
        <time>2022-03-27T07:53:18Z</time>
      </trkpt>
      <trkpt lat="45.735764466226101" lon="7.180793713778257">
        <ele>1838.0799999999999</ele>
        <time>2022-03-27T07:53:33Z</time>
      </trkpt>
      <trkpt lat="45.735874939709902" lon="7.180649377405644">
        <ele>1839.45</ele>
        <time>2022-03-27T07:53:50Z</time>
      </trkpt>
      <trkpt lat="45.735884243622422" lon="7.180633870884776">
        <ele>1839.55</ele>
        <time>2022-03-27T07:53:52Z</time>
      </trkpt>
      <trkpt lat="45.736008211970329" lon="7.180452486500144">
        <ele>1841.1900000000001</ele>
        <time>2022-03-27T07:54:10Z</time>
      </trkpt>
      <trkpt lat="45.736087085679173" lon="7.180291470140219">
        <ele>1843.1600000000001</ele>
        <time>2022-03-27T07:54:26Z</time>
      </trkpt>
      <trkpt lat="45.73614165186882" lon="7.18009315431118">
        <ele>1845.97</ele>
        <time>2022-03-27T07:54:46Z</time>
      </trkpt>
      <trkpt lat="45.736166294664145" lon="7.179936915636063">
        <ele>1847.8900000000001</ele>
        <time>2022-03-27T07:55:01Z</time>
      </trkpt>
      <trkpt lat="45.73624818585813" lon="7.179795010015369">
        <ele>1849.8099999999999</ele>
        <time>2022-03-27T07:55:18Z</time>
      </trkpt>
      <trkpt lat="45.736254304647446" lon="7.179787550121546">
        <ele>1850.0999999999999</ele>
        <time>2022-03-27T07:55:19Z</time>
      </trkpt>
      <trkpt lat="45.736319599673152" lon="7.17969442717731">
        <ele>1851.6900000000001</ele>
        <time>2022-03-27T07:55:31Z</time>
      </trkpt>
      <trkpt lat="45.736390007659793" lon="7.179593592882156">
        <ele>1853</ele>
        <time>2022-03-27T07:55:43Z</time>
      </trkpt>
      <trkpt lat="45.736498301848769" lon="7.179489070549607">
        <ele>1854.1099999999999</ele>
        <time>2022-03-27T07:55:58Z</time>
      </trkpt>
      <trkpt lat="45.736574660986662" lon="7.179409861564636">
        <ele>1855.4000000000001</ele>
        <time>2022-03-27T07:56:11Z</time>
      </trkpt>
      <trkpt lat="45.736544234678149" lon="7.179336939007044">
        <ele>1855.5799999999999</ele>
        <time>2022-03-27T07:56:22Z</time>
      </trkpt>
      <trkpt lat="45.736552700400352" lon="7.1793323289603">
        <ele>1855.8</ele>
        <time>2022-03-27T07:56:33Z</time>
      </trkpt>
      <trkpt lat="45.736514646559954" lon="7.179311877116561">
        <ele>1855.9200000000001</ele>
        <time>2022-03-27T07:56:43Z</time>
      </trkpt>
      <trkpt lat="45.736512215808034" lon="7.179319001734257">
        <ele>1856.3099999999999</ele>
        <time>2022-03-27T07:56:50Z</time>
      </trkpt>
      <trkpt lat="45.736470138654113" lon="7.179323611781001">
        <ele>1856.01</ele>
        <time>2022-03-27T07:56:54Z</time>
      </trkpt>
      <trkpt lat="45.736305518075824" lon="7.179321013391018">
        <ele>1857.3800000000001</ele>
        <time>2022-03-27T07:57:08Z</time>
      </trkpt>
      <trkpt lat="45.736135113984346" lon="7.179347667843103">
        <ele>1860.5599999999999</ele>
        <time>2022-03-27T07:57:23Z</time>
      </trkpt>
      <trkpt lat="45.736124385148287" lon="7.179341968148947">
        <ele>1860.3699999999999</ele>
        <time>2022-03-27T07:57:24Z</time>
      </trkpt>
      <trkpt lat="45.736015671864152" lon="7.179185310378671">
        <ele>1862.0999999999999</ele>
        <time>2022-03-27T07:57:39Z</time>
      </trkpt>
      <trkpt lat="45.735943587496877" lon="7.179047260433435">
        <ele>1864.5899999999999</ele>
        <time>2022-03-27T07:57:52Z</time>
      </trkpt>
      <trkpt lat="45.735924057662487" lon="7.178890602663159">
        <ele>1867.73</ele>
        <time>2022-03-27T07:58:06Z</time>
      </trkpt>
      <trkpt lat="45.735923051834106" lon="7.178878532722592">
        <ele>1867.8299999999999</ele>
        <time>2022-03-27T07:58:07Z</time>
      </trkpt>
      <trkpt lat="45.735912322998047" lon="7.178740482777357">
        <ele>1870.03</ele>
        <time>2022-03-27T07:58:22Z</time>
      </trkpt>
      <trkpt lat="45.735926488414407" lon="7.17873034067452">
        <ele>1870.0599999999999</ele>
        <time>2022-03-27T07:58:26Z</time>
      </trkpt>
      <trkpt lat="45.736048361286521" lon="7.178747188299894">
        <ele>1871.3</ele>
        <time>2022-03-27T07:58:39Z</time>
      </trkpt>
      <trkpt lat="45.736201582476497" lon="7.178796725347638">
        <ele>1873.4200000000001</ele>
        <time>2022-03-27T07:58:57Z</time>
      </trkpt>
      <trkpt lat="45.736346840858459" lon="7.178836120292544">
        <ele>1874.9100000000001</ele>
        <time>2022-03-27T07:59:13Z</time>
      </trkpt>
      <trkpt lat="45.736500816419721" lon="7.178794546052814">
        <ele>1875.5599999999999</ele>
        <time>2022-03-27T07:59:28Z</time>
      </trkpt>
      <trkpt lat="45.736643057316542" lon="7.178707290440798">
        <ele>1876.6500000000001</ele>
        <time>2022-03-27T07:59:43Z</time>
      </trkpt>
      <trkpt lat="45.736778257414699" lon="7.178603438660502">
        <ele>1877.1800000000001</ele>
        <time>2022-03-27T07:59:57Z</time>
      </trkpt>
      <trkpt lat="45.736805247142911" lon="7.178593128919601">
        <ele>1877.25</ele>
        <time>2022-03-27T08:00:07Z</time>
      </trkpt>
      <trkpt lat="45.736822681501508" lon="7.178578963503242">
        <ele>1877.24</ele>
        <time>2022-03-27T08:00:13Z</time>
      </trkpt>
      <trkpt lat="45.736913373693824" lon="7.178530683740974">
        <ele>1877.3199999999999</ele>
        <time>2022-03-27T08:00:28Z</time>
      </trkpt>
      <trkpt lat="45.736916223540902" lon="7.178530348464847">
        <ele>1877.23</ele>
        <time>2022-03-27T08:00:31Z</time>
      </trkpt>
      <trkpt lat="45.736972214654088" lon="7.178499670699239">
        <ele>1877.3299999999999</ele>
        <time>2022-03-27T08:00:36Z</time>
      </trkpt>
      <trkpt lat="45.737131470814347" lon="7.178443009033799">
        <ele>1877.71</ele>
        <time>2022-03-27T08:00:50Z</time>
      </trkpt>
      <trkpt lat="45.737284021452069" lon="7.178400261327624">
        <ele>1878.27</ele>
        <time>2022-03-27T08:01:03Z</time>
      </trkpt>
      <trkpt lat="45.737416036427021" lon="7.17830621637404">
        <ele>1878.4400000000001</ele>
        <time>2022-03-27T08:01:16Z</time>
      </trkpt>
      <trkpt lat="45.737577807158232" lon="7.178263636305928">
        <ele>1878.6900000000001</ele>
        <time>2022-03-27T08:01:31Z</time>
      </trkpt>
      <trkpt lat="45.737717617303133" lon="7.17837511561811">
        <ele>1878.6300000000001</ele>
        <time>2022-03-27T08:01:45Z</time>
      </trkpt>
      <trkpt lat="45.737791964784265" lon="7.178451977670193">
        <ele>1879.1400000000001</ele>
        <time>2022-03-27T08:01:57Z</time>
      </trkpt>
      <trkpt lat="45.737835802137852" lon="7.178415935486555">
        <ele>1879.47</ele>
        <time>2022-03-27T08:02:07Z</time>
      </trkpt>
      <trkpt lat="45.737936133518815" lon="7.178372936323285">
        <ele>1881.97</ele>
        <time>2022-03-27T08:02:23Z</time>
      </trkpt>
      <trkpt lat="45.738070495426655" lon="7.178318537771702">
        <ele>1885.05</ele>
        <time>2022-03-27T08:02:41Z</time>
      </trkpt>
      <trkpt lat="45.738101927563548" lon="7.178304539993405">
        <ele>1886.1099999999999</ele>
        <time>2022-03-27T08:02:53Z</time>
      </trkpt>
      <trkpt lat="45.738105280324817" lon="7.17830185778439">
        <ele>1886.1500000000001</ele>
        <time>2022-03-27T08:03:10Z</time>
      </trkpt>
      <trkpt lat="45.738119278103113" lon="7.178286435082555">
        <ele>1886.2</ele>
        <time>2022-03-27T08:03:31Z</time>
      </trkpt>
      <trkpt lat="45.738155823200941" lon="7.178262881934643">
        <ele>1887.49</ele>
        <time>2022-03-27T08:03:43Z</time>
      </trkpt>
      <trkpt lat="45.738259674981236" lon="7.178351478651166">
        <ele>1889.8499999999999</ele>
        <time>2022-03-27T08:03:58Z</time>
      </trkpt>
      <trkpt lat="45.738342823460698" lon="7.178355418145657">
        <ele>1892.5799999999999</ele>
        <time>2022-03-27T08:04:11Z</time>
      </trkpt>
      <trkpt lat="45.738432258367538" lon="7.178395735099912">
        <ele>1894.8599999999999</ele>
        <time>2022-03-27T08:04:25Z</time>
      </trkpt>
      <trkpt lat="45.738464025780559" lon="7.178412079811096">
        <ele>1896.01</ele>
        <time>2022-03-27T08:04:37Z</time>
      </trkpt>
      <trkpt lat="45.73854373767972" lon="7.178449714556336">
        <ele>1897.4300000000001</ele>
        <time>2022-03-27T08:04:49Z</time>
      </trkpt>
      <trkpt lat="45.738635184243321" lon="7.178434375673533">
        <ele>1900.3199999999999</ele>
        <time>2022-03-27T08:05:04Z</time>
      </trkpt>
      <trkpt lat="45.738718416541815" lon="7.178418282419443">
        <ele>1902.79</ele>
        <time>2022-03-27T08:05:20Z</time>
      </trkpt>
      <trkpt lat="45.738751357421279" lon="7.178420629352331">
        <ele>1904.01</ele>
        <time>2022-03-27T08:05:34Z</time>
      </trkpt>
      <trkpt lat="45.738852526992559" lon="7.178474441170692">
        <ele>1906.5999999999999</ele>
        <time>2022-03-27T08:05:50Z</time>
      </trkpt>
      <trkpt lat="45.738910362124443" lon="7.178562786430121">
        <ele>1908.5599999999999</ele>
        <time>2022-03-27T08:06:03Z</time>
      </trkpt>
      <trkpt lat="45.738977584987879" lon="7.17863847501576">
        <ele>1910.3399999999999</ele>
        <time>2022-03-27T08:06:17Z</time>
      </trkpt>
      <trkpt lat="45.739062828943133" lon="7.178658004850149">
        <ele>1911.9000000000001</ele>
        <time>2022-03-27T08:06:30Z</time>
      </trkpt>
      <trkpt lat="45.739157879725099" lon="7.178680133074522">
        <ele>1913.5799999999999</ele>
        <time>2022-03-27T08:06:43Z</time>
      </trkpt>
      <trkpt lat="45.739244213327765" lon="7.17872497625649">
        <ele>1915.77</ele>
        <time>2022-03-27T08:06:57Z</time>
      </trkpt>
      <trkpt lat="45.739313699305058" lon="7.178760347887874">
        <ele>1917.8</ele>
        <time>2022-03-27T08:07:11Z</time>
      </trkpt>
      <trkpt lat="45.739409504458308" lon="7.178739393129945">
        <ele>1920.27</ele>
        <time>2022-03-27T08:07:26Z</time>
      </trkpt>
      <trkpt lat="45.739472368732095" lon="7.178710727021098">
        <ele>1922.79</ele>
        <time>2022-03-27T08:07:40Z</time>
      </trkpt>
      <trkpt lat="45.73950195685029" lon="7.178653813898563">
        <ele>1925.5699999999999</ele>
        <time>2022-03-27T08:07:55Z</time>
      </trkpt>
      <trkpt lat="45.739533053711057" lon="7.178734112530947">
        <ele>1925.22</ele>
        <time>2022-03-27T08:08:08Z</time>
      </trkpt>
      <trkpt lat="45.73953028768301" lon="7.178736375644803">
        <ele>1924.74</ele>
        <time>2022-03-27T08:08:26Z</time>
      </trkpt>
      <trkpt lat="45.739529365673661" lon="7.178740398958325">
        <ele>1922.98</ele>
        <time>2022-03-27T08:08:31Z</time>
      </trkpt>
      <trkpt lat="45.739527102559805" lon="7.178743416443467">
        <ele>1924.9100000000001</ele>
        <time>2022-03-27T08:08:38Z</time>
      </trkpt>
      <trkpt lat="45.739525761455297" lon="7.178749451413751">
        <ele>1924.75</ele>
        <time>2022-03-27T08:08:57Z</time>
      </trkpt>
      <trkpt lat="45.739521235227585" lon="7.178752133622766">
        <ele>1924.4200000000001</ele>
        <time>2022-03-27T08:09:16Z</time>
      </trkpt>
      <trkpt lat="45.739519307389855" lon="7.178756492212415">
        <ele>1924.49</ele>
        <time>2022-03-27T08:09:30Z</time>
      </trkpt>
      <trkpt lat="45.739519475027919" lon="7.178755570203066">
        <ele>1924.3900000000001</ele>
        <time>2022-03-27T08:09:52Z</time>
      </trkpt>
      <trkpt lat="45.739520816132426" lon="7.17875330708921">
        <ele>1924.6199999999999</ele>
        <time>2022-03-27T08:10:18Z</time>
      </trkpt>
      <trkpt lat="45.739524504169822" lon="7.178751463070512">
        <ele>1924.26</ele>
        <time>2022-03-27T08:10:32Z</time>
      </trkpt>
      <trkpt lat="45.739520313218236" lon="7.178753223270178">
        <ele>1923.8800000000001</ele>
        <time>2022-03-27T08:10:53Z</time>
      </trkpt>
      <trkpt lat="45.739528024569154" lon="7.178753223270178">
        <ele>1924.0799999999999</ele>
        <time>2022-03-27T08:11:17Z</time>
      </trkpt>
      <trkpt lat="45.739568760618567" lon="7.178712235763669">
        <ele>1925.4200000000001</ele>
        <time>2022-03-27T08:11:35Z</time>
      </trkpt>
      <trkpt lat="45.739621734246612" lon="7.178649874404073">
        <ele>1928.0599999999999</ele>
        <time>2022-03-27T08:11:46Z</time>
      </trkpt>
      <trkpt lat="45.739668337628245" lon="7.17858524993062">
        <ele>1930.76</ele>
        <time>2022-03-27T08:11:59Z</time>
      </trkpt>
      <trkpt lat="45.739706475287676" lon="7.178515596315265">
        <ele>1933.03</ele>
        <time>2022-03-27T08:12:13Z</time>
      </trkpt>
      <trkpt lat="45.739733632653952" lon="7.178472178056836">
        <ele>1935.3399999999999</ele>
        <time>2022-03-27T08:12:28Z</time>
      </trkpt>
      <trkpt lat="45.739770932123065" lon="7.178408307954669">
        <ele>1938.46</ele>
        <time>2022-03-27T08:12:44Z</time>
      </trkpt>
      <trkpt lat="45.739788953214884" lon="7.178388526663184">
        <ele>1939.3900000000001</ele>
        <time>2022-03-27T08:12:59Z</time>
      </trkpt>
      <trkpt lat="45.739827174693346" lon="7.178334714844823">
        <ele>1941.9300000000001</ele>
        <time>2022-03-27T08:13:13Z</time>
      </trkpt>
      <trkpt lat="45.739882662892342" lon="7.178303617984057">
        <ele>1944.4000000000001</ele>
        <time>2022-03-27T08:13:27Z</time>
      </trkpt>
      <trkpt lat="45.739950556308031" lon="7.178320968523622">
        <ele>1946.9200000000001</ele>
        <time>2022-03-27T08:13:39Z</time>
      </trkpt>
      <trkpt lat="45.740019790828228" lon="7.178277298808098">
        <ele>1948.6099999999999</ele>
        <time>2022-03-27T08:13:52Z</time>
      </trkpt>
      <trkpt lat="45.740031944587827" lon="7.17827252112329">
        <ele>1949.26</ele>
        <time>2022-03-27T08:14:09Z</time>
      </trkpt>
      <trkpt lat="45.740065053105354" lon="7.178242681547999">
        <ele>1949.9000000000001</ele>
        <time>2022-03-27T08:14:24Z</time>
      </trkpt>
      <trkpt lat="45.740117859095335" lon="7.17818358913064">
        <ele>1952.1099999999999</ele>
        <time>2022-03-27T08:14:39Z</time>
      </trkpt>
      <trkpt lat="45.740148201584816" lon="7.178188618272543">
        <ele>1953.1900000000001</ele>
        <time>2022-03-27T08:14:53Z</time>
      </trkpt>
      <trkpt lat="45.740202683955431" lon="7.178204962983728">
        <ele>1954.8</ele>
        <time>2022-03-27T08:15:06Z</time>
      </trkpt>
      <trkpt lat="45.740247862413526" lon="7.178229857236147">
        <ele>1956.7</ele>
        <time>2022-03-27T08:15:19Z</time>
      </trkpt>
      <trkpt lat="45.74033067561686" lon="7.178245866671205">
        <ele>1958.79</ele>
        <time>2022-03-27T08:15:32Z</time>
      </trkpt>
      <trkpt lat="45.740385996177793" lon="7.178171770647168">
        <ele>1961.9200000000001</ele>
        <time>2022-03-27T08:15:46Z</time>
      </trkpt>
      <trkpt lat="45.740447016432881" lon="7.178104966878891">
        <ele>1963.8599999999999</ele>
        <time>2022-03-27T08:16:00Z</time>
      </trkpt>
      <trkpt lat="45.740512982010841" lon="7.178035145625472">
        <ele>1966.0899999999999</ele>
        <time>2022-03-27T08:16:14Z</time>
      </trkpt>
      <trkpt lat="45.740567548200488" lon="7.177976807579398">
        <ele>1968.6800000000001</ele>
        <time>2022-03-27T08:16:27Z</time>
      </trkpt>
      <trkpt lat="45.740633262321353" lon="7.17792802490294">
        <ele>1971.1900000000001</ele>
        <time>2022-03-27T08:16:41Z</time>
      </trkpt>
      <trkpt lat="45.74069906026125" lon="7.177847307175398">
        <ele>1973.6400000000001</ele>
        <time>2022-03-27T08:16:56Z</time>
      </trkpt>
      <trkpt lat="45.740729318931699" lon="7.177805062383413">
        <ele>1973.9000000000001</ele>
        <time>2022-03-27T08:17:11Z</time>
      </trkpt>
      <trkpt lat="45.740746837109327" lon="7.17777069658041">
        <ele>1974.3099999999999</ele>
        <time>2022-03-27T08:17:26Z</time>
      </trkpt>
      <trkpt lat="45.740767875686288" lon="7.177688805386424">
        <ele>1976.0999999999999</ele>
        <time>2022-03-27T08:17:36Z</time>
      </trkpt>
      <trkpt lat="45.740800397470593" lon="7.177641028538346">
        <ele>1977.1400000000001</ele>
        <time>2022-03-27T08:17:48Z</time>
      </trkpt>
      <trkpt lat="45.740811545401812" lon="7.177578248083592">
        <ele>1978.8</ele>
        <time>2022-03-27T08:18:01Z</time>
      </trkpt>
      <trkpt lat="45.740814227610826" lon="7.177534997463226">
        <ele>1980.6400000000001</ele>
        <time>2022-03-27T08:18:18Z</time>
      </trkpt>
      <trkpt lat="45.74083442799747" lon="7.177458805963397">
        <ele>1983.0599999999999</ele>
        <time>2022-03-27T08:18:31Z</time>
      </trkpt>
      <trkpt lat="45.740846749395132" lon="7.177431229501963">
        <ele>1983.8399999999999</ele>
        <time>2022-03-27T08:18:46Z</time>
      </trkpt>
      <trkpt lat="45.740894274786115" lon="7.17734363861382">
        <ele>1986.55</ele>
        <time>2022-03-27T08:18:59Z</time>
      </trkpt>
      <trkpt lat="45.740937860682607" lon="7.177286138758063">
        <ele>1989.02</ele>
        <time>2022-03-27T08:19:13Z</time>
      </trkpt>
      <trkpt lat="45.740944817662239" lon="7.177292592823505">
        <ele>1985.4200000000001</ele>
        <time>2022-03-27T08:19:28Z</time>
      </trkpt>
      <trkpt lat="45.740945069119334" lon="7.177293431013823">
        <ele>1986.9300000000001</ele>
        <time>2022-03-27T08:19:29Z</time>
      </trkpt>
      <trkpt lat="45.74094582349062" lon="7.177293347194791">
        <ele>1991.55</ele>
        <time>2022-03-27T08:19:30Z</time>
      </trkpt>
      <trkpt lat="45.740946158766747" lon="7.177293933928013">
        <ele>1990.3900000000001</ele>
        <time>2022-03-27T08:19:31Z</time>
      </trkpt>
      <trkpt lat="45.740947164595127" lon="7.17729477211833">
        <ele>1989.3399999999999</ele>
        <time>2022-03-27T08:19:33Z</time>
      </trkpt>
      <trkpt lat="45.740948421880603" lon="7.177304830402136">
        <ele>1988.47</ele>
        <time>2022-03-27T08:19:49Z</time>
      </trkpt>
      <trkpt lat="45.740962252020836" lon="7.177277421578765">
        <ele>1988.72</ele>
        <time>2022-03-27T08:20:07Z</time>
      </trkpt>
      <trkpt lat="45.741006508469582" lon="7.177218999713659">
        <ele>1991.8800000000001</ele>
        <time>2022-03-27T08:20:20Z</time>
      </trkpt>
      <trkpt lat="45.741019835695624" lon="7.177193099632859">
        <ele>1992.6400000000001</ele>
        <time>2022-03-27T08:20:33Z</time>
      </trkpt>
      <trkpt lat="45.741023942828178" lon="7.177187567576766">
        <ele>1993.04</ele>
        <time>2022-03-27T08:20:51Z</time>
      </trkpt>
      <trkpt lat="45.741062331944704" lon="7.177114561200142">
        <ele>1994.1700000000001</ele>
        <time>2022-03-27T08:21:01Z</time>
      </trkpt>
      <trkpt lat="45.741085549816489" lon="7.177060581743717">
        <ele>1996.74</ele>
        <time>2022-03-27T08:21:13Z</time>
      </trkpt>
      <trkpt lat="45.741088483482599" lon="7.177045242860913">
        <ele>1996.74</ele>
        <time>2022-03-27T08:21:31Z</time>
      </trkpt>
      <trkpt lat="45.741094434633851" lon="7.177046248689294">
        <ele>1997.02</ele>
        <time>2022-03-27T08:21:49Z</time>
      </trkpt>
      <trkpt lat="45.74109829030931" lon="7.177036860957742">
        <ele>1996.6400000000001</ele>
        <time>2022-03-27T08:22:06Z</time>
      </trkpt>
      <trkpt lat="45.741136344149709" lon="7.176985647529364">
        <ele>1997.24</ele>
        <time>2022-03-27T08:22:19Z</time>
      </trkpt>
      <trkpt lat="45.741213290020823" lon="7.176952958106995">
        <ele>1999.23</ele>
        <time>2022-03-27T08:22:33Z</time>
      </trkpt>
      <trkpt lat="45.741263832896948" lon="7.176919933408499">
        <ele>2000.98</ele>
        <time>2022-03-27T08:22:45Z</time>
      </trkpt>
      <trkpt lat="45.741298785433173" lon="7.176834354177117">
        <ele>2002.76</ele>
        <time>2022-03-27T08:22:58Z</time>
      </trkpt>
      <trkpt lat="45.74132795445621" lon="7.176773753017187">
        <ele>2004.3399999999999</ele>
        <time>2022-03-27T08:23:12Z</time>
      </trkpt>
      <trkpt lat="45.741373468190432" lon="7.176669565960765">
        <ele>2006.5</ele>
        <time>2022-03-27T08:23:27Z</time>
      </trkpt>
      <trkpt lat="45.741430968046188" lon="7.176622962579131">
        <ele>2008.72</ele>
        <time>2022-03-27T08:23:40Z</time>
      </trkpt>
      <trkpt lat="45.741474889218807" lon="7.176592452451587">
        <ele>2011.1600000000001</ele>
        <time>2022-03-27T08:23:52Z</time>
      </trkpt>
      <trkpt lat="45.741507159546018" lon="7.176581136882305">
        <ele>2012.5699999999999</ele>
        <time>2022-03-27T08:24:07Z</time>
      </trkpt>
      <trkpt lat="45.741545632481575" lon="7.176575269550085">
        <ele>2013.8800000000001</ele>
        <time>2022-03-27T08:24:19Z</time>
      </trkpt>
      <trkpt lat="45.741609586402774" lon="7.176541909575462">
        <ele>2016.0599999999999</ele>
        <time>2022-03-27T08:24:34Z</time>
      </trkpt>
      <trkpt lat="45.74164898134768" lon="7.176482230424881">
        <ele>2018.73</ele>
        <time>2022-03-27T08:24:48Z</time>
      </trkpt>
      <trkpt lat="45.741658704355359" lon="7.176458006724715">
        <ele>2019.8699999999999</ele>
        <time>2022-03-27T08:25:05Z</time>
      </trkpt>
      <trkpt lat="45.741692567244172" lon="7.176441829651594">
        <ele>2021.8800000000001</ele>
        <time>2022-03-27T08:25:19Z</time>
      </trkpt>
      <trkpt lat="45.741719724610448" lon="7.176398746669292">
        <ele>2023.45</ele>
        <time>2022-03-27T08:25:31Z</time>
      </trkpt>
      <trkpt lat="45.741760460659862" lon="7.176354909315705">
        <ele>2025.77</ele>
        <time>2022-03-27T08:25:46Z</time>
      </trkpt>
      <trkpt lat="45.741799687966704" lon="7.176334792748094">
        <ele>2028.28</ele>
        <time>2022-03-27T08:25:59Z</time>
      </trkpt>
      <trkpt lat="45.741836065426469" lon="7.176315598189831">
        <ele>2030.79</ele>
        <time>2022-03-27T08:26:13Z</time>
      </trkpt>
      <trkpt lat="45.741840172559023" lon="7.176316604018211">
        <ele>2031.1900000000001</ele>
        <time>2022-03-27T08:26:27Z</time>
      </trkpt>
      <trkpt lat="45.741882752627134" lon="7.176293050870299">
        <ele>2033.1600000000001</ele>
        <time>2022-03-27T08:26:45Z</time>
      </trkpt>
      <trkpt lat="45.741946035996079" lon="7.176270838826895">
        <ele>2035.8900000000001</ele>
        <time>2022-03-27T08:27:00Z</time>
      </trkpt>
      <trkpt lat="45.742013091221452" lon="7.176204454153776">
        <ele>2038.2</ele>
        <time>2022-03-27T08:27:17Z</time>
      </trkpt>
      <trkpt lat="45.742067154496908" lon="7.176160784438252">
        <ele>2040.3299999999999</ele>
        <time>2022-03-27T08:27:31Z</time>
      </trkpt>
      <trkpt lat="45.742096407338977" lon="7.17613622546196">
        <ele>2041</ele>
        <time>2022-03-27T08:27:45Z</time>
      </trkpt>
      <trkpt lat="45.742165558040142" lon="7.176092304289341">
        <ele>2044.0899999999999</ele>
        <time>2022-03-27T08:28:00Z</time>
      </trkpt>
      <trkpt lat="45.742223644629121" lon="7.176029356196523">
        <ele>2047.1900000000001</ele>
        <time>2022-03-27T08:28:16Z</time>
      </trkpt>
      <trkpt lat="45.742268487811089" lon="7.175951739773154">
        <ele>2049.6300000000001</ele>
        <time>2022-03-27T08:28:30Z</time>
      </trkpt>
      <trkpt lat="45.742291621863842" lon="7.175963977351785">
        <ele>2051.2399999999998</ele>
        <time>2022-03-27T08:28:40Z</time>
      </trkpt>
      <trkpt lat="45.742311151698232" lon="7.17591930180788">
        <ele>2051.9499999999998</ele>
        <time>2022-03-27T08:28:51Z</time>
      </trkpt>
      <trkpt lat="45.742367981001735" lon="7.175875967368484">
        <ele>2054.98</ele>
        <time>2022-03-27T08:29:07Z</time>
      </trkpt>
      <trkpt lat="45.742399329319596" lon="7.175878984853625">
        <ele>2056.4000000000001</ele>
        <time>2022-03-27T08:29:17Z</time>
      </trkpt>
      <trkpt lat="45.742460433393717" lon="7.175840763375163">
        <ele>2058.3099999999999</ele>
        <time>2022-03-27T08:29:30Z</time>
      </trkpt>
      <trkpt lat="45.742528662085533" lon="7.175781754776835">
        <ele>2060.3499999999999</ele>
        <time>2022-03-27T08:29:44Z</time>
      </trkpt>
      <trkpt lat="45.742549616843462" lon="7.175760632380843">
        <ele>2061</ele>
        <time>2022-03-27T08:29:58Z</time>
      </trkpt>
      <trkpt lat="45.742568895220757" lon="7.175729870796204">
        <ele>2061.6100000000001</ele>
        <time>2022-03-27T08:30:17Z</time>
      </trkpt>
      <trkpt lat="45.742600075900555" lon="7.175634149461985">
        <ele>2064.3400000000001</ele>
        <time>2022-03-27T08:30:31Z</time>
      </trkpt>
      <trkpt lat="45.742640728130937" lon="7.175520826131105">
        <ele>2067.0700000000002</ele>
        <time>2022-03-27T08:30:46Z</time>
      </trkpt>
      <trkpt lat="45.742667047306895" lon="7.175379758700728">
        <ele>2070.0799999999999</ele>
        <time>2022-03-27T08:31:03Z</time>
      </trkpt>
      <trkpt lat="45.742722284048796" lon="7.17528697103262">
        <ele>2072.96</ele>
        <time>2022-03-27T08:31:20Z</time>
      </trkpt>
      <trkpt lat="45.742791518568993" lon="7.175256125628948">
        <ele>2075</ele>
        <time>2022-03-27T08:31:34Z</time>
      </trkpt>
      <trkpt lat="45.742838373407722" lon="7.175232656300068">
        <ele>2075.4699999999998</ele>
        <time>2022-03-27T08:31:41Z</time>
      </trkpt>
      <trkpt lat="45.742926048114896" lon="7.175281355157495">
        <ele>2077.2199999999998</ele>
        <time>2022-03-27T08:31:56Z</time>
      </trkpt>
      <trkpt lat="45.742965694516897" lon="7.175372550264001">
        <ele>2080.3200000000002</ele>
        <time>2022-03-27T08:32:11Z</time>
      </trkpt>
      <trkpt lat="45.743012046441436" lon="7.17537883669138">
        <ele>2082.21</ele>
        <time>2022-03-27T08:32:23Z</time>
      </trkpt>
      <trkpt lat="45.743070635944605" lon="7.175296694040299">
        <ele>2084.8899999999999</ele>
        <time>2022-03-27T08:32:38Z</time>
      </trkpt>
      <trkpt lat="45.743109947070479" lon="7.17529040761292">
        <ele>2086.2199999999998</ele>
        <time>2022-03-27T08:32:51Z</time>
      </trkpt>
      <trkpt lat="45.743186641484499" lon="7.175392247736454">
        <ele>2088.0599999999999</ele>
        <time>2022-03-27T08:33:08Z</time>
      </trkpt>
      <trkpt lat="45.743237938731909" lon="7.175308847799897">
        <ele>2089.77</ele>
        <time>2022-03-27T08:33:22Z</time>
      </trkpt>
      <trkpt lat="45.743293510749936" lon="7.175168618559837">
        <ele>2092.8299999999999</ele>
        <time>2022-03-27T08:33:41Z</time>
      </trkpt>
      <trkpt lat="45.74332594871521" lon="7.175117069855332">
        <ele>2094.1500000000001</ele>
        <time>2022-03-27T08:33:55Z</time>
      </trkpt>
      <trkpt lat="45.74342711828649" lon="7.175032328814268">
        <ele>2096.0799999999999</ele>
        <time>2022-03-27T08:34:12Z</time>
      </trkpt>
      <trkpt lat="45.743528623133898" lon="7.174899224191904">
        <ele>2097.7399999999998</ele>
        <time>2022-03-27T08:34:29Z</time>
      </trkpt>
      <trkpt lat="45.743602216243744" lon="7.174800988286734">
        <ele>2100.1700000000001</ele>
        <time>2022-03-27T08:34:44Z</time>
      </trkpt>
      <trkpt lat="45.743699530139565" lon="7.174719348549843">
        <ele>2103.1999999999998</ele>
        <time>2022-03-27T08:35:02Z</time>
      </trkpt>
      <trkpt lat="45.743775386363268" lon="7.174670062959194">
        <ele>2105.7600000000002</ele>
        <time>2022-03-27T08:35:17Z</time>
      </trkpt>
      <trkpt lat="45.743844453245401" lon="7.174618765711784">
        <ele>2109.0100000000002</ele>
        <time>2022-03-27T08:35:33Z</time>
      </trkpt>
      <trkpt lat="45.743890721350908" lon="7.174540059641004">
        <ele>2110.5900000000001</ele>
        <time>2022-03-27T08:35:47Z</time>
      </trkpt>
      <trkpt lat="45.743930116295815" lon="7.174435034394264">
        <ele>2113.4000000000001</ele>
        <time>2022-03-27T08:36:03Z</time>
      </trkpt>
      <trkpt lat="45.744005301967263" lon="7.174410559237003">
        <ele>2115.6199999999999</ele>
        <time>2022-03-27T08:36:19Z</time>
      </trkpt>
      <trkpt lat="45.744084259495139" lon="7.174401171505451">
        <ele>2118.6199999999999</ele>
        <time>2022-03-27T08:36:35Z</time>
      </trkpt>
      <trkpt lat="45.744165815412998" lon="7.174386084079742">
        <ele>2120.5</ele>
        <time>2022-03-27T08:36:49Z</time>
      </trkpt>
      <trkpt lat="45.744262123480439" lon="7.174364374950528">
        <ele>2122.0900000000001</ele>
        <time>2022-03-27T08:37:04Z</time>
      </trkpt>
      <trkpt lat="45.744346361607313" lon="7.174352640286088">
        <ele>2124.6399999999999</ele>
        <time>2022-03-27T08:37:19Z</time>
      </trkpt>
      <trkpt lat="45.744400760158896" lon="7.174260187894106">
        <ele>2127</ele>
        <time>2022-03-27T08:37:34Z</time>
      </trkpt>
      <trkpt lat="45.744469910860062" lon="7.174148289486766">
        <ele>2129.23</ele>
        <time>2022-03-27T08:37:51Z</time>
      </trkpt>
      <trkpt lat="45.744491200894117" lon="7.174043096601963">
        <ele>2131.1900000000001</ele>
        <time>2022-03-27T08:38:06Z</time>
      </trkpt>
      <trkpt lat="45.744517771527171" lon="7.173931868746877">
        <ele>2132.8800000000001</ele>
        <time>2022-03-27T08:38:22Z</time>
      </trkpt>
      <trkpt lat="45.744545264169574" lon="7.173854671418667">
        <ele>2134.3200000000002</ele>
        <time>2022-03-27T08:38:38Z</time>
      </trkpt>
      <trkpt lat="45.744548281654716" lon="7.173863975331187">
        <ele>2132.9099999999999</ele>
        <time>2022-03-27T08:38:48Z</time>
      </trkpt>
      <trkpt lat="45.744558423757553" lon="7.173873279243708">
        <ele>2133.3200000000002</ele>
        <time>2022-03-27T08:39:15Z</time>
      </trkpt>
      <trkpt lat="45.744560351595283" lon="7.173869675025344">
        <ele>2133.21</ele>
        <time>2022-03-27T08:39:58Z</time>
      </trkpt>
      <trkpt lat="45.744564877822995" lon="7.173872860148549">
        <ele>2133.5599999999999</ele>
        <time>2022-03-27T08:40:26Z</time>
      </trkpt>
      <trkpt lat="45.744561944156885" lon="7.173876883462071">
        <ele>2132.9200000000001</ele>
        <time>2022-03-27T08:41:07Z</time>
      </trkpt>
      <trkpt lat="45.744563955813646" lon="7.173873363062739">
        <ele>2132.8000000000002</ele>
        <time>2022-03-27T08:41:53Z</time>
      </trkpt>
      <trkpt lat="45.744566805660725" lon="7.173875123262405">
        <ele>2132.8899999999999</ele>
        <time>2022-03-27T08:42:33Z</time>
      </trkpt>
      <trkpt lat="45.744576696306467" lon="7.173874201253057">
        <ele>2133.4200000000001</ele>
        <time>2022-03-27T08:43:06Z</time>
      </trkpt>
      <trkpt lat="45.744560603052378" lon="7.173875290900469">
        <ele>2133.1500000000001</ele>
        <time>2022-03-27T08:43:33Z</time>
      </trkpt>
      <trkpt lat="45.744557837024331" lon="7.173858191817999">
        <ele>2128.3099999999999</ele>
        <time>2022-03-27T08:46:14Z</time>
      </trkpt>
      <trkpt lat="45.744549538940191" lon="7.173886857926846">
        <ele>2129.1700000000001</ele>
        <time>2022-03-27T08:46:32Z</time>
      </trkpt>
      <trkpt lat="45.744559178128839" lon="7.17388216406107">
        <ele>2129.8200000000002</ele>
        <time>2022-03-27T08:46:53Z</time>
      </trkpt>
      <trkpt lat="45.744561105966568" lon="7.173880403861404">
        <ele>2129.0999999999999</ele>
        <time>2022-03-27T08:47:11Z</time>
      </trkpt>
      <trkpt lat="45.744560100138187" lon="7.173878392204642">
        <ele>2128.77</ele>
        <time>2022-03-27T08:47:33Z</time>
      </trkpt>
      <trkpt lat="45.744562698528171" lon="7.173879398033023">
        <ele>2129.5900000000001</ele>
        <time>2022-03-27T08:48:02Z</time>
      </trkpt>
      <trkpt lat="45.744560435414314" lon="7.173879398033023">
        <ele>2129.6999999999998</ele>
        <time>2022-03-27T08:48:16Z</time>
      </trkpt>
      <trkpt lat="45.744562447071075" lon="7.173881242051721">
        <ele>2130.0599999999999</ele>
        <time>2022-03-27T08:48:31Z</time>
      </trkpt>
      <trkpt lat="45.744558172300458" lon="7.173868920654059">
        <ele>2130.3600000000001</ele>
        <time>2022-03-27T08:48:45Z</time>
      </trkpt>
      <trkpt lat="45.74459102936089" lon="7.17382843606174">
        <ele>2130.6300000000001</ele>
        <time>2022-03-27T08:49:01Z</time>
      </trkpt>
      <trkpt lat="45.744611900299788" lon="7.173793483525515">
        <ele>2130.6500000000001</ele>
        <time>2022-03-27T08:49:10Z</time>
      </trkpt>
      <trkpt lat="45.744671076536179" lon="7.173705389723182">
        <ele>2130.7600000000002</ele>
        <time>2022-03-27T08:49:23Z</time>
      </trkpt>
      <trkpt lat="45.744672501459718" lon="7.173702120780945">
        <ele>2130.7800000000002</ele>
        <time>2022-03-27T08:49:24Z</time>
      </trkpt>
      <trkpt lat="45.744732851162553" lon="7.173660881817341">
        <ele>2131.0599999999999</ele>
        <time>2022-03-27T08:49:33Z</time>
      </trkpt>
      <trkpt lat="45.744825890287757" lon="7.173546804115176">
        <ele>2132.5700000000002</ele>
        <time>2022-03-27T08:49:49Z</time>
      </trkpt>
      <trkpt lat="45.744862016290426" lon="7.173505313694477">
        <ele>2133.3299999999999</ele>
        <time>2022-03-27T08:49:57Z</time>
      </trkpt>
      <trkpt lat="45.744962180033326" lon="7.173499446362257">
        <ele>2134.0300000000002</ele>
        <time>2022-03-27T08:50:09Z</time>
      </trkpt>
      <trkpt lat="45.745081705972552" lon="7.173459716141224">
        <ele>2135.8699999999999</ele>
        <time>2022-03-27T08:50:26Z</time>
      </trkpt>
      <trkpt lat="45.745149767026305" lon="7.173344800248742">
        <ele>2137.4699999999998</ele>
        <time>2022-03-27T08:50:41Z</time>
      </trkpt>
      <trkpt lat="45.745202070102096" lon="7.173266429454088">
        <ele>2139.0300000000002</ele>
        <time>2022-03-27T08:50:53Z</time>
      </trkpt>
      <trkpt lat="45.745243895798922" lon="7.173188729211688">
        <ele>2140.2199999999998</ele>
        <time>2022-03-27T08:51:05Z</time>
      </trkpt>
      <trkpt lat="45.745248086750507" lon="7.173052858561277">
        <ele>2141.8400000000001</ele>
        <time>2022-03-27T08:51:19Z</time>
      </trkpt>
      <trkpt lat="45.745297288522124" lon="7.172963758930564">
        <ele>2142.9099999999999</ele>
        <time>2022-03-27T08:51:32Z</time>
      </trkpt>
      <trkpt lat="45.745361242443323" lon="7.172879688441753">
        <ele>2144.7199999999998</ele>
        <time>2022-03-27T08:51:47Z</time>
      </trkpt>
      <trkpt lat="45.745386891067028" lon="7.172814896330237">
        <ele>2145.8499999999999</ele>
        <time>2022-03-27T08:52:00Z</time>
      </trkpt>
      <trkpt lat="45.745410528033972" lon="7.172763431444764">
        <ele>2146.6199999999999</ele>
        <time>2022-03-27T08:52:12Z</time>
      </trkpt>
      <trkpt lat="45.745438607409596" lon="7.172636277973652">
        <ele>2149.0999999999999</ele>
        <time>2022-03-27T08:52:31Z</time>
      </trkpt>
      <trkpt lat="45.74544413946569" lon="7.172555811703205">
        <ele>2150.5599999999999</ele>
        <time>2022-03-27T08:52:43Z</time>
      </trkpt>
      <trkpt lat="45.74548521079123" lon="7.172491606324911">
        <ele>2152.3000000000002</ele>
        <time>2022-03-27T08:52:59Z</time>
      </trkpt>
      <trkpt lat="45.745525360107422" lon="7.172426814213395">
        <ele>2154.0500000000002</ele>
        <time>2022-03-27T08:53:12Z</time>
      </trkpt>
      <trkpt lat="45.745564168319106" lon="7.172367302700877">
        <ele>2155.8800000000001</ele>
        <time>2022-03-27T08:53:28Z</time>
      </trkpt>
      <trkpt lat="45.745541704818606" lon="7.17232396826148">
        <ele>2156.2399999999998</ele>
        <time>2022-03-27T08:53:48Z</time>
      </trkpt>
      <trkpt lat="45.745596354827285" lon="7.172258840873838">
        <ele>2158.3099999999999</ele>
        <time>2022-03-27T08:54:03Z</time>
      </trkpt>
      <trkpt lat="45.745636587962508" lon="7.172183655202389">
        <ele>2160.4000000000001</ele>
        <time>2022-03-27T08:54:18Z</time>
      </trkpt>
      <trkpt lat="45.745689310133457" lon="7.17211140319705">
        <ele>2162.9699999999998</ele>
        <time>2022-03-27T08:54:33Z</time>
      </trkpt>
      <trkpt lat="45.745716132223606" lon="7.172052646055818">
        <ele>2164.8299999999999</ele>
        <time>2022-03-27T08:54:47Z</time>
      </trkpt>
      <trkpt lat="45.745726777240634" lon="7.172046275809407">
        <ele>2165.6900000000001</ele>
        <time>2022-03-27T08:55:04Z</time>
      </trkpt>
      <trkpt lat="45.74577396735549" lon="7.171971676871181">
        <ele>2167.54</ele>
        <time>2022-03-27T08:55:18Z</time>
      </trkpt>
      <trkpt lat="45.745823588222265" lon="7.171867908909917">
        <ele>2170.1599999999999</ele>
        <time>2022-03-27T08:55:35Z</time>
      </trkpt>
      <trkpt lat="45.745845381170511" lon="7.171803032979369">
        <ele>2171.6100000000001</ele>
        <time>2022-03-27T08:55:46Z</time>
      </trkpt>
      <trkpt lat="45.745870023965836" lon="7.171703707426786">
        <ele>2173.3499999999999</ele>
        <time>2022-03-27T08:56:01Z</time>
      </trkpt>
      <trkpt lat="45.745897181332111" lon="7.171638496220112">
        <ele>2174.9899999999998</ele>
        <time>2022-03-27T08:56:15Z</time>
      </trkpt>
      <trkpt lat="45.745930457487702" lon="7.171548306941986">
        <ele>2178</ele>
        <time>2022-03-27T08:56:31Z</time>
      </trkpt>
      <trkpt lat="45.745953088626266" lon="7.171466080471873">
        <ele>2180.2399999999998</ele>
        <time>2022-03-27T08:56:48Z</time>
      </trkpt>
      <trkpt lat="45.745995752513409" lon="7.171406904235482">
        <ele>2182.6399999999999</ele>
        <time>2022-03-27T08:57:05Z</time>
      </trkpt>
      <trkpt lat="45.746027268469334" lon="7.171331802383065">
        <ele>2184.96</ele>
        <time>2022-03-27T08:57:20Z</time>
      </trkpt>
      <trkpt lat="45.746030537411571" lon="7.171331131830812">
        <ele>2185.1700000000001</ele>
        <time>2022-03-27T08:57:36Z</time>
      </trkpt>
      <trkpt lat="45.746052330359817" lon="7.1713144518435">
        <ele>2185.4499999999998</ele>
        <time>2022-03-27T08:57:52Z</time>
      </trkpt>
      <trkpt lat="45.7461067289114" lon="7.171264244243503">
        <ele>2187.8499999999999</ele>
        <time>2022-03-27T08:58:06Z</time>
      </trkpt>
      <trkpt lat="45.746161546558142" lon="7.171187130734325">
        <ele>2190.0300000000002</ele>
        <time>2022-03-27T08:58:20Z</time>
      </trkpt>
      <trkpt lat="45.746210161596537" lon="7.171139940619469">
        <ele>2191.27</ele>
        <time>2022-03-27T08:58:31Z</time>
      </trkpt>
      <trkpt lat="45.74625969864428" lon="7.171097360551357">
        <ele>2192.5700000000002</ele>
        <time>2022-03-27T08:58:43Z</time>
      </trkpt>
      <trkpt lat="45.746309319511056" lon="7.171088056638837">
        <ele>2194.4699999999998</ele>
        <time>2022-03-27T08:58:55Z</time>
      </trkpt>
      <trkpt lat="45.746369753032923" lon="7.171029467135668">
        <ele>2196.4099999999999</ele>
        <time>2022-03-27T08:59:12Z</time>
      </trkpt>
      <trkpt lat="45.746418870985508" lon="7.170926705002785">
        <ele>2199.4400000000001</ele>
        <time>2022-03-27T08:59:30Z</time>
      </trkpt>
      <trkpt lat="45.746458936482668" lon="7.170845316722989">
        <ele>2202.4699999999998</ele>
        <time>2022-03-27T08:59:45Z</time>
      </trkpt>
      <trkpt lat="45.74648198671639" lon="7.170764012262225">
        <ele>2204.5599999999999</ele>
        <time>2022-03-27T08:59:58Z</time>
      </trkpt>
      <trkpt lat="45.746505120769143" lon="7.170710451900959">
        <ele>2206.0700000000002</ele>
        <time>2022-03-27T09:00:12Z</time>
      </trkpt>
      <trkpt lat="45.746540911495686" lon="7.170627303421497">
        <ele>2208.5300000000002</ele>
        <time>2022-03-27T09:00:28Z</time>
      </trkpt>
      <trkpt lat="45.746553065255284" lon="7.170567037537694">
        <ele>2210.4099999999999</ele>
        <time>2022-03-27T09:00:41Z</time>
      </trkpt>
      <trkpt lat="45.746549461036921" lon="7.170477267354727">
        <ele>2212.9000000000001</ele>
        <time>2022-03-27T09:00:57Z</time>
      </trkpt>
      <trkpt lat="45.7465626206249" lon="7.170374253764749">
        <ele>2215.4499999999998</ele>
        <time>2022-03-27T09:01:13Z</time>
      </trkpt>
      <trkpt lat="45.746573265641928" lon="7.170280963182449">
        <ele>2218.0300000000002</ele>
        <time>2022-03-27T09:01:29Z</time>
      </trkpt>
      <trkpt lat="45.746579552069306" lon="7.170202424749732">
        <ele>2219.8800000000001</ele>
        <time>2022-03-27T09:01:42Z</time>
      </trkpt>
      <trkpt lat="45.746589694172144" lon="7.170155737549067">
        <ele>2220.98</ele>
        <time>2022-03-27T09:02:00Z</time>
      </trkpt>
      <trkpt lat="45.746585419401526" lon="7.170140985399485">
        <ele>2221.5500000000002</ele>
        <time>2022-03-27T09:02:18Z</time>
      </trkpt>
      <trkpt lat="45.746617186814547" lon="7.170032858848572">
        <ele>2224.0999999999999</ele>
        <time>2022-03-27T09:02:35Z</time>
      </trkpt>
      <trkpt lat="45.746652809903026" lon="7.169915931299329">
        <ele>2227.1300000000001</ele>
        <time>2022-03-27T09:02:54Z</time>
      </trkpt>
      <trkpt lat="45.74668382294476" lon="7.169816186651588">
        <ele>2230.2199999999998</ele>
        <time>2022-03-27T09:03:11Z</time>
      </trkpt>
      <trkpt lat="45.746704107150435" lon="7.16973228380084">
        <ele>2233.46</ele>
        <time>2022-03-27T09:03:28Z</time>
      </trkpt>
      <trkpt lat="45.74671559035778" lon="7.169723901897669">
        <ele>2234.0500000000002</ele>
        <time>2022-03-27T09:03:44Z</time>
      </trkpt>
      <trkpt lat="45.746751129627228" lon="7.169659612700343">
        <ele>2235.8499999999999</ele>
        <time>2022-03-27T09:04:00Z</time>
      </trkpt>
      <trkpt lat="45.746780717745423" lon="7.169551569968462">
        <ele>2238.9899999999998</ele>
        <time>2022-03-27T09:04:18Z</time>
      </trkpt>
      <trkpt lat="45.746786501258612" lon="7.169463895261288">
        <ele>2242.25</ele>
        <time>2022-03-27T09:04:34Z</time>
      </trkpt>
      <trkpt lat="45.746794966980815" lon="7.169363228604198">
        <ele>2244.5100000000002</ele>
        <time>2022-03-27T09:04:48Z</time>
      </trkpt>
      <trkpt lat="45.746828746050596" lon="7.169301873072982">
        <ele>2246.7600000000002</ele>
        <time>2022-03-27T09:05:00Z</time>
      </trkpt>
      <trkpt lat="45.746847270056605" lon="7.169208163395524">
        <ele>2249.2600000000002</ele>
        <time>2022-03-27T09:05:15Z</time>
      </trkpt>
      <trkpt lat="45.746853221207857" lon="7.169143287464976">
        <ele>2251.02</ele>
        <time>2022-03-27T09:05:29Z</time>
      </trkpt>
      <trkpt lat="45.746861603111029" lon="7.169152675196528">
        <ele>2251.1300000000001</ele>
        <time>2022-03-27T09:05:49Z</time>
      </trkpt>
      <trkpt lat="45.746858166530728" lon="7.169159380719066">
        <ele>2250.9200000000001</ele>
        <time>2022-03-27T09:06:07Z</time>
      </trkpt>
      <trkpt lat="45.746860010549426" lon="7.16915468685329">
        <ele>2250.3400000000001</ele>
        <time>2022-03-27T09:06:23Z</time>
      </trkpt>
      <trkpt lat="45.746880965307355" lon="7.169118728488684">
        <ele>2250.8699999999999</ele>
        <time>2022-03-27T09:06:42Z</time>
      </trkpt>
      <trkpt lat="45.746917678043246" lon="7.169014289975166">
        <ele>2253.1599999999999</ele>
        <time>2022-03-27T09:06:55Z</time>
      </trkpt>
      <trkpt lat="45.746960258111358" lon="7.168912030756474">
        <ele>2256.0599999999999</ele>
        <time>2022-03-27T09:07:09Z</time>
      </trkpt>
      <trkpt lat="45.74699898250401" lon="7.168829971924424">
        <ele>2257.8299999999999</ele>
        <time>2022-03-27T09:07:21Z</time>
      </trkpt>
      <trkpt lat="45.747004095464945" lon="7.168781943619251">
        <ele>2260.1300000000001</ele>
        <time>2022-03-27T09:07:35Z</time>
      </trkpt>
      <trkpt lat="45.74700971134007" lon="7.168715475127101">
        <ele>2262.3000000000002</ele>
        <time>2022-03-27T09:07:49Z</time>
      </trkpt>
      <trkpt lat="45.747043155133724" lon="7.168634841218591">
        <ele>2264.6999999999998</ele>
        <time>2022-03-27T09:08:06Z</time>
      </trkpt>
      <trkpt lat="45.747066959738731" lon="7.168557140976191">
        <ele>2267.4699999999998</ele>
        <time>2022-03-27T09:08:21Z</time>
      </trkpt>
      <trkpt lat="45.747132925316691" lon="7.168538365513086">
        <ele>2268.3200000000002</ele>
        <time>2022-03-27T09:08:33Z</time>
      </trkpt>
      <trkpt lat="45.747187491506338" lon="7.168538952246308">
        <ele>2269.6199999999999</ele>
        <time>2022-03-27T09:08:44Z</time>
      </trkpt>
      <trkpt lat="45.747261503711343" lon="7.168592680245638">
        <ele>2272.6100000000001</ele>
        <time>2022-03-27T09:08:59Z</time>
      </trkpt>
      <trkpt lat="45.747337192296982" lon="7.168612126260996">
        <ele>2275.1900000000001</ele>
        <time>2022-03-27T09:09:15Z</time>
      </trkpt>
      <trkpt lat="45.747390501201153" lon="7.168607348576188">
        <ele>2277.3600000000001</ele>
        <time>2022-03-27T09:09:28Z</time>
      </trkpt>
      <trkpt lat="45.747444396838546" lon="7.168580275028944">
        <ele>2279.8099999999999</ele>
        <time>2022-03-27T09:09:42Z</time>
      </trkpt>
      <trkpt lat="45.747441546991467" lon="7.168474663048983">
        <ele>2281.0500000000002</ele>
        <time>2022-03-27T09:09:56Z</time>
      </trkpt>
      <trkpt lat="45.747458226978779" lon="7.168385479599237">
        <ele>2282.6700000000001</ele>
        <time>2022-03-27T09:10:08Z</time>
      </trkpt>
      <trkpt lat="45.747439786791801" lon="7.168265199288726">
        <ele>2283.3800000000001</ele>
        <time>2022-03-27T09:10:20Z</time>
      </trkpt>
      <trkpt lat="45.74745487421751" lon="7.168162101879716">
        <ele>2284.6300000000001</ele>
        <time>2022-03-27T09:10:32Z</time>
      </trkpt>
      <trkpt lat="45.747516816481948" lon="7.168120946735144">
        <ele>2286.3699999999999</ele>
        <time>2022-03-27T09:10:44Z</time>
      </trkpt>
      <trkpt lat="45.747566185891628" lon="7.16811390593648">
        <ele>2288.23</ele>
        <time>2022-03-27T09:10:55Z</time>
      </trkpt>
      <trkpt lat="45.747618824243546" lon="7.168074427172542">
        <ele>2289.8299999999999</ele>
        <time>2022-03-27T09:11:07Z</time>
      </trkpt>
      <trkpt lat="45.747642712667584" lon="7.168083395808935">
        <ele>2290.5999999999999</ele>
        <time>2022-03-27T09:11:20Z</time>
      </trkpt>
      <trkpt lat="45.747696859762073" lon="7.168063530698419">
        <ele>2290.77</ele>
        <time>2022-03-27T09:11:36Z</time>
      </trkpt>
      <trkpt lat="45.747736087068915" lon="7.167990608140826">
        <ele>2291.7600000000002</ele>
        <time>2022-03-27T09:11:48Z</time>
      </trkpt>
      <trkpt lat="45.747755784541368" lon="7.167972419410944">
        <ele>2292.4899999999998</ele>
        <time>2022-03-27T09:11:59Z</time>
      </trkpt>
      <trkpt lat="45.747759556397796" lon="7.167977197095752">
        <ele>2291.4200000000001</ele>
        <time>2022-03-27T09:12:11Z</time>
      </trkpt>
      <trkpt lat="45.747773554176092" lon="7.167965043336153">
        <ele>2291.02</ele>
        <time>2022-03-27T09:12:43Z</time>
      </trkpt>
      <trkpt lat="45.747786713764071" lon="7.167968144640327">
        <ele>2291.0100000000002</ele>
        <time>2022-03-27T09:13:08Z</time>
      </trkpt>
      <trkpt lat="45.747788893058896" lon="7.167965797707439">
        <ele>2292.2600000000002</ele>
        <time>2022-03-27T09:13:38Z</time>
      </trkpt>
      <trkpt lat="45.747790904715657" lon="7.1679678093642">
        <ele>2292.0500000000002</ele>
        <time>2022-03-27T09:13:58Z</time>
      </trkpt>
      <trkpt lat="45.747792748734355" lon="7.16796881519258">
        <ele>2291.8400000000001</ele>
        <time>2022-03-27T09:14:18Z</time>
      </trkpt>
      <trkpt lat="45.747797191143036" lon="7.167968228459358">
        <ele>2292.8299999999999</ele>
        <time>2022-03-27T09:14:37Z</time>
      </trkpt>
      <trkpt lat="45.747782941907644" lon="7.167980466037989">
        <ele>2291.2600000000002</ele>
        <time>2022-03-27T09:15:03Z</time>
      </trkpt>
      <trkpt lat="45.747783277183771" lon="7.167976191267371">
        <ele>2291.1399999999999</ele>
        <time>2022-03-27T09:15:15Z</time>
      </trkpt>
      <trkpt lat="45.74778470210731" lon="7.167983567342162">
        <ele>2291.0300000000002</ele>
        <time>2022-03-27T09:15:51Z</time>
      </trkpt>
      <trkpt lat="45.747805321589112" lon="7.167971665039659">
        <ele>2291.25</ele>
        <time>2022-03-27T09:16:19Z</time>
      </trkpt>
      <trkpt lat="45.747802639380097" lon="7.16796294786036">
        <ele>2291.21</ele>
        <time>2022-03-27T09:16:31Z</time>
      </trkpt>
      <trkpt lat="45.747805153951049" lon="7.167943753302097">
        <ele>2292.3099999999999</ele>
        <time>2022-03-27T09:16:38Z</time>
      </trkpt>
      <trkpt lat="45.747802807018161" lon="7.167944340035319">
        <ele>2292.6399999999999</ele>
        <time>2022-03-27T09:16:55Z</time>
      </trkpt>
      <trkpt lat="45.747803561389446" lon="7.167956242337823">
        <ele>2292.8400000000001</ele>
        <time>2022-03-27T09:17:11Z</time>
      </trkpt>
      <trkpt lat="45.74779643677175" lon="7.167970156297088">
        <ele>2292.8299999999999</ele>
        <time>2022-03-27T09:17:32Z</time>
      </trkpt>
      <trkpt lat="45.747796101495624" lon="7.167961020022631">
        <ele>2292.8600000000001</ele>
        <time>2022-03-27T09:17:51Z</time>
      </trkpt>
      <trkpt lat="45.747794341295958" lon="7.167968396097422">
        <ele>2293.0100000000002</ele>
        <time>2022-03-27T09:18:17Z</time>
      </trkpt>
      <trkpt lat="45.747797274962068" lon="7.167974431067705">
        <ele>2292.5999999999999</ele>
        <time>2022-03-27T09:18:34Z</time>
      </trkpt>
      <trkpt lat="45.747772296890616" lon="7.167980885133147">
        <ele>2292.5500000000002</ele>
        <time>2022-03-27T09:19:06Z</time>
      </trkpt>
      <trkpt lat="45.747761484235525" lon="7.167984740808606">
        <ele>2292.8000000000002</ele>
        <time>2022-03-27T09:19:26Z</time>
      </trkpt>
      <trkpt lat="45.74775829911232" lon="7.167987674474716">
        <ele>2293.3699999999999</ele>
        <time>2022-03-27T09:19:54Z</time>
      </trkpt>
      <trkpt lat="45.747777996584773" lon="7.167963366955519">
        <ele>2294.3699999999999</ele>
        <time>2022-03-27T09:20:06Z</time>
      </trkpt>
      <trkpt lat="45.747869107872248" lon="7.167896563187242">
        <ele>2296.1599999999999</ele>
        <time>2022-03-27T09:20:22Z</time>
      </trkpt>
      <trkpt lat="45.747956028208137" lon="7.167832525447011">
        <ele>2298.2399999999998</ele>
        <time>2022-03-27T09:20:39Z</time>
      </trkpt>
      <trkpt lat="45.748004894703627" lon="7.167818108573556">
        <ele>2299.6199999999999</ele>
        <time>2022-03-27T09:20:51Z</time>
      </trkpt>
      <trkpt lat="45.748045546934009" lon="7.167800758033991">
        <ele>2301.5700000000002</ele>
        <time>2022-03-27T09:21:03Z</time>
      </trkpt>
      <trkpt lat="45.748081924393773" lon="7.167757088318467">
        <ele>2303.1399999999999</ele>
        <time>2022-03-27T09:21:16Z</time>
      </trkpt>
      <trkpt lat="45.748111009597778" lon="7.167773181572557">
        <ele>2304.9699999999998</ele>
        <time>2022-03-27T09:21:27Z</time>
      </trkpt>
      <trkpt lat="45.748154427856207" lon="7.167771253734827">
        <ele>2306.6900000000001</ele>
        <time>2022-03-27T09:21:40Z</time>
      </trkpt>
      <trkpt lat="45.748173454776406" lon="7.167765386402607">
        <ele>2307.8499999999999</ele>
        <time>2022-03-27T09:21:52Z</time>
      </trkpt>
      <trkpt lat="45.748176639899611" lon="7.167745688930154">
        <ele>2308.7600000000002</ele>
        <time>2022-03-27T09:22:05Z</time>
      </trkpt>
      <trkpt lat="45.748217711225152" lon="7.167722219601274">
        <ele>2310.46</ele>
        <time>2022-03-27T09:22:17Z</time>
      </trkpt>
      <trkpt lat="45.748260375112295" lon="7.167697744444013">
        <ele>2312.75</ele>
        <time>2022-03-27T09:22:28Z</time>
      </trkpt>
      <trkpt lat="45.748311001807451" lon="7.167665893211961">
        <ele>2314.73</ele>
        <time>2022-03-27T09:22:42Z</time>
      </trkpt>
      <trkpt lat="45.748342853039503" lon="7.167659439146519">
        <ele>2316.3400000000001</ele>
        <time>2022-03-27T09:22:54Z</time>
      </trkpt>
      <trkpt lat="45.748369675129652" lon="7.167610488831997">
        <ele>2318.6599999999999</ele>
        <time>2022-03-27T09:23:07Z</time>
      </trkpt>
      <trkpt lat="45.748386522755027" lon="7.167542343959212">
        <ele>2320.8699999999999</ele>
        <time>2022-03-27T09:23:21Z</time>
      </trkpt>
      <trkpt lat="45.748392306268215" lon="7.167543517425656">
        <ele>2322.0799999999999</ele>
        <time>2022-03-27T09:23:36Z</time>
      </trkpt>
      <trkpt lat="45.748421056196094" lon="7.167477468028665">
        <ele>2324.1700000000001</ele>
        <time>2022-03-27T09:23:50Z</time>
      </trkpt>
      <trkpt lat="45.748461373150349" lon="7.167442599311471">
        <ele>2326.04</ele>
        <time>2022-03-27T09:24:03Z</time>
      </trkpt>
      <trkpt lat="45.748498253524303" lon="7.167445784434676">
        <ele>2327.5700000000002</ele>
        <time>2022-03-27T09:24:15Z</time>
      </trkpt>
      <trkpt lat="45.748513424769044" lon="7.167439917102456">
        <ele>2328.23</ele>
        <time>2022-03-27T09:24:28Z</time>
      </trkpt>
      <trkpt lat="45.748534798622131" lon="7.167428182438016">
        <ele>2329.1900000000001</ele>
        <time>2022-03-27T09:24:43Z</time>
      </trkpt>
      <trkpt lat="45.748570170253515" lon="7.167409239336848">
        <ele>2331.1399999999999</ele>
        <time>2022-03-27T09:24:58Z</time>
      </trkpt>
      <trkpt lat="45.748586095869541" lon="7.167404461652041">
        <ele>2331.02</ele>
        <time>2022-03-27T09:25:20Z</time>
      </trkpt>
      <trkpt lat="45.748603530228138" lon="7.167373113334179">
        <ele>2332.1999999999998</ele>
        <time>2022-03-27T09:25:34Z</time>
      </trkpt>
      <trkpt lat="45.748609062284231" lon="7.167339669540525">
        <ele>2333.8400000000001</ele>
        <time>2022-03-27T09:25:46Z</time>
      </trkpt>
      <trkpt lat="45.748639656230807" lon="7.167342770844698">
        <ele>2335.1999999999998</ele>
        <time>2022-03-27T09:26:06Z</time>
      </trkpt>
      <trkpt lat="45.748667819425464" lon="7.167350649833679">
        <ele>2335.8200000000002</ele>
        <time>2022-03-27T09:26:20Z</time>
      </trkpt>
      <trkpt lat="45.748718278482556" lon="7.167395409196615">
        <ele>2338.1300000000001</ele>
        <time>2022-03-27T09:26:35Z</time>
      </trkpt>
      <trkpt lat="45.748757254332304" lon="7.167425081133843">
        <ele>2340.0300000000002</ele>
        <time>2022-03-27T09:26:49Z</time>
      </trkpt>
      <trkpt lat="45.748789943754673" lon="7.167432121932507">
        <ele>2341.8099999999999</ele>
        <time>2022-03-27T09:27:04Z</time>
      </trkpt>
      <trkpt lat="45.748833445832133" lon="7.167430194094777">
        <ele>2344.6700000000001</ele>
        <time>2022-03-27T09:27:21Z</time>
      </trkpt>
      <trkpt lat="45.748885832726955" lon="7.167459782212973">
        <ele>2346.2600000000002</ele>
        <time>2022-03-27T09:27:34Z</time>
      </trkpt>
      <trkpt lat="45.748934699222445" lon="7.167464392259717">
        <ele>2347.6999999999998</ele>
        <time>2022-03-27T09:27:49Z</time>
      </trkpt>
      <trkpt lat="45.748923383653164" lon="7.167422566562891">
        <ele>2350.04</ele>
        <time>2022-03-27T09:28:02Z</time>
      </trkpt>
      <trkpt lat="45.748927993699908" lon="7.167420135810971">
        <ele>2350.54</ele>
        <time>2022-03-27T09:28:17Z</time>
      </trkpt>
      <trkpt lat="45.748981637880206" lon="7.167404713109136">
        <ele>2351.1100000000001</ele>
        <time>2022-03-27T09:28:31Z</time>
      </trkpt>
      <trkpt lat="45.749078700318933" lon="7.16738685965538">
        <ele>2352.0999999999999</ele>
        <time>2022-03-27T09:28:44Z</time>
      </trkpt>
      <trkpt lat="45.749169811606407" lon="7.16735408641398">
        <ele>2354.5100000000002</ele>
        <time>2022-03-27T09:29:01Z</time>
      </trkpt>
      <trkpt lat="45.749246422201395" lon="7.167329527437687">
        <ele>2357.1199999999999</ele>
        <time>2022-03-27T09:29:17Z</time>
      </trkpt>
      <trkpt lat="45.749300485476851" lon="7.167305136099458">
        <ele>2359.3600000000001</ele>
        <time>2022-03-27T09:29:31Z</time>
      </trkpt>
      <trkpt lat="45.749363685026765" lon="7.167259873822331">
        <ele>2361.5</ele>
        <time>2022-03-27T09:29:48Z</time>
      </trkpt>
      <trkpt lat="45.749394278973341" lon="7.16724026016891">
        <ele>2362.7199999999998</ele>
        <time>2022-03-27T09:30:04Z</time>
      </trkpt>
      <trkpt lat="45.749394111335278" lon="7.167241098359227">
        <ele>2363</ele>
        <time>2022-03-27T09:30:05Z</time>
      </trkpt>
      <trkpt lat="45.749399308115244" lon="7.167240427806974">
        <ele>2362.6999999999998</ele>
        <time>2022-03-27T09:30:24Z</time>
      </trkpt>
      <trkpt lat="45.749429650604725" lon="7.167252833023667">
        <ele>2362.6300000000001</ele>
        <time>2022-03-27T09:30:36Z</time>
      </trkpt>
      <trkpt lat="45.74950709939003" lon="7.167215282097459">
        <ele>2364.5300000000002</ele>
        <time>2022-03-27T09:30:49Z</time>
      </trkpt>
      <trkpt lat="45.749568790197372" lon="7.167140264064074">
        <ele>2366.5500000000002</ele>
        <time>2022-03-27T09:31:05Z</time>
      </trkpt>
      <trkpt lat="45.749636264517903" lon="7.167087541893125">
        <ele>2369.6199999999999</ele>
        <time>2022-03-27T09:31:21Z</time>
      </trkpt>
      <trkpt lat="45.749689573422074" lon="7.167060133069754">
        <ele>2371.6500000000001</ele>
        <time>2022-03-27T09:31:34Z</time>
      </trkpt>
      <trkpt lat="45.749720837920904" lon="7.167027108371258">
        <ele>2373.48</ele>
        <time>2022-03-27T09:31:47Z</time>
      </trkpt>
      <trkpt lat="45.74971916154027" lon="7.167030042037368">
        <ele>2373.0700000000002</ele>
        <time>2022-03-27T09:32:06Z</time>
      </trkpt>
      <trkpt lat="45.749758221209049" lon="7.167010679841042">
        <ele>2373.9000000000001</ele>
        <time>2022-03-27T09:32:21Z</time>
      </trkpt>
      <trkpt lat="45.749823348596692" lon="7.166956951841712">
        <ele>2376.6999999999998</ele>
        <time>2022-03-27T09:32:36Z</time>
      </trkpt>
      <trkpt lat="45.749867018312216" lon="7.166881682351232">
        <ele>2379.7399999999998</ele>
        <time>2022-03-27T09:32:52Z</time>
      </trkpt>
      <trkpt lat="45.749909179285169" lon="7.166895344853401">
        <ele>2382.23</ele>
        <time>2022-03-27T09:33:04Z</time>
      </trkpt>
      <trkpt lat="45.749973300844431" lon="7.166910683736205">
        <ele>2385</ele>
        <time>2022-03-27T09:33:18Z</time>
      </trkpt>
      <trkpt lat="45.750036081299186" lon="7.166934153065085">
        <ele>2386.96</ele>
        <time>2022-03-27T09:33:34Z</time>
      </trkpt>
      <trkpt lat="45.750021496787667" lon="7.166952677071095">
        <ele>2386.2399999999998</ele>
        <time>2022-03-27T09:33:45Z</time>
      </trkpt>
      <trkpt lat="45.750019736588001" lon="7.166963657364249">
        <ele>2386.77</ele>
        <time>2022-03-27T09:33:59Z</time>
      </trkpt>
      <trkpt lat="45.750055778771639" lon="7.166962819173932">
        <ele>2387.27</ele>
        <time>2022-03-27T09:34:18Z</time>
      </trkpt>
      <trkpt lat="45.750144459307194" lon="7.16695292852819">
        <ele>2389.48</ele>
        <time>2022-03-27T09:34:31Z</time>
      </trkpt>
      <trkpt lat="45.750220315530896" lon="7.16692803427577">
        <ele>2390.4899999999998</ele>
        <time>2022-03-27T09:34:43Z</time>
      </trkpt>
      <trkpt lat="45.750243198126554" lon="7.166842455044389">
        <ele>2392.3899999999999</ele>
        <time>2022-03-27T09:34:56Z</time>
      </trkpt>
      <trkpt lat="45.750297764316201" lon="7.166846813634038">
        <ele>2393.1199999999999</ele>
        <time>2022-03-27T09:35:10Z</time>
      </trkpt>
      <trkpt lat="45.750387785956264" lon="7.166835414245725">
        <ele>2396.0900000000001</ele>
        <time>2022-03-27T09:35:23Z</time>
      </trkpt>
      <trkpt lat="45.750423409044743" lon="7.166844299063087">
        <ele>2397.3400000000001</ele>
        <time>2022-03-27T09:35:34Z</time>
      </trkpt>
      <trkpt lat="45.750427935272455" lon="7.166841281577945">
        <ele>2396.7600000000002</ele>
        <time>2022-03-27T09:35:43Z</time>
      </trkpt>
      <trkpt lat="45.750433718785644" lon="7.166838934645057">
        <ele>2396.6500000000001</ele>
        <time>2022-03-27T09:36:32Z</time>
      </trkpt>
      <trkpt lat="45.750436317175627" lon="7.166825691238046">
        <ele>2396.8099999999999</ele>
        <time>2022-03-27T09:37:25Z</time>
      </trkpt>
      <trkpt lat="45.750429276376963" lon="7.166838264092803">
        <ele>2397.7600000000002</ele>
        <time>2022-03-27T09:38:04Z</time>
      </trkpt>
      <trkpt lat="45.750420391559601" lon="7.166833151131868">
        <ele>2396.6799999999998</ele>
        <time>2022-03-27T09:38:13Z</time>
      </trkpt>
      <trkpt lat="45.750414188951254" lon="7.166839689016342">
        <ele>2397.7600000000002</ele>
        <time>2022-03-27T09:38:28Z</time>
      </trkpt>
      <trkpt lat="45.750398682430387" lon="7.166785541921854">
        <ele>2398.3699999999999</ele>
        <time>2022-03-27T09:38:37Z</time>
      </trkpt>
      <trkpt lat="45.750398430973291" lon="7.166705243289471">
        <ele>2398.5300000000002</ele>
        <time>2022-03-27T09:38:47Z</time>
      </trkpt>
      <trkpt lat="45.750381415709853" lon="7.166661322116852">
        <ele>2398.04</ele>
        <time>2022-03-27T09:38:51Z</time>
      </trkpt>
      <trkpt lat="45.750320060178638" lon="7.166535425931215">
        <ele>2397.4200000000001</ele>
        <time>2022-03-27T09:39:04Z</time>
      </trkpt>
      <trkpt lat="45.75027228333056" lon="7.166433082893491">
        <ele>2399.1399999999999</ele>
        <time>2022-03-27T09:39:20Z</time>
      </trkpt>
      <trkpt lat="45.750234145671129" lon="7.166303750127554">
        <ele>2400.5999999999999</ele>
        <time>2022-03-27T09:39:36Z</time>
      </trkpt>
      <trkpt lat="45.750225847586989" lon="7.166183637455106">
        <ele>2401.71</ele>
        <time>2022-03-27T09:39:51Z</time>
      </trkpt>
      <trkpt lat="45.750231379643083" lon="7.166186571121216">
        <ele>2401.9400000000001</ele>
        <time>2022-03-27T09:40:08Z</time>
      </trkpt>
      <trkpt lat="45.75023322366178" lon="7.166212387382984">
        <ele>2401.52</ele>
        <time>2022-03-27T09:40:29Z</time>
      </trkpt>
      <trkpt lat="45.750271361321211" lon="7.166178608313203">
        <ele>2403.8200000000002</ele>
        <time>2022-03-27T09:40:42Z</time>
      </trkpt>
      <trkpt lat="45.750308660790324" lon="7.166087497025728">
        <ele>2406.6399999999999</ele>
        <time>2022-03-27T09:40:56Z</time>
      </trkpt>
      <trkpt lat="45.750359538942575" lon="7.166114989668131">
        <ele>2408.8800000000001</ele>
        <time>2022-03-27T09:41:07Z</time>
      </trkpt>
      <trkpt lat="45.750421229749918" lon="7.166083641350269">
        <ele>2411.3400000000001</ele>
        <time>2022-03-27T09:41:23Z</time>
      </trkpt>
      <trkpt lat="45.750451488420367" lon="7.166092777624726">
        <ele>2412.3200000000002</ele>
        <time>2022-03-27T09:41:37Z</time>
      </trkpt>
      <trkpt lat="45.750466743484139" lon="7.166094286367297">
        <ele>2412.71</ele>
        <time>2022-03-27T09:41:56Z</time>
      </trkpt>
      <trkpt lat="45.750550981611013" lon="7.166106523945928">
        <ele>2415.3600000000001</ele>
        <time>2022-03-27T09:42:10Z</time>
      </trkpt>
      <trkpt lat="45.750610493123531" lon="7.166033182293177">
        <ele>2418.5900000000001</ele>
        <time>2022-03-27T09:42:25Z</time>
      </trkpt>
      <trkpt lat="45.750619797036052" lon="7.166006108745933">
        <ele>2419.3000000000002</ele>
        <time>2022-03-27T09:42:29Z</time>
      </trkpt>
      <trkpt lat="45.750683080404997" lon="7.165908711031079">
        <ele>2421.1599999999999</ele>
        <time>2022-03-27T09:42:44Z</time>
      </trkpt>
      <trkpt lat="45.750718535855412" lon="7.165908627212048">
        <ele>2422.4499999999998</ele>
        <time>2022-03-27T09:42:56Z</time>
      </trkpt>
      <trkpt lat="45.750757930800319" lon="7.165861520916224">
        <ele>2424.6900000000001</ele>
        <time>2022-03-27T09:43:11Z</time>
      </trkpt>
      <trkpt lat="45.750808473676443" lon="7.165809804573655">
        <ele>2426.8099999999999</ele>
        <time>2022-03-27T09:43:24Z</time>
      </trkpt>
      <trkpt lat="45.750834373757243" lon="7.165768230333924">
        <ele>2427.3400000000001</ele>
        <time>2022-03-27T09:43:36Z</time>
      </trkpt>
      <trkpt lat="45.750841666013002" lon="7.165684243664146">
        <ele>2429.29</ele>
        <time>2022-03-27T09:43:51Z</time>
      </trkpt>
      <trkpt lat="45.750815598294139" lon="7.165610399097204">
        <ele>2430.5799999999999</ele>
        <time>2022-03-27T09:44:05Z</time>
      </trkpt>
      <trkpt lat="45.750778634101152" lon="7.165553569793701">
        <ele>2431.79</ele>
        <time>2022-03-27T09:44:16Z</time>
      </trkpt>
      <trkpt lat="45.750724738463759" lon="7.165484419092536">
        <ele>2433.9400000000001</ele>
        <time>2022-03-27T09:44:31Z</time>
      </trkpt>
      <trkpt lat="45.750684253871441" lon="7.165427589789033">
        <ele>2434.6300000000001</ele>
        <time>2022-03-27T09:44:45Z</time>
      </trkpt>
      <trkpt lat="45.750634549185634" lon="7.165361791849136">
        <ele>2436.0700000000002</ele>
        <time>2022-03-27T09:44:58Z</time>
      </trkpt>
      <trkpt lat="45.750599512830377" lon="7.16530479490757">
        <ele>2437.4499999999998</ele>
        <time>2022-03-27T09:45:11Z</time>
      </trkpt>
      <trkpt lat="45.75055718421936" lon="7.165233297273517">
        <ele>2439.0999999999999</ele>
        <time>2022-03-27T09:45:26Z</time>
      </trkpt>
      <trkpt lat="45.750562967732549" lon="7.165230447426438">
        <ele>2438.1399999999999</ele>
        <time>2022-03-27T09:45:45Z</time>
      </trkpt>
      <trkpt lat="45.750537486746907" lon="7.165187280625105">
        <ele>2439.4099999999999</ele>
        <time>2022-03-27T09:46:00Z</time>
      </trkpt>
      <trkpt lat="45.750494068488479" lon="7.165134390816093">
        <ele>2440.6399999999999</ele>
        <time>2022-03-27T09:46:09Z</time>
      </trkpt>
      <trkpt lat="45.750427516177297" lon="7.165063815191388">
        <ele>2441.3000000000002</ele>
        <time>2022-03-27T09:46:19Z</time>
      </trkpt>
      <trkpt lat="45.750386444851756" lon="7.164993910118938">
        <ele>2441.6900000000001</ele>
        <time>2022-03-27T09:46:26Z</time>
      </trkpt>
      <trkpt lat="45.750295836478472" lon="7.164855441078544">
        <ele>2440.8200000000002</ele>
        <time>2022-03-27T09:46:39Z</time>
      </trkpt>
      <trkpt lat="45.750258704647422" lon="7.164829038083553">
        <ele>2439.5999999999999</ele>
        <time>2022-03-27T09:46:43Z</time>
      </trkpt>
      <trkpt lat="45.75022048316896" lon="7.164764413610101">
        <ele>2440.48</ele>
        <time>2022-03-27T09:46:49Z</time>
      </trkpt>
      <trkpt lat="45.750144710764289" lon="7.164647821336985">
        <ele>2439.8400000000001</ele>
        <time>2022-03-27T09:47:02Z</time>
      </trkpt>
      <trkpt lat="45.750091737136245" lon="7.164566265419126">
        <ele>2437.7600000000002</ele>
        <time>2022-03-27T09:47:16Z</time>
      </trkpt>
      <trkpt lat="45.750016216188669" lon="7.164476662874222">
        <ele>2436.9499999999998</ele>
        <time>2022-03-27T09:47:28Z</time>
      </trkpt>
      <trkpt lat="45.750024765729904" lon="7.164406087249517">
        <ele>2436.5999999999999</ele>
        <time>2022-03-27T09:47:40Z</time>
      </trkpt>
      <trkpt lat="45.750016467645764" lon="7.164401561021805">
        <ele>2437.1199999999999</ele>
        <time>2022-03-27T09:48:05Z</time>
      </trkpt>
      <trkpt lat="45.750028118491173" lon="7.164400219917297">
        <ele>2437.21</ele>
        <time>2022-03-27T09:48:30Z</time>
      </trkpt>
      <trkpt lat="45.750024598091841" lon="7.164401058107615">
        <ele>2437.2600000000002</ele>
        <time>2022-03-27T09:48:51Z</time>
      </trkpt>
      <trkpt lat="45.749999284744263" lon="7.164408015087247">
        <ele>2436.9200000000001</ele>
        <time>2022-03-27T09:49:04Z</time>
      </trkpt>
      <trkpt lat="45.749992495402694" lon="7.164404327049851">
        <ele>2437.6900000000001</ele>
        <time>2022-03-27T09:49:19Z</time>
      </trkpt>
      <trkpt lat="45.75000305660069" lon="7.164401980116963">
        <ele>2437.5</ele>
        <time>2022-03-27T09:49:45Z</time>
      </trkpt>
      <trkpt lat="45.750009762123227" lon="7.164394604042172">
        <ele>2433.8899999999999</ele>
        <time>2022-03-27T09:50:15Z</time>
      </trkpt>
      <trkpt lat="45.750008169561625" lon="7.164394771680236">
        <ele>2437.8299999999999</ele>
        <time>2022-03-27T09:50:16Z</time>
      </trkpt>
      <trkpt lat="45.750004900619388" lon="7.16439301148057">
        <ele>2436.8099999999999</ele>
        <time>2022-03-27T09:50:21Z</time>
      </trkpt>
      <trkpt lat="45.750013533979654" lon="7.164389910176396">
        <ele>2437.3099999999999</ele>
        <time>2022-03-27T09:50:40Z</time>
      </trkpt>
      <trkpt lat="45.75000892393291" lon="7.164387395605445">
        <ele>2436.6999999999998</ele>
        <time>2022-03-27T09:50:59Z</time>
      </trkpt>
      <trkpt lat="45.750008504837751" lon="7.164387395605445">
        <ele>2435.8499999999999</ele>
        <time>2022-03-27T09:51:14Z</time>
      </trkpt>
      <trkpt lat="45.749992998316884" lon="7.164404327049851">
        <ele>2436.8400000000001</ele>
        <time>2022-03-27T09:51:42Z</time>
      </trkpt>
      <trkpt lat="45.750008672475815" lon="7.164405668154359">
        <ele>2436.6100000000001</ele>
        <time>2022-03-27T09:51:53Z</time>
      </trkpt>
      <trkpt lat="45.750006912276149" lon="7.164393430575728">
        <ele>2437.4699999999998</ele>
        <time>2022-03-27T09:52:08Z</time>
      </trkpt>
      <trkpt lat="45.749995345249772" lon="7.164408434182406">
        <ele>2437.6199999999999</ele>
        <time>2022-03-27T09:52:29Z</time>
      </trkpt>
      <trkpt lat="45.749975480139256" lon="7.164425868541002">
        <ele>2436.6500000000001</ele>
        <time>2022-03-27T09:52:40Z</time>
      </trkpt>
      <trkpt lat="45.749926865100861" lon="7.164337523281574">
        <ele>2434.77</ele>
        <time>2022-03-27T09:52:52Z</time>
      </trkpt>
      <trkpt lat="45.749927703291178" lon="7.164323693141341">
        <ele>2434.1999999999998</ele>
        <time>2022-03-27T09:52:53Z</time>
      </trkpt>
      <trkpt lat="45.749848829582334" lon="7.164135435596108">
        <ele>2431.5599999999999</ele>
        <time>2022-03-27T09:53:08Z</time>
      </trkpt>
      <trkpt lat="45.749798119068146" lon="7.164086485281587">
        <ele>2430.7600000000002</ele>
        <time>2022-03-27T09:53:15Z</time>
      </trkpt>
      <trkpt lat="45.749697787687182" lon="7.164083048701286">
        <ele>2429.5500000000002</ele>
        <time>2022-03-27T09:53:24Z</time>
      </trkpt>
      <trkpt lat="45.749538782984018" lon="7.163923624902964">
        <ele>2426.5500000000002</ele>
        <time>2022-03-27T09:53:41Z</time>
      </trkpt>
      <trkpt lat="45.749414144083858" lon="7.163780629634857">
        <ele>2425.0100000000002</ele>
        <time>2022-03-27T09:53:55Z</time>
      </trkpt>
      <trkpt lat="45.749291265383363" lon="7.163661271333695">
        <ele>2424.8400000000001</ele>
        <time>2022-03-27T09:54:11Z</time>
      </trkpt>
      <trkpt lat="45.749254385009408" lon="7.163636712357402">
        <ele>2423.6100000000001</ele>
        <time>2022-03-27T09:54:15Z</time>
      </trkpt>
      <trkpt lat="45.749180372804403" lon="7.163562197238207">
        <ele>2422.1199999999999</ele>
        <time>2022-03-27T09:54:23Z</time>
      </trkpt>
      <trkpt lat="45.749152209609747" lon="7.163492208346725">
        <ele>2422.4099999999999</ele>
        <time>2022-03-27T09:54:28Z</time>
      </trkpt>
      <trkpt lat="45.749178864061832" lon="7.163272518664599">
        <ele>2423.8899999999999</ele>
        <time>2022-03-27T09:54:44Z</time>
      </trkpt>
      <trkpt lat="45.749242147430778" lon="7.163112256675959">
        <ele>2422.9099999999999</ele>
        <time>2022-03-27T09:54:58Z</time>
      </trkpt>
      <trkpt lat="45.749233597889543" lon="7.16307663358748">
        <ele>2421.5799999999999</ele>
        <time>2022-03-27T09:55:01Z</time>
      </trkpt>
      <trkpt lat="45.74916310608387" lon="7.162975715473294">
        <ele>2422.52</ele>
        <time>2022-03-27T09:55:17Z</time>
      </trkpt>
      <trkpt lat="45.749163022264838" lon="7.16297747567296">
        <ele>2421.5300000000002</ele>
        <time>2022-03-27T09:55:30Z</time>
      </trkpt>
      <trkpt lat="45.749143324792385" lon="7.162932129576802">
        <ele>2423.71</ele>
        <time>2022-03-27T09:55:44Z</time>
      </trkpt>
      <trkpt lat="45.749094877392054" lon="7.162770191207528">
        <ele>2424.1300000000001</ele>
        <time>2022-03-27T09:56:00Z</time>
      </trkpt>
      <trkpt lat="45.749065205454826" lon="7.162656616419554">
        <ele>2426.54</ele>
        <time>2022-03-27T09:56:16Z</time>
      </trkpt>
      <trkpt lat="45.749058332294226" lon="7.162617556750774">
        <ele>2426.6999999999998</ele>
        <time>2022-03-27T09:56:20Z</time>
      </trkpt>
      <trkpt lat="45.749016171321273" lon="7.16248394921422">
        <ele>2429.4299999999998</ele>
        <time>2022-03-27T09:56:36Z</time>
      </trkpt>
      <trkpt lat="45.749047352001071" lon="7.162380935624242">
        <ele>2431.4699999999998</ele>
        <time>2022-03-27T09:56:49Z</time>
      </trkpt>
      <trkpt lat="45.749100325629115" lon="7.162289656698704">
        <ele>2433.5700000000002</ele>
        <time>2022-03-27T09:57:06Z</time>
      </trkpt>
      <trkpt lat="45.749137122184038" lon="7.162215895950794">
        <ele>2436.3699999999999</ele>
        <time>2022-03-27T09:57:23Z</time>
      </trkpt>
      <trkpt lat="45.749172577634454" lon="7.162154372781515">
        <ele>2438.6900000000001</ele>
        <time>2022-03-27T09:57:40Z</time>
      </trkpt>
      <trkpt lat="45.749193532392383" lon="7.162090921774507">
        <ele>2440.8499999999999</ele>
        <time>2022-03-27T09:57:53Z</time>
      </trkpt>
      <trkpt lat="45.74922907166183" lon="7.162051862105727">
        <ele>2443.0799999999999</ele>
        <time>2022-03-27T09:58:09Z</time>
      </trkpt>
      <trkpt lat="45.749243153259158" lon="7.161996373906732">
        <ele>2445.27</ele>
        <time>2022-03-27T09:58:23Z</time>
      </trkpt>
      <trkpt lat="45.749273411929607" lon="7.161978017538786">
        <ele>2446.5100000000002</ele>
        <time>2022-03-27T09:58:39Z</time>
      </trkpt>
      <trkpt lat="45.749311046674848" lon="7.161949519068003">
        <ele>2448.5</ele>
        <time>2022-03-27T09:58:52Z</time>
      </trkpt>
      <trkpt lat="45.749321943148971" lon="7.161938454955816">
        <ele>2449.1500000000001</ele>
        <time>2022-03-27T09:59:09Z</time>
      </trkpt>
      <trkpt lat="45.749374497681856" lon="7.161898640915752">
        <ele>2451.1100000000001</ele>
        <time>2022-03-27T09:59:22Z</time>
      </trkpt>
      <trkpt lat="45.749449599534273" lon="7.161878859624267">
        <ele>2453.5100000000002</ele>
        <time>2022-03-27T09:59:36Z</time>
      </trkpt>
      <trkpt lat="45.749509781599045" lon="7.161839967593551">
        <ele>2456.52</ele>
        <time>2022-03-27T09:59:50Z</time>
      </trkpt>
      <trkpt lat="45.749577088281512" lon="7.161816665902734">
        <ele>2459.7199999999998</ele>
        <time>2022-03-27T10:00:05Z</time>
      </trkpt>
      <trkpt lat="45.749626541510224" lon="7.161788083612919">
        <ele>2461.5700000000002</ele>
        <time>2022-03-27T10:00:17Z</time>
      </trkpt>
      <trkpt lat="45.749668702483177" lon="7.161712730303407">
        <ele>2462.4499999999998</ele>
        <time>2022-03-27T10:00:32Z</time>
      </trkpt>
      <trkpt lat="45.749734500423074" lon="7.161637376993895">
        <ele>2464.4099999999999</ele>
        <time>2022-03-27T10:00:48Z</time>
      </trkpt>
      <trkpt lat="45.749780684709549" lon="7.1616405621171">
        <ele>2466.1700000000001</ele>
        <time>2022-03-27T10:01:01Z</time>
      </trkpt>
      <trkpt lat="45.749817062169313" lon="7.161572836339474">
        <ele>2469.0799999999999</ele>
        <time>2022-03-27T10:01:15Z</time>
      </trkpt>
      <trkpt lat="45.749882021918893" lon="7.161558084189892">
        <ele>2472.1199999999999</ele>
        <time>2022-03-27T10:01:30Z</time>
      </trkpt>
      <trkpt lat="45.749968439340591" lon="7.161563448607922">
        <ele>2474.21</ele>
        <time>2022-03-27T10:01:43Z</time>
      </trkpt>
      <trkpt lat="45.750043960288167" lon="7.161609381437302">
        <ele>2476.6999999999998</ele>
        <time>2022-03-27T10:01:59Z</time>
      </trkpt>
      <trkpt lat="45.750140771269798" lon="7.161633102223277">
        <ele>2478.5599999999999</ele>
        <time>2022-03-27T10:02:14Z</time>
      </trkpt>
      <trkpt lat="45.750205311924219" lon="7.161686243489385">
        <ele>2480.25</ele>
        <time>2022-03-27T10:02:29Z</time>
      </trkpt>
      <trkpt lat="45.750267086550593" lon="7.161733349785209">
        <ele>2481.5900000000001</ele>
        <time>2022-03-27T10:02:41Z</time>
      </trkpt>
      <trkpt lat="45.750333052128553" lon="7.161767212674022">
        <ele>2482.8800000000001</ele>
        <time>2022-03-27T10:02:54Z</time>
      </trkpt>
      <trkpt lat="45.750342775136232" lon="7.161760171875358">
        <ele>2482.4200000000001</ele>
        <time>2022-03-27T10:03:08Z</time>
      </trkpt>
      <trkpt lat="45.750341769307852" lon="7.161767380312085">
        <ele>2482.4200000000001</ele>
        <time>2022-03-27T10:03:24Z</time>
      </trkpt>
      <trkpt lat="45.750372698530555" lon="7.161759166046977">
        <ele>2482.25</ele>
        <time>2022-03-27T10:03:49Z</time>
      </trkpt>
      <trkpt lat="45.75037294998765" lon="7.161755226552486">
        <ele>2482.6199999999999</ele>
        <time>2022-03-27T10:04:05Z</time>
      </trkpt>
      <trkpt lat="45.750377392396331" lon="7.1617734991014">
        <ele>2482.6700000000001</ele>
        <time>2022-03-27T10:04:24Z</time>
      </trkpt>
      <trkpt lat="45.750387953594327" lon="7.161707449704409">
        <ele>2484.1799999999998</ele>
        <time>2022-03-27T10:04:39Z</time>
      </trkpt>
      <trkpt lat="45.750414440408349" lon="7.161613823845983">
        <ele>2487.0300000000002</ele>
        <time>2022-03-27T10:04:57Z</time>
      </trkpt>
      <trkpt lat="45.750436903908849" lon="7.161543164402247">
        <ele>2489.3400000000001</ele>
        <time>2022-03-27T10:05:11Z</time>
      </trkpt>
      <trkpt lat="45.750447129830718" lon="7.161464961245656">
        <ele>2491.46</ele>
        <time>2022-03-27T10:05:23Z</time>
      </trkpt>
      <trkpt lat="45.750497421249747" lon="7.161395139992237">
        <ele>2493.6300000000001</ele>
        <time>2022-03-27T10:05:37Z</time>
      </trkpt>
      <trkpt lat="45.750496163964272" lon="7.16139430180192">
        <ele>2492.8699999999999</ele>
        <time>2022-03-27T10:05:51Z</time>
      </trkpt>
      <trkpt lat="45.750497505068779" lon="7.16138256713748">
        <ele>2494.5799999999999</ele>
        <time>2022-03-27T10:05:56Z</time>
      </trkpt>
      <trkpt lat="45.750512173399329" lon="7.161269746720791">
        <ele>2495.54</ele>
        <time>2022-03-27T10:06:12Z</time>
      </trkpt>
      <trkpt lat="45.75052734464407" lon="7.161192465573549">
        <ele>2497.04</ele>
        <time>2022-03-27T10:06:26Z</time>
      </trkpt>
      <trkpt lat="45.750514855608344" lon="7.161095654591918">
        <ele>2498.5300000000002</ele>
        <time>2022-03-27T10:06:40Z</time>
      </trkpt>
      <trkpt lat="45.750535139814019" lon="7.160996329039335">
        <ele>2500.8099999999999</ele>
        <time>2022-03-27T10:06:56Z</time>
      </trkpt>
      <trkpt lat="45.750564057379961" lon="7.160912174731493">
        <ele>2503.9200000000001</ele>
        <time>2022-03-27T10:07:10Z</time>
      </trkpt>
      <trkpt lat="45.750574870035052" lon="7.160856602713466">
        <ele>2505.2800000000002</ele>
        <time>2022-03-27T10:07:24Z</time>
      </trkpt>
      <trkpt lat="45.750591885298491" lon="7.160763395950198">
        <ele>2507.2600000000002</ele>
        <time>2022-03-27T10:07:38Z</time>
      </trkpt>
      <trkpt lat="45.750599931925535" lon="7.16069701127708">
        <ele>2508.8499999999999</ele>
        <time>2022-03-27T10:07:51Z</time>
      </trkpt>
      <trkpt lat="45.750606385990977" lon="7.160612102597952">
        <ele>2510.9000000000001</ele>
        <time>2022-03-27T10:08:09Z</time>
      </trkpt>
      <trkpt lat="45.750606385990977" lon="7.160532223060727">
        <ele>2512.7399999999998</ele>
        <time>2022-03-27T10:08:22Z</time>
      </trkpt>
      <trkpt lat="45.750605463981628" lon="7.160433903336525">
        <ele>2514.9000000000001</ele>
        <time>2022-03-27T10:08:38Z</time>
      </trkpt>
      <trkpt lat="45.750631783157587" lon="7.160420911386609">
        <ele>2516.77</ele>
        <time>2022-03-27T10:08:54Z</time>
      </trkpt>
      <trkpt lat="45.750643266364932" lon="7.160423593595624">
        <ele>2516.9200000000001</ele>
        <time>2022-03-27T10:09:26Z</time>
      </trkpt>
      <trkpt lat="45.750660197809339" lon="7.160382186993957">
        <ele>2517.5300000000002</ele>
        <time>2022-03-27T10:09:38Z</time>
      </trkpt>
      <trkpt lat="45.750657767057419" lon="7.160376822575927">
        <ele>2517.73</ele>
        <time>2022-03-27T10:09:51Z</time>
      </trkpt>
      <trkpt lat="45.750656761229038" lon="7.160377660766244">
        <ele>2517.6999999999998</ele>
        <time>2022-03-27T10:10:18Z</time>
      </trkpt>
      <trkpt lat="45.750659862533212" lon="7.160375649109483">
        <ele>2517.7600000000002</ele>
        <time>2022-03-27T10:10:39Z</time>
      </trkpt>
      <trkpt lat="45.7506622094661" lon="7.160376654937863">
        <ele>2517.6799999999998</ele>
        <time>2022-03-27T10:10:56Z</time>
      </trkpt>
      <trkpt lat="45.750669250264764" lon="7.160378163680434">
        <ele>2517.9400000000001</ele>
        <time>2022-03-27T10:11:16Z</time>
      </trkpt>
      <trkpt lat="45.750678637996316" lon="7.160353939980269">
        <ele>2519.3400000000001</ele>
        <time>2022-03-27T10:11:31Z</time>
      </trkpt>
      <trkpt lat="45.750680146738887" lon="7.160348575562239">
        <ele>2519.6199999999999</ele>
        <time>2022-03-27T10:11:32Z</time>
      </trkpt>
      <trkpt lat="45.750685930252075" lon="7.160340193659067">
        <ele>2520.0500000000002</ele>
        <time>2022-03-27T10:11:45Z</time>
      </trkpt>
      <trkpt lat="45.750685092061758" lon="7.160337511450052">
        <ele>2520.3899999999999</ele>
        <time>2022-03-27T10:12:07Z</time>
      </trkpt>
      <trkpt lat="45.750689450651407" lon="7.160341031849384">
        <ele>2520.5</ele>
        <time>2022-03-27T10:12:33Z</time>
      </trkpt>
      <trkpt lat="45.750688947737217" lon="7.160347737371922">
        <ele>2521.0500000000002</ele>
        <time>2022-03-27T10:12:54Z</time>
      </trkpt>
      <trkpt lat="45.750682493671775" lon="7.160347318276763">
        <ele>2521.1599999999999</ele>
        <time>2022-03-27T10:13:15Z</time>
      </trkpt>
      <trkpt lat="45.750687438994646" lon="7.160340864211321">
        <ele>2520.3200000000002</ele>
        <time>2022-03-27T10:13:42Z</time>
      </trkpt>
      <trkpt lat="45.750695317983627" lon="7.160336673259735">
        <ele>2521.0300000000002</ele>
        <time>2022-03-27T10:14:03Z</time>
      </trkpt>
      <trkpt lat="45.750693306326866" lon="7.160336002707481">
        <ele>2520.9200000000001</ele>
        <time>2022-03-27T10:14:22Z</time>
      </trkpt>
      <trkpt lat="45.750700682401657" lon="7.160328961908817">
        <ele>2521.23</ele>
        <time>2022-03-27T10:14:53Z</time>
      </trkpt>
      <trkpt lat="45.750700263306499" lon="7.160324435681105">
        <ele>2520.9299999999998</ele>
        <time>2022-03-27T10:15:16Z</time>
      </trkpt>
      <trkpt lat="45.750702023506165" lon="7.160330219194293">
        <ele>2520.8099999999999</ele>
        <time>2022-03-27T10:15:37Z</time>
      </trkpt>
      <trkpt lat="45.750746112316847" lon="7.160314545035362">
        <ele>2522.46</ele>
        <time>2022-03-27T10:15:53Z</time>
      </trkpt>
      <trkpt lat="45.750796487554908" lon="7.16023525223136">
        <ele>2525.5</ele>
        <time>2022-03-27T10:16:06Z</time>
      </trkpt>
      <trkpt lat="45.750847281888127" lon="7.160231983289123">
        <ele>2528.3400000000001</ele>
        <time>2022-03-27T10:16:19Z</time>
      </trkpt>
      <trkpt lat="45.7509143371135" lon="7.160282358527184">
        <ele>2531.3699999999999</ele>
        <time>2022-03-27T10:16:34Z</time>
      </trkpt>
      <trkpt lat="45.750970747321844" lon="7.160300547257066">
        <ele>2533.1300000000001</ele>
        <time>2022-03-27T10:16:49Z</time>
      </trkpt>
      <trkpt lat="45.750998994335532" lon="7.160235922783613">
        <ele>2535.02</ele>
        <time>2022-03-27T10:17:02Z</time>
      </trkpt>
      <trkpt lat="45.751031348481774" lon="7.160241873934865">
        <ele>2537.1500000000001</ele>
        <time>2022-03-27T10:17:15Z</time>
      </trkpt>
      <trkpt lat="45.751040652394295" lon="7.160244388505817">
        <ele>2537.7800000000002</ele>
        <time>2022-03-27T10:17:28Z</time>
      </trkpt>
      <trkpt lat="45.751057835295796" lon="7.160222847014666">
        <ele>2538.2800000000002</ele>
        <time>2022-03-27T10:17:42Z</time>
      </trkpt>
      <trkpt lat="45.751083148643374" lon="7.160152522847056">
        <ele>2541.4299999999998</ele>
        <time>2022-03-27T10:17:57Z</time>
      </trkpt>
      <trkpt lat="45.751130925491452" lon="7.160178255289793">
        <ele>2544.0599999999999</ele>
        <time>2022-03-27T10:18:08Z</time>
      </trkpt>
      <trkpt lat="45.751173086464405" lon="7.160170879215002">
        <ele>2545.75</ele>
        <time>2022-03-27T10:18:21Z</time>
      </trkpt>
      <trkpt lat="45.751214912161231" lon="7.160122850909829">
        <ele>2548.46</ele>
        <time>2022-03-27T10:18:35Z</time>
      </trkpt>
      <trkpt lat="45.751243578270078" lon="7.160121258348227">
        <ele>2550.8400000000001</ele>
        <time>2022-03-27T10:18:45Z</time>
      </trkpt>
      <trkpt lat="45.751297557726502" lon="7.160157803446055">
        <ele>2554.02</ele>
        <time>2022-03-27T10:19:01Z</time>
      </trkpt>
      <trkpt lat="45.75129839591682" lon="7.160155205056071">
        <ele>2553.5799999999999</ele>
        <time>2022-03-27T10:19:19Z</time>
      </trkpt>
      <trkpt lat="45.751348687335849" lon="7.160101979970932">
        <ele>2555.4099999999999</ele>
        <time>2022-03-27T10:19:33Z</time>
      </trkpt>
      <trkpt lat="45.751405013725162" lon="7.160053448751569">
        <ele>2557.5599999999999</ele>
        <time>2022-03-27T10:19:48Z</time>
      </trkpt>
      <trkpt lat="45.75148263014853" lon="7.159983543679118">
        <ele>2559.5599999999999</ele>
        <time>2022-03-27T10:20:05Z</time>
      </trkpt>
      <trkpt lat="45.751544404774904" lon="7.159914644435048">
        <ele>2561.7199999999998</ele>
        <time>2022-03-27T10:20:20Z</time>
      </trkpt>
      <trkpt lat="45.751577345654368" lon="7.159894276410341">
        <ele>2563.3800000000001</ele>
        <time>2022-03-27T10:20:33Z</time>
      </trkpt>
      <trkpt lat="45.75162386521697" lon="7.159863263368607">
        <ele>2566.21</ele>
        <time>2022-03-27T10:20:48Z</time>
      </trkpt>
      <trkpt lat="45.751662086695433" lon="7.159843482077122">
        <ele>2569.3699999999999</ele>
        <time>2022-03-27T10:21:00Z</time>
      </trkpt>
      <trkpt lat="45.751684634014964" lon="7.159854965284467">
        <ele>2570.9099999999999</ele>
        <time>2022-03-27T10:21:14Z</time>
      </trkpt>
      <trkpt lat="45.751692177727818" lon="7.159863766282797">
        <ele>2570.25</ele>
        <time>2022-03-27T10:21:32Z</time>
      </trkpt>
      <trkpt lat="45.751691590994596" lon="7.159862341359258">
        <ele>2571.6700000000001</ele>
        <time>2022-03-27T10:21:37Z</time>
      </trkpt>
      <trkpt lat="45.751693602651358" lon="7.159862341359258">
        <ele>2572.1900000000001</ele>
        <time>2022-03-27T10:21:47Z</time>
      </trkpt>
      <trkpt lat="45.751731405034661" lon="7.159801572561264">
        <ele>2572.1399999999999</ele>
        <time>2022-03-27T10:22:00Z</time>
      </trkpt>
      <trkpt lat="45.751792676746845" lon="7.15972806327045">
        <ele>2574.9699999999998</ele>
        <time>2022-03-27T10:22:14Z</time>
      </trkpt>
      <trkpt lat="45.751863922923803" lon="7.159696379676461">
        <ele>2577.9000000000001</ele>
        <time>2022-03-27T10:22:28Z</time>
      </trkpt>
      <trkpt lat="45.751924607902765" lon="7.159683806821704">
        <ele>2581.0300000000002</ele>
        <time>2022-03-27T10:22:42Z</time>
      </trkpt>
      <trkpt lat="45.751983784139156" lon="7.159704007208347">
        <ele>2583.6599999999999</ele>
        <time>2022-03-27T10:22:55Z</time>
      </trkpt>
      <trkpt lat="45.752053018659353" lon="7.159688081592321">
        <ele>2584.7600000000002</ele>
        <time>2022-03-27T10:23:10Z</time>
      </trkpt>
      <trkpt lat="45.752091407775879" lon="7.159684896469116">
        <ele>2585.8099999999999</ele>
        <time>2022-03-27T10:23:22Z</time>
      </trkpt>
      <trkpt lat="45.752120157703757" lon="7.159670982509852">
        <ele>2586.6799999999998</ele>
        <time>2022-03-27T10:23:36Z</time>
      </trkpt>
      <trkpt lat="45.752160642296076" lon="7.159659499302506">
        <ele>2589.3200000000002</ele>
        <time>2022-03-27T10:23:49Z</time>
      </trkpt>
      <trkpt lat="45.752201043069363" lon="7.159623457118869">
        <ele>2592.5599999999999</ele>
        <time>2022-03-27T10:24:03Z</time>
      </trkpt>
      <trkpt lat="45.752234989777207" lon="7.159625720232725">
        <ele>2595.6199999999999</ele>
        <time>2022-03-27T10:24:15Z</time>
      </trkpt>
      <trkpt lat="45.752247646450996" lon="7.159615242853761">
        <ele>2597.21</ele>
        <time>2022-03-27T10:24:30Z</time>
      </trkpt>
      <trkpt lat="45.752259716391563" lon="7.159610465168953">
        <ele>2598.8499999999999</ele>
        <time>2022-03-27T10:24:34Z</time>
      </trkpt>
      <trkpt lat="45.752303386107087" lon="7.159555563703179">
        <ele>2601.02</ele>
        <time>2022-03-27T10:24:49Z</time>
      </trkpt>
      <trkpt lat="45.752327609807253" lon="7.159522790461779">
        <ele>2602</ele>
        <time>2022-03-27T10:25:03Z</time>
      </trkpt>
      <trkpt lat="45.752377565950155" lon="7.159468978643417">
        <ele>2602.2399999999998</ele>
        <time>2022-03-27T10:25:18Z</time>
      </trkpt>
      <trkpt lat="45.752428863197565" lon="7.159415418282151">
        <ele>2604.9499999999998</ele>
        <time>2022-03-27T10:25:34Z</time>
      </trkpt>
      <trkpt lat="45.752490051090717" lon="7.159338891506195">
        <ele>2605.1900000000001</ele>
        <time>2022-03-27T10:25:50Z</time>
      </trkpt>
      <trkpt lat="45.752507317811251" lon="7.159296562895179">
        <ele>2608.3499999999999</ele>
        <time>2022-03-27T10:26:01Z</time>
      </trkpt>
      <trkpt lat="45.752535229548812" lon="7.159286756068468">
        <ele>2611.6300000000001</ele>
        <time>2022-03-27T10:26:11Z</time>
      </trkpt>
      <trkpt lat="45.752589711919427" lon="7.159302597865462">
        <ele>2613.21</ele>
        <time>2022-03-27T10:26:26Z</time>
      </trkpt>
      <trkpt lat="45.752653162926435" lon="7.159285079687834">
        <ele>2614.3899999999999</ele>
        <time>2022-03-27T10:26:40Z</time>
      </trkpt>
      <trkpt lat="45.75269884429872" lon="7.159269489347935">
        <ele>2615.8499999999999</ele>
        <time>2022-03-27T10:26:53Z</time>
      </trkpt>
      <trkpt lat="45.752758774906397" lon="7.159230262041092">
        <ele>2618.9899999999998</ele>
        <time>2022-03-27T10:27:07Z</time>
      </trkpt>
      <trkpt lat="45.752820717170835" lon="7.159214671701193">
        <ele>2620.5700000000002</ele>
        <time>2022-03-27T10:27:21Z</time>
      </trkpt>
      <trkpt lat="45.752872936427593" lon="7.159193800762296">
        <ele>2623.5100000000002</ele>
        <time>2022-03-27T10:27:36Z</time>
      </trkpt>
      <trkpt lat="45.752940662205219" lon="7.159182317554951">
        <ele>2624.23</ele>
        <time>2022-03-27T10:27:50Z</time>
      </trkpt>
      <trkpt lat="45.75298810377717" lon="7.159175695851445">
        <ele>2624.6999999999998</ele>
        <time>2022-03-27T10:28:04Z</time>
      </trkpt>
      <trkpt lat="45.753050884231925" lon="7.159209391102195">
        <ele>2627.7600000000002</ele>
        <time>2022-03-27T10:28:22Z</time>
      </trkpt>
      <trkpt lat="45.753077790141106" lon="7.159279379993677">
        <ele>2629.23</ele>
        <time>2022-03-27T10:28:33Z</time>
      </trkpt>
      <trkpt lat="45.753112994134426" lon="7.159321373328567">
        <ele>2631.25</ele>
        <time>2022-03-27T10:28:45Z</time>
      </trkpt>
      <trkpt lat="45.753176026046276" lon="7.159299748018384">
        <ele>2633.0300000000002</ele>
        <time>2022-03-27T10:28:57Z</time>
      </trkpt>
      <trkpt lat="45.753250457346439" lon="7.159283151850104">
        <ele>2635.4299999999998</ele>
        <time>2022-03-27T10:29:12Z</time>
      </trkpt>
      <trkpt lat="45.75329496525228" lon="7.159332940354943">
        <ele>2637.6799999999998</ele>
        <time>2022-03-27T10:29:25Z</time>
      </trkpt>
      <trkpt lat="45.753319775685668" lon="7.15939287096262">
        <ele>2639.3600000000001</ele>
        <time>2022-03-27T10:29:37Z</time>
      </trkpt>
      <trkpt lat="45.753365457057953" lon="7.159402510151267">
        <ele>2641.2800000000002</ele>
        <time>2022-03-27T10:29:50Z</time>
      </trkpt>
      <trkpt lat="45.753413317725062" lon="7.159421872347593">
        <ele>2643.9099999999999</ele>
        <time>2022-03-27T10:30:03Z</time>
      </trkpt>
      <trkpt lat="45.753475511446595" lon="7.15942706912756">
        <ele>2645.1300000000001</ele>
        <time>2022-03-27T10:30:18Z</time>
      </trkpt>
      <trkpt lat="45.753523036837578" lon="7.159447185695171">
        <ele>2647.1999999999998</ele>
        <time>2022-03-27T10:30:32Z</time>
      </trkpt>
      <trkpt lat="45.753523791208863" lon="7.159448862075806">
        <ele>2646.1500000000001</ele>
        <time>2022-03-27T10:30:50Z</time>
      </trkpt>
      <trkpt lat="45.753535693511367" lon="7.159451795741916">
        <ele>2644.1900000000001</ele>
        <time>2022-03-27T10:31:07Z</time>
      </trkpt>
      <trkpt lat="45.75355832464993" lon="7.159435199573636">
        <ele>2643.27</ele>
        <time>2022-03-27T10:31:34Z</time>
      </trkpt>
      <trkpt lat="45.753576178103685" lon="7.159437378868461">
        <ele>2643.73</ele>
        <time>2022-03-27T10:31:59Z</time>
      </trkpt>
      <trkpt lat="45.753577100113034" lon="7.159437546506524">
        <ele>2643.5999999999999</ele>
        <time>2022-03-27T10:32:23Z</time>
      </trkpt>
      <trkpt lat="45.7535754237324" lon="7.159431427717209">
        <ele>2643.4699999999998</ele>
        <time>2022-03-27T10:32:46Z</time>
      </trkpt>
      <trkpt lat="45.753595540300012" lon="7.159416591748595">
        <ele>2643.8299999999999</ele>
        <time>2022-03-27T10:33:08Z</time>
      </trkpt>
      <trkpt lat="45.753591852262616" lon="7.159415502101183">
        <ele>2646.0599999999999</ele>
        <time>2022-03-27T10:33:31Z</time>
      </trkpt>
      <trkpt lat="45.753555307164788" lon="7.159426314756274">
        <ele>2645.5999999999999</ele>
        <time>2022-03-27T10:33:45Z</time>
      </trkpt>
      <trkpt lat="45.753545500338078" lon="7.159449113532901">
        <ele>2645.1300000000001</ele>
        <time>2022-03-27T10:34:01Z</time>
      </trkpt>
      <trkpt lat="45.753541560843587" lon="7.159439725801349">
        <ele>2644.9200000000001</ele>
        <time>2022-03-27T10:34:09Z</time>
      </trkpt>
      <trkpt lat="45.753553630784154" lon="7.159418603405356">
        <ele>2645.5100000000002</ele>
        <time>2022-03-27T10:34:24Z</time>
      </trkpt>
      <trkpt lat="45.753568634390831" lon="7.159427152946591">
        <ele>2646.5900000000001</ele>
        <time>2022-03-27T10:34:35Z</time>
      </trkpt>
      <trkpt lat="45.753566706553102" lon="7.159435199573636">
        <ele>2646.5799999999999</ele>
        <time>2022-03-27T10:34:55Z</time>
      </trkpt>
      <trkpt lat="45.753566538915038" lon="7.159435115754604">
        <ele>2647.2399999999998</ele>
        <time>2022-03-27T10:35:14Z</time>
      </trkpt>
      <trkpt lat="45.753568969666958" lon="7.159439893439412">
        <ele>2646.8000000000002</ele>
        <time>2022-03-27T10:35:31Z</time>
      </trkpt>
      <trkpt lat="45.753575675189495" lon="7.159452633932233">
        <ele>2647.2600000000002</ele>
        <time>2022-03-27T10:35:47Z</time>
      </trkpt>
      <trkpt lat="45.753576764836907" lon="7.159456489607692">
        <ele>2645.8400000000001</ele>
        <time>2022-03-27T10:35:52Z</time>
      </trkpt>
      <trkpt lat="45.753591181710362" lon="7.159459171816707">
        <ele>2647.9400000000001</ele>
        <time>2022-03-27T10:36:10Z</time>
      </trkpt>
      <trkpt lat="45.753646586090326" lon="7.15948473662138">
        <ele>2650.8299999999999</ele>
        <time>2022-03-27T10:36:24Z</time>
      </trkpt>
      <trkpt lat="45.7537239510566" lon="7.159476354718208">
        <ele>2652.9400000000001</ele>
        <time>2022-03-27T10:36:39Z</time>
      </trkpt>
      <trkpt lat="45.753801148384809" lon="7.159464368596673">
        <ele>2655.4200000000001</ele>
        <time>2022-03-27T10:36:55Z</time>
      </trkpt>
      <trkpt lat="45.753854624927044" lon="7.159432014450431">
        <ele>2657.1999999999998</ele>
        <time>2022-03-27T10:37:09Z</time>
      </trkpt>
      <trkpt lat="45.753895277157426" lon="7.159415083006024">
        <ele>2658.8800000000001</ele>
        <time>2022-03-27T10:37:21Z</time>
      </trkpt>
      <trkpt lat="45.753965098410845" lon="7.159431427717209">
        <ele>2661.5799999999999</ele>
        <time>2022-03-27T10:37:36Z</time>
      </trkpt>
      <trkpt lat="45.754010025411844" lon="7.159462859854102">
        <ele>2664.3400000000001</ele>
        <time>2022-03-27T10:37:49Z</time>
      </trkpt>
      <trkpt lat="45.754049336537719" lon="7.159472331404686">
        <ele>2665.6799999999998</ele>
        <time>2022-03-27T10:38:04Z</time>
      </trkpt>
      <trkpt lat="45.754100969061255" lon="7.159446179866791">
        <ele>2668.8400000000001</ele>
        <time>2022-03-27T10:38:19Z</time>
      </trkpt>
      <trkpt lat="45.754109183326364" lon="7.159457411617041">
        <ele>2669.4000000000001</ele>
        <time>2022-03-27T10:38:33Z</time>
      </trkpt>
      <trkpt lat="45.754126198589802" lon="7.159480126574636">
        <ele>2671.1999999999998</ele>
        <time>2022-03-27T10:38:46Z</time>
      </trkpt>
      <trkpt lat="45.754169784486294" lon="7.159482138231397">
        <ele>2672.5</ele>
        <time>2022-03-27T10:39:00Z</time>
      </trkpt>
      <trkpt lat="45.754215298220515" lon="7.159459926187992">
        <ele>2672.9099999999999</ele>
        <time>2022-03-27T10:39:15Z</time>
      </trkpt>
      <trkpt lat="45.754287550225854" lon="7.159442072734237">
        <ele>2675.25</ele>
        <time>2022-03-27T10:39:30Z</time>
      </trkpt>
      <trkpt lat="45.754348319023848" lon="7.159441150724888">
        <ele>2677.73</ele>
        <time>2022-03-27T10:39:45Z</time>
      </trkpt>
      <trkpt lat="45.754407495260239" lon="7.159449364989996">
        <ele>2680.6100000000001</ele>
        <time>2022-03-27T10:40:00Z</time>
      </trkpt>
      <trkpt lat="45.754418056458235" lon="7.159451628103852">
        <ele>2680.9200000000001</ele>
        <time>2022-03-27T10:40:14Z</time>
      </trkpt>
      <trkpt lat="45.754411686211824" lon="7.159460429102182">
        <ele>2680.6799999999998</ele>
        <time>2022-03-27T10:40:38Z</time>
      </trkpt>
      <trkpt lat="45.754451416432858" lon="7.15947006829083">
        <ele>2682.1700000000001</ele>
        <time>2022-03-27T10:40:50Z</time>
      </trkpt>
      <trkpt lat="45.754494164139032" lon="7.159479204565287">
        <ele>2684.54</ele>
        <time>2022-03-27T10:41:03Z</time>
      </trkpt>
      <trkpt lat="45.754547473043203" lon="7.159437797963619">
        <ele>2686.8299999999999</ele>
        <time>2022-03-27T10:41:15Z</time>
      </trkpt>
      <trkpt lat="45.754596758633852" lon="7.159463865682483">
        <ele>2689.6900000000001</ele>
        <time>2022-03-27T10:41:28Z</time>
      </trkpt>
      <trkpt lat="45.754628945142031" lon="7.159454394131899">
        <ele>2690.77</ele>
        <time>2022-03-27T10:41:42Z</time>
      </trkpt>
      <trkpt lat="45.754628274589777" lon="7.159455819055438">
        <ele>2690.6799999999998</ele>
        <time>2022-03-27T10:41:57Z</time>
      </trkpt>
      <trkpt lat="45.754648055881262" lon="7.159445844590664">
        <ele>2691.6100000000001</ele>
        <time>2022-03-27T10:42:11Z</time>
      </trkpt>
      <trkpt lat="45.754655683413148" lon="7.159450203180313">
        <ele>2691.6700000000001</ele>
        <time>2022-03-27T10:42:28Z</time>
      </trkpt>
      <trkpt lat="45.754667334258556" lon="7.159456741064787">
        <ele>2693.3899999999999</ele>
        <time>2022-03-27T10:42:46Z</time>
      </trkpt>
      <trkpt lat="45.75466750189662" lon="7.159453807398677">
        <ele>2693.6199999999999</ele>
        <time>2022-03-27T10:43:00Z</time>
      </trkpt>
      <trkpt lat="45.754666160792112" lon="7.159454645588994">
        <ele>2692.1700000000001</ele>
        <time>2022-03-27T10:43:06Z</time>
      </trkpt>
      <trkpt lat="45.754698682576418" lon="7.159443078562617">
        <ele>2694.8200000000002</ele>
        <time>2022-03-27T10:43:26Z</time>
      </trkpt>
      <trkpt lat="45.754751991480589" lon="7.159404270350933">
        <ele>2696.9200000000001</ele>
        <time>2022-03-27T10:43:40Z</time>
      </trkpt>
      <trkpt lat="45.754800522699952" lon="7.159428158774972">
        <ele>2699.0599999999999</ele>
        <time>2022-03-27T10:43:52Z</time>
      </trkpt>
      <trkpt lat="45.754847209900618" lon="7.159409048035741">
        <ele>2701.7600000000002</ele>
        <time>2022-03-27T10:44:06Z</time>
      </trkpt>
      <trkpt lat="45.754875205457211" lon="7.159386416897178">
        <ele>2704.0300000000002</ele>
        <time>2022-03-27T10:44:24Z</time>
      </trkpt>
      <trkpt lat="45.75487470254302" lon="7.159383902326226">
        <ele>2703.9200000000001</ele>
        <time>2022-03-27T10:44:43Z</time>
      </trkpt>
      <trkpt lat="45.754896495491266" lon="7.159384153783321">
        <ele>2703.6700000000001</ele>
        <time>2022-03-27T10:45:07Z</time>
      </trkpt>
      <trkpt lat="45.754962293431163" lon="7.15942807495594">
        <ele>2705.71</ele>
        <time>2022-03-27T10:45:19Z</time>
      </trkpt>
      <trkpt lat="45.755029264837503" lon="7.159437127411366">
        <ele>2708.3800000000001</ele>
        <time>2022-03-27T10:45:32Z</time>
      </trkpt>
      <trkpt lat="45.755076287314296" lon="7.159469146281481">
        <ele>2711.5100000000002</ele>
        <time>2022-03-27T10:45:45Z</time>
      </trkpt>
      <trkpt lat="45.755097242072225" lon="7.159480294212699">
        <ele>2713.5100000000002</ele>
        <time>2022-03-27T10:45:51Z</time>
      </trkpt>
      <trkpt lat="45.75513856485486" lon="7.159509295597673">
        <ele>2715.4200000000001</ele>
        <time>2022-03-27T10:46:06Z</time>
      </trkpt>
      <trkpt lat="45.755179552361369" lon="7.159526981413364">
        <ele>2716.4899999999998</ele>
        <time>2022-03-27T10:46:20Z</time>
      </trkpt>
      <trkpt lat="45.755213163793087" lon="7.159535028040409">
        <ele>2717.5500000000002</ele>
        <time>2022-03-27T10:46:32Z</time>
      </trkpt>
      <trkpt lat="45.755246942862868" lon="7.159570986405015">
        <ele>2718.3899999999999</ele>
        <time>2022-03-27T10:46:43Z</time>
      </trkpt>
      <trkpt lat="45.755310226231813" lon="7.159641310572624">
        <ele>2719.5500000000002</ele>
        <time>2022-03-27T10:46:56Z</time>
      </trkpt>
      <trkpt lat="45.755371078848839" lon="7.15972219593823">
        <ele>2719.5500000000002</ele>
        <time>2022-03-27T10:47:09Z</time>
      </trkpt>
      <trkpt lat="45.755432602018118" lon="7.159830322489142">
        <ele>2716.7199999999998</ele>
        <time>2022-03-27T10:47:24Z</time>
      </trkpt>
      <trkpt lat="45.755436038598418" lon="7.159839542582631">
        <ele>2715.8800000000001</ele>
        <time>2022-03-27T10:47:26Z</time>
      </trkpt>
      <trkpt lat="45.755497058853507" lon="7.159940712153912">
        <ele>2716.5300000000002</ele>
        <time>2022-03-27T10:47:43Z</time>
      </trkpt>
      <trkpt lat="45.755554726347327" lon="7.16001589782536">
        <ele>2717.1700000000001</ele>
        <time>2022-03-27T10:47:56Z</time>
      </trkpt>
      <trkpt lat="45.755559671670198" lon="7.160029811784625">
        <ele>2716.54</ele>
        <time>2022-03-27T10:48:13Z</time>
      </trkpt>
      <trkpt lat="45.755559923127294" lon="7.160033080726862">
        <ele>2716.23</ele>
        <time>2022-03-27T10:48:35Z</time>
      </trkpt>
      <trkpt lat="45.755560677498579" lon="7.160081192851067">
        <ele>2715.21</ele>
        <time>2022-03-27T10:48:51Z</time>
      </trkpt>
      <trkpt lat="45.755566963925958" lon="7.160094771534205">
        <ele>2715.9099999999999</ele>
        <time>2022-03-27T10:49:01Z</time>
      </trkpt>
      <trkpt lat="45.75556511990726" lon="7.160091418772936">
        <ele>2715.71</ele>
        <time>2022-03-27T10:49:25Z</time>
      </trkpt>
      <trkpt lat="45.755571238696575" lon="7.160082617774606">
        <ele>2715.4899999999998</ele>
        <time>2022-03-27T10:49:48Z</time>
      </trkpt>
      <trkpt lat="45.755569646134973" lon="7.160082785412669">
        <ele>2714.6999999999998</ele>
        <time>2022-03-27T10:50:07Z</time>
      </trkpt>
      <trkpt lat="45.75557098723948" lon="7.160083036869764">
        <ele>2715.3899999999999</ele>
        <time>2022-03-27T10:50:18Z</time>
      </trkpt>
      <trkpt lat="45.755587667226791" lon="7.160076331347227">
        <ele>2715.8600000000001</ele>
        <time>2022-03-27T10:50:37Z</time>
      </trkpt>
      <trkpt lat="45.755556570366025" lon="7.160072140395641">
        <ele>2714.5799999999999</ele>
        <time>2022-03-27T10:50:46Z</time>
      </trkpt>
      <trkpt lat="45.755554139614105" lon="7.160068368539214">
        <ele>2714.5900000000001</ele>
        <time>2022-03-27T10:50:58Z</time>
      </trkpt>
      <trkpt lat="45.755566880106926" lon="7.16008186340332">
        <ele>2713.8600000000001</ele>
        <time>2022-03-27T10:51:09Z</time>
      </trkpt>
      <trkpt lat="45.755567383021116" lon="7.16009552590549">
        <ele>2713.3699999999999</ele>
        <time>2022-03-27T10:51:41Z</time>
      </trkpt>
      <trkpt lat="45.755564700812101" lon="7.16010482981801">
        <ele>2714.2199999999998</ele>
        <time>2022-03-27T10:52:13Z</time>
      </trkpt>
      <trkpt lat="45.755560761317611" lon="7.160102063789964">
        <ele>2714.5300000000002</ele>
        <time>2022-03-27T10:52:52Z</time>
      </trkpt>
      <trkpt lat="45.755561767145991" lon="7.160104913637042">
        <ele>2714.8699999999999</ele>
        <time>2022-03-27T10:53:32Z</time>
      </trkpt>
      <trkpt lat="45.755561348050833" lon="7.160092005506158">
        <ele>2715.52</ele>
        <time>2022-03-27T10:53:56Z</time>
      </trkpt>
      <trkpt lat="45.755561515688896" lon="7.160073481500149">
        <ele>2715.7600000000002</ele>
        <time>2022-03-27T10:54:10Z</time>
      </trkpt>
      <trkpt lat="45.755564449355006" lon="7.160077672451735">
        <ele>2714.1599999999999</ele>
        <time>2022-03-27T10:54:30Z</time>
      </trkpt>
      <trkpt lat="45.755561012774706" lon="7.160075744614005">
        <ele>2716.25</ele>
        <time>2022-03-27T10:54:51Z</time>
      </trkpt>
      <trkpt lat="45.755581799894571" lon="7.160072475671768">
        <ele>2717.8200000000002</ele>
        <time>2022-03-27T10:55:08Z</time>
      </trkpt>
      <trkpt lat="45.755614237859845" lon="7.160114888101816">
        <ele>2718.0599999999999</ele>
        <time>2022-03-27T10:55:20Z</time>
      </trkpt>
      <trkpt lat="45.755628822371364" lon="7.160136848688126">
        <ele>2717.3000000000002</ele>
        <time>2022-03-27T10:55:27Z</time>
      </trkpt>
      <trkpt lat="45.755655225366354" lon="7.160195019096136">
        <ele>2717.9299999999998</ele>
        <time>2022-03-27T10:55:41Z</time>
      </trkpt>
      <trkpt lat="45.755673414096236" lon="7.160257548093796">
        <ele>2716.0799999999999</ele>
        <time>2022-03-27T10:55:53Z</time>
      </trkpt>
      <trkpt lat="45.755699649453163" lon="7.160302894189954">
        <ele>2715.8899999999999</ele>
        <time>2022-03-27T10:56:07Z</time>
      </trkpt>
      <trkpt lat="45.755712892860174" lon="7.160323010757566">
        <ele>2715.3400000000001</ele>
        <time>2022-03-27T10:56:18Z</time>
      </trkpt>
      <trkpt lat="45.755723873153329" lon="7.160350754857063">
        <ele>2715.46</ele>
        <time>2022-03-27T10:56:28Z</time>
      </trkpt>
      <trkpt lat="45.755751114338636" lon="7.16041462495923">
        <ele>2714.75</ele>
        <time>2022-03-27T10:56:41Z</time>
      </trkpt>
      <trkpt lat="45.755754048004746" lon="7.160405488684773">
        <ele>2714.3800000000001</ele>
        <time>2022-03-27T10:56:57Z</time>
      </trkpt>
      <trkpt lat="45.755764273926616" lon="7.160431556403637">
        <ele>2714.0999999999999</ele>
        <time>2022-03-27T10:57:12Z</time>
      </trkpt>
      <trkpt lat="45.75579235330224" lon="7.160484278574586">
        <ele>2714.6399999999999</ele>
        <time>2022-03-27T10:57:26Z</time>
      </trkpt>
      <trkpt lat="45.755814984440804" lon="7.160535911098123">
        <ele>2714.6300000000001</ele>
        <time>2022-03-27T10:57:42Z</time>
      </trkpt>
      <trkpt lat="45.755858151242137" lon="7.160610342398286">
        <ele>2715.2199999999998</ele>
        <time>2022-03-27T10:57:57Z</time>
      </trkpt>
      <trkpt lat="45.755877429619431" lon="7.16064671985805">
        <ele>2715.5300000000002</ele>
        <time>2022-03-27T10:58:08Z</time>
      </trkpt>
      <trkpt lat="45.755880614742637" lon="7.160652000457048">
        <ele>2714.9499999999998</ele>
        <time>2022-03-27T10:58:26Z</time>
      </trkpt>
      <trkpt lat="45.755828898400068" lon="7.160537419840694">
        <ele>2715.2199999999998</ele>
        <time>2022-03-27T10:58:40Z</time>
      </trkpt>
      <trkpt lat="45.755770392715931" lon="7.160433568060398">
        <ele>2714.79</ele>
        <time>2022-03-27T10:58:54Z</time>
      </trkpt>
      <trkpt lat="45.755718927830458" lon="7.160313203930855">
        <ele>2716.4499999999998</ele>
        <time>2022-03-27T10:59:10Z</time>
      </trkpt>
      <trkpt lat="45.755669306963682" lon="7.1601951867342">
        <ele>2716.8800000000001</ele>
        <time>2022-03-27T10:59:27Z</time>
      </trkpt>
      <trkpt lat="45.755625804886222" lon="7.160110529512167">
        <ele>2717.4000000000001</ele>
        <time>2022-03-27T10:59:41Z</time>
      </trkpt>
      <trkpt lat="45.755606945604086" lon="7.160076582804322">
        <ele>2717.8800000000001</ele>
        <time>2022-03-27T10:59:52Z</time>
      </trkpt>
      <trkpt lat="45.75559982098639" lon="7.160066775977612">
        <ele>2717.3200000000002</ele>
        <time>2022-03-27T11:00:07Z</time>
      </trkpt>
      <trkpt lat="45.755599988624454" lon="7.160069206729531">
        <ele>2716.4699999999998</ele>
        <time>2022-03-27T11:00:19Z</time>
      </trkpt>
      <trkpt lat="45.75556025840342" lon="7.160040456801653">
        <ele>2716.7600000000002</ele>
        <time>2022-03-27T11:00:31Z</time>
      </trkpt>
      <trkpt lat="45.75555682182312" lon="7.160025034099817">
        <ele>2717.0500000000002</ele>
        <time>2022-03-27T11:00:45Z</time>
      </trkpt>
      <trkpt lat="45.75555682182312" lon="7.160019082948566">
        <ele>2717.02</ele>
        <time>2022-03-27T11:00:58Z</time>
      </trkpt>
      <trkpt lat="45.755500160157681" lon="7.159943310543895">
        <ele>2717</ele>
        <time>2022-03-27T11:01:09Z</time>
      </trkpt>
      <trkpt lat="45.75542732141912" lon="7.159836692735553">
        <ele>2717.54</ele>
        <time>2022-03-27T11:01:23Z</time>
      </trkpt>
      <trkpt lat="45.755374683067203" lon="7.159745581448078">
        <ele>2718.1700000000001</ele>
        <time>2022-03-27T11:01:40Z</time>
      </trkpt>
      <trkpt lat="45.755377113819122" lon="7.159739462658763">
        <ele>2718.0799999999999</ele>
        <time>2022-03-27T11:01:57Z</time>
      </trkpt>
      <trkpt lat="45.755357500165701" lon="7.159718004986644">
        <ele>2718.7199999999998</ele>
        <time>2022-03-27T11:02:11Z</time>
      </trkpt>
      <trkpt lat="45.755274938419461" lon="7.159652039408684">
        <ele>2716.1999999999998</ele>
        <time>2022-03-27T11:02:23Z</time>
      </trkpt>
      <trkpt lat="45.755230598151684" lon="7.159634185954928">
        <ele>2715.9200000000001</ele>
        <time>2022-03-27T11:02:34Z</time>
      </trkpt>
      <trkpt lat="45.755227832123637" lon="7.159636532887816">
        <ele>2715.8499999999999</ele>
        <time>2022-03-27T11:02:47Z</time>
      </trkpt>
      <trkpt lat="45.755230681970716" lon="7.159624379128218">
        <ele>2715.75</ele>
        <time>2022-03-27T11:03:04Z</time>
      </trkpt>
      <trkpt lat="45.755232190713286" lon="7.159622702747583">
        <ele>2715.77</ele>
        <time>2022-03-27T11:03:21Z</time>
      </trkpt>
      <trkpt lat="45.755230514332652" lon="7.15961616486311">
        <ele>2715.48</ele>
        <time>2022-03-27T11:03:38Z</time>
      </trkpt>
      <trkpt lat="45.755233112722635" lon="7.159619349986315">
        <ele>2715.46</ele>
        <time>2022-03-27T11:03:53Z</time>
      </trkpt>
      <trkpt lat="45.755237303674221" lon="7.159624295309186">
        <ele>2715.5799999999999</ele>
        <time>2022-03-27T11:04:00Z</time>
      </trkpt>
      <trkpt lat="45.755237303674221" lon="7.159625133499503">
        <ele>2714.1500000000001</ele>
        <time>2022-03-27T11:04:03Z</time>
      </trkpt>
      <trkpt lat="45.755247613415122" lon="7.159639215096831">
        <ele>2715.0100000000002</ele>
        <time>2022-03-27T11:04:24Z</time>
      </trkpt>
      <trkpt lat="45.755250044167042" lon="7.159641059115529">
        <ele>2715.75</ele>
        <time>2022-03-27T11:04:31Z</time>
      </trkpt>
      <trkpt lat="45.755249541252851" lon="7.159637622535229">
        <ele>2715.2399999999998</ele>
        <time>2022-03-27T11:04:59Z</time>
      </trkpt>
      <trkpt lat="45.75525482185185" lon="7.159644076600671">
        <ele>2714.4299999999998</ele>
        <time>2022-03-27T11:05:16Z</time>
      </trkpt>
      <trkpt lat="45.755256162956357" lon="7.159643657505512">
        <ele>2716.4000000000001</ele>
        <time>2022-03-27T11:05:19Z</time>
      </trkpt>
      <trkpt lat="45.755254486575723" lon="7.159639215096831">
        <ele>2714.0599999999999</ele>
        <time>2022-03-27T11:05:36Z</time>
      </trkpt>
      <trkpt lat="45.755254318937659" lon="7.159639550372958">
        <ele>2716.1900000000001</ele>
        <time>2022-03-27T11:05:39Z</time>
      </trkpt>
      <trkpt lat="45.755254654213786" lon="7.159641394391656">
        <ele>2715.9000000000001</ele>
        <time>2022-03-27T11:05:44Z</time>
      </trkpt>
      <trkpt lat="45.755254151299596" lon="7.159642986953259">
        <ele>2714.48</ele>
        <time>2022-03-27T11:05:47Z</time>
      </trkpt>
      <trkpt lat="45.75525582768023" lon="7.159641729667783">
        <ele>2716.7600000000002</ele>
        <time>2022-03-27T11:05:52Z</time>
      </trkpt>
      <trkpt lat="45.755258593708277" lon="7.159637957811356">
        <ele>2716.8000000000002</ele>
        <time>2022-03-27T11:06:14Z</time>
      </trkpt>
      <trkpt lat="45.755256246775389" lon="7.159640220925212">
        <ele>2715</ele>
        <time>2022-03-27T11:06:18Z</time>
      </trkpt>
      <trkpt lat="45.755254989489913" lon="7.159647597000003">
        <ele>2714.0999999999999</ele>
        <time>2022-03-27T11:06:39Z</time>
      </trkpt>
      <trkpt lat="45.755261946469545" lon="7.159653380513191">
        <ele>2716.1100000000001</ele>
        <time>2022-03-27T11:06:57Z</time>
      </trkpt>
      <trkpt lat="45.755265047773719" lon="7.159655224531889">
        <ele>2716.2399999999998</ele>
        <time>2022-03-27T11:06:58Z</time>
      </trkpt>
      <trkpt lat="45.755300167948008" lon="7.159690009430051">
        <ele>2717.4400000000001</ele>
        <time>2022-03-27T11:07:10Z</time>
      </trkpt>
      <trkpt lat="45.755350040271878" lon="7.15975396335125">
        <ele>2717.5599999999999</ele>
        <time>2022-03-27T11:07:23Z</time>
      </trkpt>
      <trkpt lat="45.755421034991741" lon="7.159821353852749">
        <ele>2718.1300000000001</ele>
        <time>2022-03-27T11:07:37Z</time>
      </trkpt>
      <trkpt lat="45.755468141287565" lon="7.159888241440058">
        <ele>2716.5100000000002</ele>
        <time>2022-03-27T11:07:53Z</time>
      </trkpt>
      <trkpt lat="45.755509631708264" lon="7.159933419898152">
        <ele>2718.0300000000002</ele>
        <time>2022-03-27T11:08:04Z</time>
      </trkpt>
      <trkpt lat="45.755577860400081" lon="7.160042468458414">
        <ele>2717.96</ele>
        <time>2022-03-27T11:08:19Z</time>
      </trkpt>
      <trkpt lat="45.755637791007757" lon="7.160106087103486">
        <ele>2718.75</ele>
        <time>2022-03-27T11:08:34Z</time>
      </trkpt>
      <trkpt lat="45.755641395226121" lon="7.160129053518176">
        <ele>2717.3699999999999</ele>
        <time>2022-03-27T11:08:45Z</time>
      </trkpt>
      <trkpt lat="45.755678694695234" lon="7.16020449064672">
        <ele>2718.0500000000002</ele>
        <time>2022-03-27T11:08:58Z</time>
      </trkpt>
      <trkpt lat="45.755712725222111" lon="7.160300714895129">
        <ele>2717.5799999999999</ele>
        <time>2022-03-27T11:09:13Z</time>
      </trkpt>
      <trkpt lat="45.755752790719271" lon="7.160404734313488">
        <ele>2717.04</ele>
        <time>2022-03-27T11:09:28Z</time>
      </trkpt>
      <trkpt lat="45.755810039117932" lon="7.160508250817657">
        <ele>2717.52</ele>
        <time>2022-03-27T11:09:44Z</time>
      </trkpt>
      <trkpt lat="45.755875334143639" lon="7.160618053749204">
        <ele>2717.5</ele>
        <time>2022-03-27T11:10:00Z</time>
      </trkpt>
      <trkpt lat="45.755924033001065" lon="7.160726431757212">
        <ele>2717.1999999999998</ele>
        <time>2022-03-27T11:10:16Z</time>
      </trkpt>
      <trkpt lat="45.755961500108242" lon="7.160808658227325">
        <ele>2716.9000000000001</ele>
        <time>2022-03-27T11:10:31Z</time>
      </trkpt>
      <trkpt lat="45.755984885618091" lon="7.160880910232663">
        <ele>2717.8200000000002</ele>
        <time>2022-03-27T11:10:44Z</time>
      </trkpt>
      <trkpt lat="45.75601757504046" lon="7.160982163622975">
        <ele>2718.9400000000001</ele>
        <time>2022-03-27T11:10:59Z</time>
      </trkpt>
      <trkpt lat="45.756064597517252" lon="7.161019630730152">
        <ele>2721.5799999999999</ele>
        <time>2022-03-27T11:11:14Z</time>
      </trkpt>
      <trkpt lat="45.756117319688201" lon="7.161068161949515">
        <ele>2723.5599999999999</ele>
        <time>2022-03-27T11:11:31Z</time>
      </trkpt>
      <trkpt lat="45.756156798452139" lon="7.161136055365205">
        <ele>2724.9200000000001</ele>
        <time>2022-03-27T11:11:45Z</time>
      </trkpt>
      <trkpt lat="45.756196612492204" lon="7.161198332905769">
        <ele>2725.5799999999999</ele>
        <time>2022-03-27T11:11:59Z</time>
      </trkpt>
      <trkpt lat="45.756235420703888" lon="7.161266058683395">
        <ele>2727.3200000000002</ele>
        <time>2022-03-27T11:12:14Z</time>
      </trkpt>
      <trkpt lat="45.756265847012401" lon="7.161352979019284">
        <ele>2728.9200000000001</ele>
        <time>2022-03-27T11:12:29Z</time>
      </trkpt>
      <trkpt lat="45.756272803992033" lon="7.16143193654716">
        <ele>2730.4200000000001</ele>
        <time>2022-03-27T11:12:43Z</time>
      </trkpt>
      <trkpt lat="45.756287388503551" lon="7.161455238237977">
        <ele>2732.2800000000002</ele>
        <time>2022-03-27T11:12:57Z</time>
      </trkpt>
      <trkpt lat="45.756282862275839" lon="7.161459010094404">
        <ele>2731.8699999999999</ele>
        <time>2022-03-27T11:13:16Z</time>
      </trkpt>
      <trkpt lat="45.756315132603049" lon="7.161459848284721">
        <ele>2734.4699999999998</ele>
        <time>2022-03-27T11:13:34Z</time>
      </trkpt>
      <trkpt lat="45.756342457607388" lon="7.161539979279041">
        <ele>2736.5300000000002</ele>
        <time>2022-03-27T11:13:47Z</time>
      </trkpt>
      <trkpt lat="45.756367519497871" lon="7.161598652601242">
        <ele>2739.4099999999999</ele>
        <time>2022-03-27T11:14:00Z</time>
      </trkpt>
      <trkpt lat="45.756404986605048" lon="7.161638969555497">
        <ele>2740.5300000000002</ele>
        <time>2022-03-27T11:14:13Z</time>
      </trkpt>
      <trkpt lat="45.756431641057134" lon="7.161651039496064">
        <ele>2742.0500000000002</ele>
        <time>2022-03-27T11:14:24Z</time>
      </trkpt>
      <trkpt lat="45.756458463147283" lon="7.161662438884378">
        <ele>2743.4699999999998</ele>
        <time>2022-03-27T11:14:40Z</time>
      </trkpt>
      <trkpt lat="45.756485620513558" lon="7.161684315651655">
        <ele>2744.8899999999999</ele>
        <time>2022-03-27T11:14:53Z</time>
      </trkpt>
      <trkpt lat="45.756519148126245" lon="7.161695463582873">
        <ele>2746.02</ele>
        <time>2022-03-27T11:15:04Z</time>
      </trkpt>
      <trkpt lat="45.756538761779666" lon="7.161715412512422">
        <ele>2746.6399999999999</ele>
        <time>2022-03-27T11:15:13Z</time>
      </trkpt>
      <trkpt lat="45.756556112319231" lon="7.161690769717097">
        <ele>2747.73</ele>
        <time>2022-03-27T11:15:23Z</time>
      </trkpt>
      <trkpt lat="45.756567260250449" lon="7.161657158285379">
        <ele>2748.54</ele>
        <time>2022-03-27T11:15:35Z</time>
      </trkpt>
      <trkpt lat="45.75659173540771" lon="7.16157853603363">
        <ele>2751.02</ele>
        <time>2022-03-27T11:15:51Z</time>
      </trkpt>
      <trkpt lat="45.756619311869144" lon="7.161530675366521">
        <ele>2751.8400000000001</ele>
        <time>2022-03-27T11:16:01Z</time>
      </trkpt>
      <trkpt lat="45.756656946614385" lon="7.161481892690063">
        <ele>2752.6700000000001</ele>
        <time>2022-03-27T11:16:13Z</time>
      </trkpt>
      <trkpt lat="45.756667675450444" lon="7.161493878811598">
        <ele>2752.1700000000001</ele>
        <time>2022-03-27T11:16:27Z</time>
      </trkpt>
      <trkpt lat="45.756670860573649" lon="7.161498321220279">
        <ele>2752.9499999999998</ele>
        <time>2022-03-27T11:16:34Z</time>
      </trkpt>
      <trkpt lat="45.75668653473258" lon="7.161502176895738">
        <ele>2754.3299999999999</ele>
        <time>2022-03-27T11:16:45Z</time>
      </trkpt>
      <trkpt lat="45.756746297702193" lon="7.161540566012263">
        <ele>2755.5599999999999</ele>
        <time>2022-03-27T11:16:59Z</time>
      </trkpt>
      <trkpt lat="45.756795834749937" lon="7.16161516495049">
        <ele>2757.4899999999998</ele>
        <time>2022-03-27T11:17:14Z</time>
      </trkpt>
      <trkpt lat="45.756831709295511" lon="7.161653134971857">
        <ele>2760.5</ele>
        <time>2022-03-27T11:17:25Z</time>
      </trkpt>
      <trkpt lat="45.756888035684824" lon="7.161711724475026">
        <ele>2762.6900000000001</ele>
        <time>2022-03-27T11:17:43Z</time>
      </trkpt>
      <trkpt lat="45.756914354860783" lon="7.161751203238964">
        <ele>2764.5500000000002</ele>
        <time>2022-03-27T11:17:57Z</time>
      </trkpt>
      <trkpt lat="45.756950564682484" lon="7.16174122877419">
        <ele>2765.1199999999999</ele>
        <time>2022-03-27T11:18:11Z</time>
      </trkpt>
      <trkpt lat="45.756984511390328" lon="7.161754053086042">
        <ele>2767.8299999999999</ele>
        <time>2022-03-27T11:18:24Z</time>
      </trkpt>
      <trkpt lat="45.757016027346253" lon="7.161759082227945">
        <ele>2768.0300000000002</ele>
        <time>2022-03-27T11:18:37Z</time>
      </trkpt>
      <trkpt lat="45.757060032337904" lon="7.16177785769105">
        <ele>2768.79</ele>
        <time>2022-03-27T11:18:53Z</time>
      </trkpt>
      <trkpt lat="45.757091967388988" lon="7.161864610388875">
        <ele>2770.2199999999998</ele>
        <time>2022-03-27T11:19:08Z</time>
      </trkpt>
      <trkpt lat="45.75712725520134" lon="7.16196988709271">
        <ele>2770.8800000000001</ele>
        <time>2022-03-27T11:19:21Z</time>
      </trkpt>
      <trkpt lat="45.757129266858101" lon="7.162065021693707">
        <ele>2772.48</ele>
        <time>2022-03-27T11:19:35Z</time>
      </trkpt>
      <trkpt lat="45.757137984037399" lon="7.162097124382854">
        <ele>2772.7399999999998</ele>
        <time>2022-03-27T11:19:53Z</time>
      </trkpt>
      <trkpt lat="45.757149299606681" lon="7.162180189043284">
        <ele>2771.9400000000001</ele>
        <time>2022-03-27T11:20:06Z</time>
      </trkpt>
      <trkpt lat="45.757118370383978" lon="7.16230072081089">
        <ele>2771.0999999999999</ele>
        <time>2022-03-27T11:20:19Z</time>
      </trkpt>
      <trkpt lat="45.757116358727217" lon="7.162415636703372">
        <ele>2770.79</ele>
        <time>2022-03-27T11:20:31Z</time>
      </trkpt>
      <trkpt lat="45.757120465859771" lon="7.162487888708711">
        <ele>2770.4899999999998</ele>
        <time>2022-03-27T11:20:48Z</time>
      </trkpt>
      <trkpt lat="45.757129434496164" lon="7.162562152370811">
        <ele>2770.9499999999998</ele>
        <time>2022-03-27T11:20:59Z</time>
      </trkpt>
      <trkpt lat="45.757160782814026" lon="7.162627195939422">
        <ele>2772.6100000000001</ele>
        <time>2022-03-27T11:21:11Z</time>
      </trkpt>
      <trkpt lat="45.757169416174293" lon="7.162632895633578">
        <ele>2773.7600000000002</ele>
        <time>2022-03-27T11:21:22Z</time>
      </trkpt>
      <trkpt lat="45.757221132516861" lon="7.162704057991505">
        <ele>2774.1700000000001</ele>
        <time>2022-03-27T11:21:36Z</time>
      </trkpt>
      <trkpt lat="45.75723085552454" lon="7.162751415744424">
        <ele>2775.6199999999999</ele>
        <time>2022-03-27T11:21:47Z</time>
      </trkpt>
      <trkpt lat="45.757256085053086" lon="7.162732472643256">
        <ele>2775.4400000000001</ele>
        <time>2022-03-27T11:22:00Z</time>
      </trkpt>
      <trkpt lat="45.757267903536558" lon="7.162739597260952">
        <ele>2775.0999999999999</ele>
        <time>2022-03-27T11:22:11Z</time>
      </trkpt>
      <trkpt lat="45.757254660129547" lon="7.162741608917713">
        <ele>2774.79</ele>
        <time>2022-03-27T11:22:24Z</time>
      </trkpt>
      <trkpt lat="45.75723035261035" lon="7.162765497341752">
        <ele>2775.3499999999999</ele>
        <time>2022-03-27T11:22:36Z</time>
      </trkpt>
      <trkpt lat="45.757236471399665" lon="7.162764240056276">
        <ele>2775.7600000000002</ele>
        <time>2022-03-27T11:22:49Z</time>
      </trkpt>
      <trkpt lat="45.7572259940207" lon="7.162747224792838">
        <ele>2775.4699999999998</ele>
        <time>2022-03-27T11:23:01Z</time>
      </trkpt>
      <trkpt lat="45.757225239649415" lon="7.162748817354441">
        <ele>2774.7600000000002</ele>
        <time>2022-03-27T11:23:19Z</time>
      </trkpt>
      <trkpt lat="45.75722155161202" lon="7.162746721878648">
        <ele>2775.2199999999998</ele>
        <time>2022-03-27T11:23:40Z</time>
      </trkpt>
      <trkpt lat="45.757225658744574" lon="7.162743788212538">
        <ele>2775.21</ele>
        <time>2022-03-27T11:23:56Z</time>
      </trkpt>
      <trkpt lat="45.757212080061436" lon="7.162738423794508">
        <ele>2775.29</ele>
        <time>2022-03-27T11:24:17Z</time>
      </trkpt>
      <trkpt lat="45.757177546620369" lon="7.162670195102692">
        <ele>2773.79</ele>
        <time>2022-03-27T11:24:30Z</time>
      </trkpt>
      <trkpt lat="45.757138906046748" lon="7.162610683590174">
        <ele>2773.52</ele>
        <time>2022-03-27T11:24:42Z</time>
      </trkpt>
      <trkpt lat="45.757114011794329" lon="7.162549998611212">
        <ele>2772.29</ele>
        <time>2022-03-27T11:24:52Z</time>
      </trkpt>
      <trkpt lat="45.75711065903306" lon="7.162475315853953">
        <ele>2771.5599999999999</ele>
        <time>2022-03-27T11:25:05Z</time>
      </trkpt>
      <trkpt lat="45.757108647376299" lon="7.162462742999196">
        <ele>2771.7199999999998</ele>
        <time>2022-03-27T11:25:18Z</time>
      </trkpt>
      <trkpt lat="45.757113257423043" lon="7.162466766312718">
        <ele>2770.4400000000001</ele>
        <time>2022-03-27T11:25:28Z</time>
      </trkpt>
      <trkpt lat="45.757116777822375" lon="7.16246391646564">
        <ele>2770.2800000000002</ele>
        <time>2022-03-27T11:26:06Z</time>
      </trkpt>
      <trkpt lat="45.757116274908185" lon="7.162464084103704">
        <ele>2770.25</ele>
        <time>2022-03-27T11:26:57Z</time>
      </trkpt>
      <trkpt lat="45.757116694003344" lon="7.162468275055289">
        <ele>2770.6300000000001</ele>
        <time>2022-03-27T11:27:49Z</time>
      </trkpt>
      <trkpt lat="45.75711845420301" lon="7.162468023598194">
        <ele>2771.7399999999998</ele>
        <time>2022-03-27T11:28:38Z</time>
      </trkpt>
      <trkpt lat="45.7571155205369" lon="7.162466179579496">
        <ele>2771.3099999999999</ele>
        <time>2022-03-27T11:29:17Z</time>
      </trkpt>
      <trkpt lat="45.757123902440071" lon="7.162460731342435">
        <ele>2770.9299999999998</ele>
        <time>2022-03-27T11:29:55Z</time>
      </trkpt>
      <trkpt lat="45.757120046764612" lon="7.162456372752786">
        <ele>2770.9299999999998</ele>
        <time>2022-03-27T11:30:38Z</time>
      </trkpt>
      <trkpt lat="45.757118621841073" lon="7.162457378581166">
        <ele>2770.4299999999998</ele>
        <time>2022-03-27T11:31:16Z</time>
      </trkpt>
      <trkpt lat="45.757120046764612" lon="7.162457881495357">
        <ele>2770.73</ele>
        <time>2022-03-27T11:32:00Z</time>
      </trkpt>
      <trkpt lat="45.757118286564946" lon="7.162453690543771">
        <ele>2771.0100000000002</ele>
        <time>2022-03-27T11:32:37Z</time>
      </trkpt>
      <trkpt lat="45.757125411182642" lon="7.162457462400198">
        <ele>2770.6900000000001</ele>
        <time>2022-03-27T11:33:22Z</time>
      </trkpt>
      <trkpt lat="45.75713069178164" lon="7.162461569532752">
        <ele>2770.4299999999998</ele>
        <time>2022-03-27T11:34:06Z</time>
      </trkpt>
      <trkpt lat="45.757124992087483" lon="7.162461234256625">
        <ele>2770.9699999999998</ele>
        <time>2022-03-27T11:34:45Z</time>
      </trkpt>
      <trkpt lat="45.757127506658435" lon="7.162460563704372">
        <ele>2770.3699999999999</ele>
        <time>2022-03-27T11:35:30Z</time>
      </trkpt>
      <trkpt lat="45.757131110876799" lon="7.162460731342435">
        <ele>2770.71</ele>
        <time>2022-03-27T11:36:12Z</time>
      </trkpt>
      <trkpt lat="45.757126500830054" lon="7.162460060790181">
        <ele>2770.3600000000001</ele>
        <time>2022-03-27T11:36:50Z</time>
      </trkpt>
      <trkpt lat="45.757129769772291" lon="7.162464167922735">
        <ele>2770.0100000000002</ele>
        <time>2022-03-27T11:37:25Z</time>
      </trkpt>
      <trkpt lat="45.75713362544775" lon="7.162458468228579">
        <ele>2770.4200000000001</ele>
        <time>2022-03-27T11:38:07Z</time>
      </trkpt>
      <trkpt lat="45.757131446152925" lon="7.162457294762135">
        <ele>2770.5500000000002</ele>
        <time>2022-03-27T11:38:54Z</time>
      </trkpt>
      <trkpt lat="45.757129015401006" lon="7.162457965314388">
        <ele>2770.25</ele>
        <time>2022-03-27T11:39:50Z</time>
      </trkpt>
      <trkpt lat="45.757131362333894" lon="7.162458887323737">
        <ele>2770.9000000000001</ele>
        <time>2022-03-27T11:40:35Z</time>
      </trkpt>
      <trkpt lat="45.757132703438401" lon="7.16245754621923">
        <ele>2770.8699999999999</ele>
        <time>2022-03-27T11:41:35Z</time>
      </trkpt>
      <trkpt lat="45.757133206352592" lon="7.162460396066308">
        <ele>2770.5999999999999</ele>
        <time>2022-03-27T11:42:17Z</time>
      </trkpt>
      <trkpt lat="45.75713261961937" lon="7.162450086325407">
        <ele>2771.2800000000002</ele>
        <time>2022-03-27T11:42:50Z</time>
      </trkpt>
      <trkpt lat="45.7571414206177" lon="7.162461401894689">
        <ele>2771.6100000000001</ele>
        <time>2022-03-27T11:43:13Z</time>
      </trkpt>
      <trkpt lat="45.757140330970287" lon="7.162458132952452">
        <ele>2770.8800000000001</ele>
        <time>2022-03-27T11:43:39Z</time>
      </trkpt>
      <trkpt lat="45.757144941017032" lon="7.162457965314388">
        <ele>2769.6100000000001</ele>
        <time>2022-03-27T11:43:41Z</time>
      </trkpt>
      <trkpt lat="45.757143767550588" lon="7.162459725514054">
        <ele>2771.1399999999999</ele>
        <time>2022-03-27T11:43:43Z</time>
      </trkpt>
      <trkpt lat="45.757142594084144" lon="7.162462072446942">
        <ele>2769.8699999999999</ele>
        <time>2022-03-27T11:43:46Z</time>
      </trkpt>
      <trkpt lat="45.757126668468118" lon="7.162465257570148">
        <ele>2770.52</ele>
        <time>2022-03-27T11:44:26Z</time>
      </trkpt>
      <trkpt lat="45.757125159725547" lon="7.16246148571372">
        <ele>2770.3000000000002</ele>
        <time>2022-03-27T11:45:07Z</time>
      </trkpt>
      <trkpt lat="45.757123818621039" lon="7.162457127124071">
        <ele>2770.6900000000001</ele>
        <time>2022-03-27T11:45:47Z</time>
      </trkpt>
      <trkpt lat="45.75712775811553" lon="7.162455534562469">
        <ele>2770.9899999999998</ele>
        <time>2022-03-27T11:46:27Z</time>
      </trkpt>
      <trkpt lat="45.757129937410355" lon="7.16245855204761">
        <ele>2771.21</ele>
        <time>2022-03-27T11:47:10Z</time>
      </trkpt>
      <trkpt lat="45.757128847762942" lon="7.162459641695023">
        <ele>2770.96</ele>
        <time>2022-03-27T11:47:49Z</time>
      </trkpt>
      <trkpt lat="45.757129183039069" lon="7.162460312247276">
        <ele>2771.21</ele>
        <time>2022-03-27T11:48:28Z</time>
      </trkpt>
      <trkpt lat="45.757133206352592" lon="7.162463581189513">
        <ele>2772.0500000000002</ele>
        <time>2022-03-27T11:48:41Z</time>
      </trkpt>
      <trkpt lat="45.757142510265112" lon="7.16246341355145">
        <ele>2771.8600000000001</ele>
        <time>2022-03-27T11:48:57Z</time>
      </trkpt>
      <trkpt lat="45.75715022161603" lon="7.162466766312718">
        <ele>2772.2399999999998</ele>
        <time>2022-03-27T11:49:15Z</time>
      </trkpt>
      <trkpt lat="45.757154496386647" lon="7.162463665008545">
        <ele>2772.25</ele>
        <time>2022-03-27T11:49:32Z</time>
      </trkpt>
      <trkpt lat="45.757155921310186" lon="7.162461653351784">
        <ele>2771.8299999999999</ele>
        <time>2022-03-27T11:49:50Z</time>
      </trkpt>
      <trkpt lat="45.757145276293159" lon="7.162466095760465">
        <ele>2772.2399999999998</ele>
        <time>2022-03-27T11:50:04Z</time>
      </trkpt>
      <trkpt lat="45.757141588255763" lon="7.162470035254955">
        <ele>2771.4400000000001</ele>
        <time>2022-03-27T11:50:23Z</time>
      </trkpt>
      <trkpt lat="45.757142929360271" lon="7.162473052740097">
        <ele>2772.1300000000001</ele>
        <time>2022-03-27T11:50:37Z</time>
      </trkpt>
      <trkpt lat="45.757140247151256" lon="7.162472885102034">
        <ele>2772.0300000000002</ele>
        <time>2022-03-27T11:50:56Z</time>
      </trkpt>
      <trkpt lat="45.757145779207349" lon="7.162468945607543">
        <ele>2772.02</ele>
        <time>2022-03-27T11:51:15Z</time>
      </trkpt>
      <trkpt lat="45.75713605619967" lon="7.162412200123072">
        <ele>2771.9099999999999</ele>
        <time>2022-03-27T11:51:30Z</time>
      </trkpt>
      <trkpt lat="45.757140582427382" lon="7.16230315156281">
        <ele>2772.5599999999999</ele>
        <time>2022-03-27T11:51:44Z</time>
      </trkpt>
      <trkpt lat="45.757147707045078" lon="7.162206005305052">
        <ele>2772.6500000000001</ele>
        <time>2022-03-27T11:51:56Z</time>
      </trkpt>
      <trkpt lat="45.757152903825045" lon="7.162111792713404">
        <ele>2773.6100000000001</ele>
        <time>2022-03-27T11:52:10Z</time>
      </trkpt>
      <trkpt lat="45.75713261961937" lon="7.162073906511068">
        <ele>2773.2199999999998</ele>
        <time>2022-03-27T11:52:14Z</time>
      </trkpt>
      <trkpt lat="45.757110742852092" lon="7.161911884322763">
        <ele>2771.8800000000001</ele>
        <time>2022-03-27T11:52:28Z</time>
      </trkpt>
      <trkpt lat="45.757074449211359" lon="7.16179302893579">
        <ele>2770.1100000000001</ele>
        <time>2022-03-27T11:52:41Z</time>
      </trkpt>
      <trkpt lat="45.757008148357272" lon="7.161770397797227">
        <ele>2767.02</ele>
        <time>2022-03-27T11:52:53Z</time>
      </trkpt>
      <trkpt lat="45.756933214142919" lon="7.161759166046977">
        <ele>2764.6100000000001</ele>
        <time>2022-03-27T11:53:05Z</time>
      </trkpt>
      <trkpt lat="45.756900357082486" lon="7.161728320643306">
        <ele>2765.98</ele>
        <time>2022-03-27T11:53:11Z</time>
      </trkpt>
      <trkpt lat="45.756884682923555" lon="7.161712059751153">
        <ele>2764.6300000000001</ele>
        <time>2022-03-27T11:53:14Z</time>
      </trkpt>
      <trkpt lat="45.756859285756946" lon="7.161681214347482">
        <ele>2762.23</ele>
        <time>2022-03-27T11:53:19Z</time>
      </trkpt>
      <trkpt lat="45.756799271330237" lon="7.161625223234296">
        <ele>2758.48</ele>
        <time>2022-03-27T11:53:30Z</time>
      </trkpt>
      <trkpt lat="45.756759373471141" lon="7.161578955128789">
        <ele>2759.0100000000002</ele>
        <time>2022-03-27T11:53:38Z</time>
      </trkpt>
      <trkpt lat="45.756737748160958" lon="7.161548947915435">
        <ele>2755.71</ele>
        <time>2022-03-27T11:53:42Z</time>
      </trkpt>
      <trkpt lat="45.756730958819389" lon="7.161543415859342">
        <ele>2755.6700000000001</ele>
        <time>2022-03-27T11:53:43Z</time>
      </trkpt>
      <trkpt lat="45.756716122850776" lon="7.161530172452331">
        <ele>2754.3299999999999</ele>
        <time>2022-03-27T11:53:45Z</time>
      </trkpt>
      <trkpt lat="45.756621994078159" lon="7.161494297906756">
        <ele>2751.75</ele>
        <time>2022-03-27T11:53:58Z</time>
      </trkpt>
      <trkpt lat="45.756582682952285" lon="7.161477534100413">
        <ele>2748.6199999999999</ele>
        <time>2022-03-27T11:54:05Z</time>
      </trkpt>
      <trkpt lat="45.756518477573991" lon="7.161430343985558">
        <ele>2747.8800000000001</ele>
        <time>2022-03-27T11:54:17Z</time>
      </trkpt>
      <trkpt lat="45.756500456482172" lon="7.161410395056009">
        <ele>2746.4000000000001</ele>
        <time>2022-03-27T11:54:21Z</time>
      </trkpt>
      <trkpt lat="45.756473382934928" lon="7.161384914070368">
        <ele>2744.6399999999999</ele>
        <time>2022-03-27T11:54:32Z</time>
      </trkpt>
      <trkpt lat="45.756466845050454" lon="7.161349961534143">
        <ele>2744.4699999999998</ele>
        <time>2022-03-27T11:54:46Z</time>
      </trkpt>
      <trkpt lat="45.756429210305214" lon="7.161236219108105">
        <ele>2741.1999999999998</ele>
        <time>2022-03-27T11:54:59Z</time>
      </trkpt>
      <trkpt lat="45.756411105394363" lon="7.161214342340827">
        <ele>2738.1399999999999</ele>
        <time>2022-03-27T11:55:03Z</time>
      </trkpt>
      <trkpt lat="45.756407333537936" lon="7.161207050085068">
        <ele>2737.8899999999999</ele>
        <time>2022-03-27T11:55:04Z</time>
      </trkpt>
      <trkpt lat="45.756374225020409" lon="7.161152064800263">
        <ele>2735.98</ele>
        <time>2022-03-27T11:55:13Z</time>
      </trkpt>
      <trkpt lat="45.756363328546286" lon="7.161158267408609">
        <ele>2734.4499999999998</ele>
        <time>2022-03-27T11:55:16Z</time>
      </trkpt>
      <trkpt lat="45.756333069875836" lon="7.161169415339828">
        <ele>2732.46</ele>
        <time>2022-03-27T11:55:29Z</time>
      </trkpt>
      <trkpt lat="45.75632737018168" lon="7.161169247701764">
        <ele>2732.3099999999999</ele>
        <time>2022-03-27T11:55:30Z</time>
      </trkpt>
      <trkpt lat="45.756275234743953" lon="7.161149382591248">
        <ele>2729.96</ele>
        <time>2022-03-27T11:55:41Z</time>
      </trkpt>
      <trkpt lat="45.756229972466826" lon="7.16112214140594">
        <ele>2728.0300000000002</ele>
        <time>2022-03-27T11:55:52Z</time>
      </trkpt>
      <trkpt lat="45.75620231218636" lon="7.161106634885073">
        <ele>2724.9400000000001</ele>
        <time>2022-03-27T11:55:56Z</time>
      </trkpt>
      <trkpt lat="45.756130982190371" lon="7.160993730649352">
        <ele>2722.77</ele>
        <time>2022-03-27T11:56:09Z</time>
      </trkpt>
      <trkpt lat="45.756093179807067" lon="7.160959951579571">
        <ele>2721.2600000000002</ele>
        <time>2022-03-27T11:56:14Z</time>
      </trkpt>
      <trkpt lat="45.756049007177353" lon="7.160872109234333">
        <ele>2719.6700000000001</ele>
        <time>2022-03-27T11:56:26Z</time>
      </trkpt>
      <trkpt lat="45.756038781255484" lon="7.160862889140844">
        <ele>2718.1700000000001</ele>
        <time>2022-03-27T11:56:41Z</time>
      </trkpt>
      <trkpt lat="45.75594138354063" lon="7.160685947164893">
        <ele>2716.0100000000002</ele>
        <time>2022-03-27T11:56:56Z</time>
      </trkpt>
      <trkpt lat="45.755889415740967" lon="7.16055971570313">
        <ele>2716.6700000000001</ele>
        <time>2022-03-27T11:57:09Z</time>
      </trkpt>
      <trkpt lat="45.755814649164677" lon="7.160415044054389">
        <ele>2716.6199999999999</ele>
        <time>2022-03-27T11:57:25Z</time>
      </trkpt>
      <trkpt lat="45.755772404372692" lon="7.160317730158567">
        <ele>2716.77</ele>
        <time>2022-03-27T11:57:39Z</time>
      </trkpt>
      <trkpt lat="45.755746504291892" lon="7.160245645791292">
        <ele>2717.9400000000001</ele>
        <time>2022-03-27T11:57:53Z</time>
      </trkpt>
      <trkpt lat="45.755716161802411" lon="7.160173645243049">
        <ele>2718.8099999999999</ele>
        <time>2022-03-27T11:58:06Z</time>
      </trkpt>
      <trkpt lat="45.755687160417438" lon="7.160120001062751">
        <ele>2718.79</ele>
        <time>2022-03-27T11:58:16Z</time>
      </trkpt>
      <trkpt lat="45.755648100748658" lon="7.160062920302153">
        <ele>2719.1199999999999</ele>
        <time>2022-03-27T11:58:28Z</time>
      </trkpt>
      <trkpt lat="45.755589930340648" lon="7.159981615841389">
        <ele>2719.3699999999999</ele>
        <time>2022-03-27T11:58:42Z</time>
      </trkpt>
      <trkpt lat="45.755503512918949" lon="7.159875920042396">
        <ele>2718.5799999999999</ele>
        <time>2022-03-27T11:58:57Z</time>
      </trkpt>
      <trkpt lat="45.755478702485561" lon="7.159825963899493">
        <ele>2720.77</ele>
        <time>2022-03-27T11:59:08Z</time>
      </trkpt>
      <trkpt lat="45.755471577867866" lon="7.159813391044736">
        <ele>2718.5100000000002</ele>
        <time>2022-03-27T11:59:18Z</time>
      </trkpt>
      <trkpt lat="45.755407372489572" lon="7.159732757136226">
        <ele>2720.6999999999998</ele>
        <time>2022-03-27T11:59:30Z</time>
      </trkpt>
      <trkpt lat="45.755356997251511" lon="7.159699816256762">
        <ele>2717.3600000000001</ele>
        <time>2022-03-27T11:59:38Z</time>
      </trkpt>
      <trkpt lat="45.755235543474555" lon="7.159626726061106">
        <ele>2715.0500000000002</ele>
        <time>2022-03-27T11:59:54Z</time>
      </trkpt>
      <trkpt lat="45.755153903737664" lon="7.15952530503273">
        <ele>2713.8000000000002</ele>
        <time>2022-03-27T12:00:10Z</time>
      </trkpt>
      <trkpt lat="45.755143761634827" lon="7.159512313082814">
        <ele>2713.23</ele>
        <time>2022-03-27T12:00:12Z</time>
      </trkpt>
      <trkpt lat="45.755109814926982" lon="7.15949303470552">
        <ele>2711.5799999999999</ele>
        <time>2022-03-27T12:00:16Z</time>
      </trkpt>
      <trkpt lat="45.755005460232496" lon="7.159452633932233">
        <ele>2707.48</ele>
        <time>2022-03-27T12:00:29Z</time>
      </trkpt>
      <trkpt lat="45.754995653405786" lon="7.159451376646757">
        <ele>2707.3000000000002</ele>
        <time>2022-03-27T12:00:30Z</time>
      </trkpt>
      <trkpt lat="45.754913510754704" lon="7.159411059692502">
        <ele>2704.0700000000002</ele>
        <time>2022-03-27T12:00:41Z</time>
      </trkpt>
      <trkpt lat="45.754897920414805" lon="7.159417262300849">
        <ele>2703.29</ele>
        <time>2022-03-27T12:00:43Z</time>
      </trkpt>
      <trkpt lat="45.754837235435843" lon="7.159448023885489">
        <ele>2700.8499999999999</ele>
        <time>2022-03-27T12:00:54Z</time>
      </trkpt>
      <trkpt lat="45.754783088341355" lon="7.159471325576305">
        <ele>2697.6500000000001</ele>
        <time>2022-03-27T12:01:02Z</time>
      </trkpt>
      <trkpt lat="45.754743358120322" lon="7.159490184858441">
        <ele>2695.6199999999999</ele>
        <time>2022-03-27T12:01:08Z</time>
      </trkpt>
      <trkpt lat="45.754657695069909" lon="7.159471660852432">
        <ele>2692.0999999999999</ele>
        <time>2022-03-27T12:01:22Z</time>
      </trkpt>
      <trkpt lat="45.754651492461562" lon="7.159473672509193">
        <ele>2692.1100000000001</ele>
        <time>2022-03-27T12:01:23Z</time>
      </trkpt>
      <trkpt lat="45.754601117223501" lon="7.159468559548259">
        <ele>2688.9099999999999</ele>
        <time>2022-03-27T12:01:32Z</time>
      </trkpt>
      <trkpt lat="45.754529116675258" lon="7.159478953108192">
        <ele>2686.5100000000002</ele>
        <time>2022-03-27T12:01:43Z</time>
      </trkpt>
      <trkpt lat="45.754471700638533" lon="7.159478953108192">
        <ele>2683.21</ele>
        <time>2022-03-27T12:01:52Z</time>
      </trkpt>
      <trkpt lat="45.754462815821171" lon="7.159475516527891">
        <ele>2682.7800000000002</ele>
        <time>2022-03-27T12:01:53Z</time>
      </trkpt>
      <trkpt lat="45.754379583522677" lon="7.159436540678144">
        <ele>2679.73</ele>
        <time>2022-03-27T12:02:04Z</time>
      </trkpt>
      <trkpt lat="45.754336919635534" lon="7.159443581476808">
        <ele>2676.6700000000001</ele>
        <time>2022-03-27T12:02:11Z</time>
      </trkpt>
      <trkpt lat="45.75427564792335" lon="7.159461518749595">
        <ele>2673.6199999999999</ele>
        <time>2022-03-27T12:02:20Z</time>
      </trkpt>
      <trkpt lat="45.754252346232533" lon="7.159466883167625">
        <ele>2672.6999999999998</ele>
        <time>2022-03-27T12:02:23Z</time>
      </trkpt>
      <trkpt lat="45.754172718152404" lon="7.159524718299508">
        <ele>2669.6300000000001</ele>
        <time>2022-03-27T12:02:35Z</time>
      </trkpt>
      <trkpt lat="45.754092670977116" lon="7.159535195678473">
        <ele>2666.8699999999999</ele>
        <time>2022-03-27T12:02:46Z</time>
      </trkpt>
      <trkpt lat="45.754015306010842" lon="7.15952287428081">
        <ele>2663.73</ele>
        <time>2022-03-27T12:02:59Z</time>
      </trkpt>
      <trkpt lat="45.753999296575785" lon="7.15953310020268">
        <ele>2662.8099999999999</ele>
        <time>2022-03-27T12:03:01Z</time>
      </trkpt>
      <trkpt lat="45.753931906074286" lon="7.159542571753264">
        <ele>2659.6700000000001</ele>
        <time>2022-03-27T12:03:09Z</time>
      </trkpt>
      <trkpt lat="45.753926541656256" lon="7.15954483486712">
        <ele>2659.5900000000001</ele>
        <time>2022-03-27T12:03:10Z</time>
      </trkpt>
      <trkpt lat="45.753837693482637" lon="7.159510217607021">
        <ele>2657.9699999999998</ele>
        <time>2022-03-27T12:03:23Z</time>
      </trkpt>
      <trkpt lat="45.75377969071269" lon="7.159494627267122">
        <ele>2654.6399999999999</ele>
        <time>2022-03-27T12:03:32Z</time>
      </trkpt>
      <trkpt lat="45.753753706812859" lon="7.15949940495193">
        <ele>2654.0900000000001</ele>
        <time>2022-03-27T12:03:35Z</time>
      </trkpt>
      <trkpt lat="45.753671564161777" lon="7.159516084939241">
        <ele>2652.6199999999999</ele>
        <time>2022-03-27T12:03:46Z</time>
      </trkpt>
      <trkpt lat="45.753606939688325" lon="7.159507451578975">
        <ele>2650.6700000000001</ele>
        <time>2022-03-27T12:03:59Z</time>
      </trkpt>
      <trkpt lat="45.753583302721381" lon="7.159517509862781">
        <ele>2647.4299999999998</ele>
        <time>2022-03-27T12:04:04Z</time>
      </trkpt>
      <trkpt lat="45.753547511994839" lon="7.159558832645416">
        <ele>2644.3099999999999</ele>
        <time>2022-03-27T12:04:11Z</time>
      </trkpt>
      <trkpt lat="45.753526808694005" lon="7.159544583410025">
        <ele>2644.1999999999998</ele>
        <time>2022-03-27T12:04:15Z</time>
      </trkpt>
      <trkpt lat="45.753536028787494" lon="7.159460764378309">
        <ele>2645.4899999999998</ele>
        <time>2022-03-27T12:04:26Z</time>
      </trkpt>
      <trkpt lat="45.753531334921718" lon="7.159447520971298">
        <ele>2644.4400000000001</ele>
        <time>2022-03-27T12:04:39Z</time>
      </trkpt>
      <trkpt lat="45.753528065979481" lon="7.159441653639078">
        <ele>2644.1999999999998</ele>
        <time>2022-03-27T12:05:09Z</time>
      </trkpt>
      <trkpt lat="45.753537202253938" lon="7.159423464909196">
        <ele>2644.79</ele>
        <time>2022-03-27T12:05:59Z</time>
      </trkpt>
      <trkpt lat="45.753556815907359" lon="7.159440061077476">
        <ele>2644.4899999999998</ele>
        <time>2022-03-27T12:06:25Z</time>
      </trkpt>
      <trkpt lat="45.753552708774805" lon="7.159429751336575">
        <ele>2643.52</ele>
        <time>2022-03-27T12:06:43Z</time>
      </trkpt>
      <trkpt lat="45.753556396812201" lon="7.159436959773302">
        <ele>2643.77</ele>
        <time>2022-03-27T12:07:07Z</time>
      </trkpt>
      <trkpt lat="45.75356469489634" lon="7.159435953944922">
        <ele>2642.54</ele>
        <time>2022-03-27T12:07:31Z</time>
      </trkpt>
      <trkpt lat="45.753563102334738" lon="7.159438133239746">
        <ele>2639.1500000000001</ele>
        <time>2022-03-27T12:07:32Z</time>
      </trkpt>
      <trkpt lat="45.753563186153769" lon="7.159436121582985">
        <ele>2644.0700000000002</ele>
        <time>2022-03-27T12:07:33Z</time>
      </trkpt>
      <trkpt lat="45.753536783158779" lon="7.159419693052769">
        <ele>2645.75</ele>
        <time>2022-03-27T12:07:55Z</time>
      </trkpt>
      <trkpt lat="45.753532508388162" lon="7.159417346119881">
        <ele>2644.1599999999999</ele>
        <time>2022-03-27T12:07:58Z</time>
      </trkpt>
      <trkpt lat="45.753525970503688" lon="7.159414580091834">
        <ele>2635.3299999999999</ele>
        <time>2022-03-27T12:08:08Z</time>
      </trkpt>
      <trkpt lat="45.753525383770466" lon="7.159413825720549">
        <ele>2635.7600000000002</ele>
        <time>2022-03-27T12:08:09Z</time>
      </trkpt>
      <trkpt lat="45.753527311608195" lon="7.159411730244756">
        <ele>2641.75</ele>
        <time>2022-03-27T12:08:10Z</time>
      </trkpt>
      <trkpt lat="45.753527395427227" lon="7.159411562606692">
        <ele>2655.1599999999999</ele>
        <time>2022-03-27T12:08:11Z</time>
      </trkpt>
      <trkpt lat="45.753529826179147" lon="7.159411814063788">
        <ele>2648.6399999999999</ele>
        <time>2022-03-27T12:08:12Z</time>
      </trkpt>
      <trkpt lat="45.753528820350766" lon="7.159411394968629">
        <ele>2643.9400000000001</ele>
        <time>2022-03-27T12:08:14Z</time>
      </trkpt>
      <trkpt lat="45.753529658541083" lon="7.159409634768963">
        <ele>2644.5900000000001</ele>
        <time>2022-03-27T12:08:15Z</time>
      </trkpt>
      <trkpt lat="45.753529742360115" lon="7.15940703637898">
        <ele>2644.3200000000002</ele>
        <time>2022-03-27T12:08:19Z</time>
      </trkpt>
      <trkpt lat="45.753536699339747" lon="7.159420950338244">
        <ele>2644.5999999999999</ele>
        <time>2022-03-27T12:08:40Z</time>
      </trkpt>
      <trkpt lat="45.753520941361785" lon="7.159423632547259">
        <ele>2644.73</ele>
        <time>2022-03-27T12:09:20Z</time>
      </trkpt>
      <trkpt lat="45.753515576943755" lon="7.159424303099513">
        <ele>2644.73</ele>
        <time>2022-03-27T12:09:50Z</time>
      </trkpt>
      <trkpt lat="45.753519767895341" lon="7.159434193745256">
        <ele>2645.8400000000001</ele>
        <time>2022-03-27T12:10:22Z</time>
      </trkpt>
      <trkpt lat="45.753508619964123" lon="7.159440144896507">
        <ele>2646.0999999999999</ele>
        <time>2022-03-27T12:10:38Z</time>
      </trkpt>
      <trkpt lat="45.753504848107696" lon="7.159440144896507">
        <ele>2645.6999999999998</ele>
        <time>2022-03-27T12:10:58Z</time>
      </trkpt>
      <trkpt lat="45.753465620800853" lon="7.159422626718879">
        <ele>2644.0599999999999</ele>
        <time>2022-03-27T12:11:08Z</time>
      </trkpt>
      <trkpt lat="45.753383561968803" lon="7.159404270350933">
        <ele>2640.8200000000002</ele>
        <time>2022-03-27T12:11:19Z</time>
      </trkpt>
      <trkpt lat="45.753335366025567" lon="7.159396559000015">
        <ele>2638.1199999999999</ele>
        <time>2022-03-27T12:11:26Z</time>
      </trkpt>
      <trkpt lat="45.753300497308373" lon="7.159327324479818">
        <ele>2635.8499999999999</ele>
        <time>2022-03-27T12:11:34Z</time>
      </trkpt>
      <trkpt lat="45.753248948603868" lon="7.159296227619052">
        <ele>2633.23</ele>
        <time>2022-03-27T12:11:41Z</time>
      </trkpt>
      <trkpt lat="45.753170745447278" lon="7.159286420792341">
        <ele>2630.5900000000001</ele>
        <time>2022-03-27T12:11:51Z</time>
      </trkpt>
      <trkpt lat="45.753081142902374" lon="7.159254653379321">
        <ele>2628.2199999999998</ele>
        <time>2022-03-27T12:12:03Z</time>
      </trkpt>
      <trkpt lat="45.753065971657634" lon="7.159224562346935">
        <ele>2626.52</ele>
        <time>2022-03-27T12:12:15Z</time>
      </trkpt>
      <trkpt lat="45.753064462915063" lon="7.159224478527904">
        <ele>2627.46</ele>
        <time>2022-03-27T12:12:41Z</time>
      </trkpt>
      <trkpt lat="45.75306287035346" lon="7.159221712499857">
        <ele>2627.3000000000002</ele>
        <time>2022-03-27T12:12:57Z</time>
      </trkpt>
      <trkpt lat="45.753060355782509" lon="7.159221628680825">
        <ele>2627.4899999999998</ele>
        <time>2022-03-27T12:12:58Z</time>
      </trkpt>
      <trkpt lat="45.753014087677002" lon="7.159203439950943">
        <ele>2624.2600000000002</ele>
        <time>2022-03-27T12:13:05Z</time>
      </trkpt>
      <trkpt lat="45.752995228394866" lon="7.159205870702863">
        <ele>2623.25</ele>
        <time>2022-03-27T12:13:07Z</time>
      </trkpt>
      <trkpt lat="45.752880061045289" lon="7.159232441335917">
        <ele>2619.75</ele>
        <time>2022-03-27T12:13:17Z</time>
      </trkpt>
      <trkpt lat="45.752832619473338" lon="7.159263622015715">
        <ele>2617.79</ele>
        <time>2022-03-27T12:13:21Z</time>
      </trkpt>
      <trkpt lat="45.752772688865662" lon="7.159262113273144">
        <ele>2615.79</ele>
        <time>2022-03-27T12:13:26Z</time>
      </trkpt>
      <trkpt lat="45.752663807943463" lon="7.159319194033742">
        <ele>2612.8800000000001</ele>
        <time>2022-03-27T12:13:36Z</time>
      </trkpt>
      <trkpt lat="45.752549897879362" lon="7.159306621178985">
        <ele>2608.77</ele>
        <time>2022-03-27T12:13:47Z</time>
      </trkpt>
      <trkpt lat="45.752544784918427" lon="7.159312153235078">
        <ele>2608.1799999999998</ele>
        <time>2022-03-27T12:13:48Z</time>
      </trkpt>
      <trkpt lat="45.752516621723771" lon="7.15933813713491">
        <ele>2605.8899999999999</ele>
        <time>2022-03-27T12:13:52Z</time>
      </trkpt>
      <trkpt lat="45.752510000020266" lon="7.159346602857113">
        <ele>2605.6199999999999</ele>
        <time>2022-03-27T12:13:53Z</time>
      </trkpt>
      <trkpt lat="45.752490302547812" lon="7.159394547343254">
        <ele>2603.6999999999998</ele>
        <time>2022-03-27T12:13:57Z</time>
      </trkpt>
      <trkpt lat="45.752478400245309" lon="7.159427739679813">
        <ele>2604.8699999999999</ele>
        <time>2022-03-27T12:14:04Z</time>
      </trkpt>
      <trkpt lat="45.752453254535794" lon="7.159515079110861">
        <ele>2603.1199999999999</ele>
        <time>2022-03-27T12:14:14Z</time>
      </trkpt>
      <trkpt lat="45.75242911465466" lon="7.159608034417033">
        <ele>2602.9200000000001</ele>
        <time>2022-03-27T12:14:26Z</time>
      </trkpt>
      <trkpt lat="45.75242861174047" lon="7.159606441855431">
        <ele>2602.7399999999998</ele>
        <time>2022-03-27T12:14:48Z</time>
      </trkpt>
      <trkpt lat="45.752426013350487" lon="7.159607196226716">
        <ele>2603.9899999999998</ele>
        <time>2022-03-27T12:14:54Z</time>
      </trkpt>
      <trkpt lat="45.752417715266347" lon="7.159634185954928">
        <ele>2601.7600000000002</ele>
        <time>2022-03-27T12:14:58Z</time>
      </trkpt>
      <trkpt lat="45.752354599535465" lon="7.159655308350921">
        <ele>2600.3899999999999</ele>
        <time>2022-03-27T12:15:08Z</time>
      </trkpt>
      <trkpt lat="45.752331465482712" lon="7.159664276987314">
        <ele>2599.2399999999998</ele>
        <time>2022-03-27T12:15:11Z</time>
      </trkpt>
      <trkpt lat="45.752270026132464" lon="7.159646842628717">
        <ele>2595.8299999999999</ele>
        <time>2022-03-27T12:15:17Z</time>
      </trkpt>
      <trkpt lat="45.752254854887724" lon="7.159646507352591">
        <ele>2594.48</ele>
        <time>2022-03-27T12:15:19Z</time>
      </trkpt>
      <trkpt lat="45.752238342538476" lon="7.159666204825044">
        <ele>2593.0100000000002</ele>
        <time>2022-03-27T12:15:21Z</time>
      </trkpt>
      <trkpt lat="45.75221898034215" lon="7.159676011651754">
        <ele>2592.2600000000002</ele>
        <time>2022-03-27T12:15:23Z</time>
      </trkpt>
      <trkpt lat="45.752189140766859" lon="7.159688584506512">
        <ele>2590.23</ele>
        <time>2022-03-27T12:15:27Z</time>
      </trkpt>
      <trkpt lat="45.752158630639315" lon="7.159708198159933">
        <ele>2588.5100000000002</ele>
        <time>2022-03-27T12:15:30Z</time>
      </trkpt>
      <trkpt lat="45.752132060006261" lon="7.159734768792987">
        <ele>2586.5900000000001</ele>
        <time>2022-03-27T12:15:34Z</time>
      </trkpt>
      <trkpt lat="45.752091994509101" lon="7.159716999158263">
        <ele>2585.7600000000002</ele>
        <time>2022-03-27T12:15:39Z</time>
      </trkpt>
      <trkpt lat="45.751980599015951" lon="7.15972613543272">
        <ele>2581.1900000000001</ele>
        <time>2022-03-27T12:15:50Z</time>
      </trkpt>
      <trkpt lat="45.751954866573215" lon="7.159728733822703">
        <ele>2584.3299999999999</ele>
        <time>2022-03-27T12:15:55Z</time>
      </trkpt>
      <trkpt lat="45.751939527690411" lon="7.159739714115858">
        <ele>2583.4200000000001</ele>
        <time>2022-03-27T12:16:04Z</time>
      </trkpt>
      <trkpt lat="45.751928798854351" lon="7.15974080376327">
        <ele>2580.2600000000002</ele>
        <time>2022-03-27T12:16:06Z</time>
      </trkpt>
      <trkpt lat="45.75190139003098" lon="7.159736528992653">
        <ele>2579.0700000000002</ele>
        <time>2022-03-27T12:16:09Z</time>
      </trkpt>
      <trkpt lat="45.751835592091084" lon="7.159764021635056">
        <ele>2576.8200000000002</ele>
        <time>2022-03-27T12:16:16Z</time>
      </trkpt>
      <trkpt lat="45.751791168004274" lon="7.159887319430709">
        <ele>2575.8099999999999</ele>
        <time>2022-03-27T12:16:26Z</time>
      </trkpt>
      <trkpt lat="45.751756131649017" lon="7.159930989146233">
        <ele>2571.3499999999999</ele>
        <time>2022-03-27T12:16:31Z</time>
      </trkpt>
      <trkpt lat="45.751743139699101" lon="7.159951608628035">
        <ele>2570.5100000000002</ele>
        <time>2022-03-27T12:16:33Z</time>
      </trkpt>
      <trkpt lat="45.751702906563878" lon="7.160004749894142">
        <ele>2567.4200000000001</ele>
        <time>2022-03-27T12:16:41Z</time>
      </trkpt>
      <trkpt lat="45.751655464991927" lon="7.160048000514507">
        <ele>2565.1300000000001</ele>
        <time>2022-03-27T12:16:50Z</time>
      </trkpt>
      <trkpt lat="45.751637360081077" lon="7.16007205657661">
        <ele>2563.5999999999999</ele>
        <time>2022-03-27T12:16:53Z</time>
      </trkpt>
      <trkpt lat="45.751606430858374" lon="7.16008722782135">
        <ele>2564.9400000000001</ele>
        <time>2022-03-27T12:16:57Z</time>
      </trkpt>
      <trkpt lat="45.751571729779243" lon="7.160102566704154">
        <ele>2561.4099999999999</ele>
        <time>2022-03-27T12:17:01Z</time>
      </trkpt>
      <trkpt lat="45.751563766971231" lon="7.160105919465423">
        <ele>2561.25</ele>
        <time>2022-03-27T12:17:02Z</time>
      </trkpt>
      <trkpt lat="45.751483468338847" lon="7.16018152423203">
        <ele>2557.4899999999998</ele>
        <time>2022-03-27T12:17:13Z</time>
      </trkpt>
      <trkpt lat="45.75147190131247" lon="7.160197533667088">
        <ele>2556.6999999999998</ele>
        <time>2022-03-27T12:17:15Z</time>
      </trkpt>
      <trkpt lat="45.751418424770236" lon="7.16027389280498">
        <ele>2554.9699999999998</ele>
        <time>2022-03-27T12:17:30Z</time>
      </trkpt>
      <trkpt lat="45.751394033432007" lon="7.160295350477099">
        <ele>2553.1399999999999</ele>
        <time>2022-03-27T12:17:44Z</time>
      </trkpt>
      <trkpt lat="45.751394117251039" lon="7.160294596105814">
        <ele>2552.5100000000002</ele>
        <time>2022-03-27T12:17:55Z</time>
      </trkpt>
      <trkpt lat="45.751379448920488" lon="7.160299038514495">
        <ele>2552.0999999999999</ele>
        <time>2022-03-27T12:18:04Z</time>
      </trkpt>
      <trkpt lat="45.751317758113146" lon="7.160269785672426">
        <ele>2550.3499999999999</ele>
        <time>2022-03-27T12:18:13Z</time>
      </trkpt>
      <trkpt lat="45.751248355954885" lon="7.160227205604315">
        <ele>2549.3200000000002</ele>
        <time>2022-03-27T12:18:21Z</time>
      </trkpt>
      <trkpt lat="45.751188844442368" lon="7.160206250846386">
        <ele>2545.9699999999998</ele>
        <time>2022-03-27T12:18:28Z</time>
      </trkpt>
      <trkpt lat="45.75115037150681" lon="7.160204825922847">
        <ele>2543.9899999999998</ele>
        <time>2022-03-27T12:18:33Z</time>
      </trkpt>
      <trkpt lat="45.751123800873756" lon="7.160218907520175">
        <ele>2541.96</ele>
        <time>2022-03-27T12:18:37Z</time>
      </trkpt>
      <trkpt lat="45.751053979620337" lon="7.160285711288452">
        <ele>2538.25</ele>
        <time>2022-03-27T12:18:46Z</time>
      </trkpt>
      <trkpt lat="45.751021541655064" lon="7.160294596105814">
        <ele>2536.3400000000001</ele>
        <time>2022-03-27T12:18:50Z</time>
      </trkpt>
      <trkpt lat="45.750961024314165" lon="7.160288225859404">
        <ele>2532.8600000000001</ele>
        <time>2022-03-27T12:18:58Z</time>
      </trkpt>
      <trkpt lat="45.75094124302268" lon="7.16028411872685">
        <ele>2531.9699999999998</ele>
        <time>2022-03-27T12:19:00Z</time>
      </trkpt>
      <trkpt lat="45.750899668782949" lon="7.160286800935864">
        <ele>2531.4899999999998</ele>
        <time>2022-03-27T12:19:12Z</time>
      </trkpt>
      <trkpt lat="45.750841414555907" lon="7.160281352698803">
        <ele>2532.23</ele>
        <time>2022-03-27T12:19:22Z</time>
      </trkpt>
      <trkpt lat="45.750833954662085" lon="7.160290572792292">
        <ele>2526.75</ele>
        <time>2022-03-27T12:19:24Z</time>
      </trkpt>
      <trkpt lat="45.750820292159915" lon="7.160303564742208">
        <ele>2524.54</ele>
        <time>2022-03-27T12:19:26Z</time>
      </trkpt>
      <trkpt lat="45.750754661858082" lon="7.160343127325177">
        <ele>2521.5100000000002</ele>
        <time>2022-03-27T12:19:36Z</time>
      </trkpt>
      <trkpt lat="45.750692803412676" lon="7.160402219742537">
        <ele>2518.3099999999999</ele>
        <time>2022-03-27T12:19:46Z</time>
      </trkpt>
      <trkpt lat="45.75066271238029" lon="7.160449242219329">
        <ele>2516.1599999999999</ele>
        <time>2022-03-27T12:19:52Z</time>
      </trkpt>
      <trkpt lat="45.750653743743896" lon="7.160536916926503">
        <ele>2513.9200000000001</ele>
        <time>2022-03-27T12:20:03Z</time>
      </trkpt>
      <trkpt lat="45.750651312991977" lon="7.160661472007632">
        <ele>2510.5300000000002</ele>
        <time>2022-03-27T12:20:17Z</time>
      </trkpt>
      <trkpt lat="45.750649385154247" lon="7.160678487271071">
        <ele>2509.5300000000002</ele>
        <time>2022-03-27T12:20:19Z</time>
      </trkpt>
      <trkpt lat="45.750641254708171" lon="7.160757947713137">
        <ele>2508.0900000000001</ele>
        <time>2022-03-27T12:20:29Z</time>
      </trkpt>
      <trkpt lat="45.750626754015684" lon="7.160828942433">
        <ele>2506.6300000000001</ele>
        <time>2022-03-27T12:20:38Z</time>
      </trkpt>
      <trkpt lat="45.750604458153248" lon="7.160922065377235">
        <ele>2503.2199999999998</ele>
        <time>2022-03-27T12:20:47Z</time>
      </trkpt>
      <trkpt lat="45.750558441504836" lon="7.160981660708785">
        <ele>2499.9899999999998</ele>
        <time>2022-03-27T12:20:56Z</time>
      </trkpt>
      <trkpt lat="45.75053664855659" lon="7.161015272140503">
        <ele>2499.0500000000002</ele>
        <time>2022-03-27T12:21:08Z</time>
      </trkpt>
      <trkpt lat="45.750496331602335" lon="7.161131193861365">
        <ele>2496.2199999999998</ele>
        <time>2022-03-27T12:21:20Z</time>
      </trkpt>
      <trkpt lat="45.750465234741569" lon="7.16125650331378">
        <ele>2493.1300000000001</ele>
        <time>2022-03-27T12:21:32Z</time>
      </trkpt>
      <trkpt lat="45.750434389337897" lon="7.161313416436315">
        <ele>2492.0599999999999</ele>
        <time>2022-03-27T12:21:38Z</time>
      </trkpt>
      <trkpt lat="45.750380409881473" lon="7.161458088085055">
        <ele>2488.5799999999999</ele>
        <time>2022-03-27T12:21:51Z</time>
      </trkpt>
      <trkpt lat="45.750373117625713" lon="7.161485496908426">
        <ele>2487.7199999999998</ele>
        <time>2022-03-27T12:21:53Z</time>
      </trkpt>
      <trkpt lat="45.750353923067451" lon="7.161568813025951">
        <ele>2485.8800000000001</ele>
        <time>2022-03-27T12:22:00Z</time>
      </trkpt>
      <trkpt lat="45.750314025208354" lon="7.161648189648986">
        <ele>2482.73</ele>
        <time>2022-03-27T12:22:08Z</time>
      </trkpt>
      <trkpt lat="45.750226015225053" lon="7.161701330915093">
        <ele>2479.71</ele>
        <time>2022-03-27T12:22:19Z</time>
      </trkpt>
      <trkpt lat="45.750127946957946" lon="7.161678867414594">
        <ele>2476.5999999999999</ele>
        <time>2022-03-27T12:22:30Z</time>
      </trkpt>
      <trkpt lat="45.750093748793006" lon="7.161681801080704">
        <ele>2475.6100000000001</ele>
        <time>2022-03-27T12:22:34Z</time>
      </trkpt>
      <trkpt lat="45.749968439340591" lon="7.161659756675363">
        <ele>2472.25</ele>
        <time>2022-03-27T12:22:48Z</time>
      </trkpt>
      <trkpt lat="45.749882608652115" lon="7.16160343028605">
        <ele>2470.3299999999999</ele>
        <time>2022-03-27T12:22:57Z</time>
      </trkpt>
      <trkpt lat="45.749817062169313" lon="7.161595299839973">
        <ele>2466.6599999999999</ele>
        <time>2022-03-27T12:23:04Z</time>
      </trkpt>
      <trkpt lat="45.749779175966978" lon="7.161625642329454">
        <ele>2465.27</ele>
        <time>2022-03-27T12:23:10Z</time>
      </trkpt>
      <trkpt lat="45.749670546501875" lon="7.161696385592222">
        <ele>2462.0799999999999</ele>
        <time>2022-03-27T12:23:24Z</time>
      </trkpt>
      <trkpt lat="45.749607179313898" lon="7.161762434989214">
        <ele>2458.9400000000001</ele>
        <time>2022-03-27T12:23:33Z</time>
      </trkpt>
      <trkpt lat="45.749582117423415" lon="7.161795040592551">
        <ele>2458.9299999999998</ele>
        <time>2022-03-27T12:23:38Z</time>
      </trkpt>
      <trkpt lat="45.749524114653468" lon="7.161827562376857">
        <ele>2455.5</ele>
        <time>2022-03-27T12:23:45Z</time>
      </trkpt>
      <trkpt lat="45.749426046386361" lon="7.16185798868537">
        <ele>2452.3200000000002</ele>
        <time>2022-03-27T12:23:58Z</time>
      </trkpt>
      <trkpt lat="45.749417413026094" lon="7.161859413608909">
        <ele>2452.0500000000002</ele>
        <time>2022-03-27T12:23:59Z</time>
      </trkpt>
      <trkpt lat="45.749354297295213" lon="7.161931497976184">
        <ele>2448.9099999999999</ele>
        <time>2022-03-27T12:24:12Z</time>
      </trkpt>
      <trkpt lat="45.749298222362995" lon="7.1619669534266">
        <ele>2445.8000000000002</ele>
        <time>2022-03-27T12:24:21Z</time>
      </trkpt>
      <trkpt lat="45.749293696135283" lon="7.161972485482693">
        <ele>2445.6199999999999</ele>
        <time>2022-03-27T12:24:22Z</time>
      </trkpt>
      <trkpt lat="45.749274417757988" lon="7.162028728052974">
        <ele>2443.7199999999998</ele>
        <time>2022-03-27T12:24:31Z</time>
      </trkpt>
      <trkpt lat="45.749275591224432" lon="7.162015568464994">
        <ele>2443.96</ele>
        <time>2022-03-27T12:24:45Z</time>
      </trkpt>
      <trkpt lat="45.749267125502229" lon="7.162012131884694">
        <ele>2443.8099999999999</ele>
        <time>2022-03-27T12:25:01Z</time>
      </trkpt>
      <trkpt lat="45.749263437464833" lon="7.162014143541455">
        <ele>2444.1799999999998</ele>
        <time>2022-03-27T12:25:24Z</time>
      </trkpt>
      <trkpt lat="45.749262850731611" lon="7.162015652284026">
        <ele>2443.5599999999999</ele>
        <time>2022-03-27T12:25:42Z</time>
      </trkpt>
      <trkpt lat="45.749253714457154" lon="7.16201975941658">
        <ele>2443.29</ele>
        <time>2022-03-27T12:25:58Z</time>
      </trkpt>
      <trkpt lat="45.749251954257488" lon="7.162022273987532">
        <ele>2443.1700000000001</ele>
        <time>2022-03-27T12:26:15Z</time>
      </trkpt>
      <trkpt lat="45.749234771355987" lon="7.162100728601217">
        <ele>2441.1199999999999</ele>
        <time>2022-03-27T12:26:27Z</time>
      </trkpt>
      <trkpt lat="45.749193783849478" lon="7.162193767726421">
        <ele>2437.8499999999999</ele>
        <time>2022-03-27T12:26:39Z</time>
      </trkpt>
      <trkpt lat="45.749151539057493" lon="7.162258978933096">
        <ele>2435.0100000000002</ele>
        <time>2022-03-27T12:26:50Z</time>
      </trkpt>
      <trkpt lat="45.749117424711585" lon="7.162318490445614">
        <ele>2432.73</ele>
        <time>2022-03-27T12:27:01Z</time>
      </trkpt>
      <trkpt lat="45.749085741117597" lon="7.162367859855294">
        <ele>2431.77</ele>
        <time>2022-03-27T12:27:07Z</time>
      </trkpt>
      <trkpt lat="45.74902287684381" lon="7.162436675280333">
        <ele>2430.0100000000002</ele>
        <time>2022-03-27T12:27:19Z</time>
      </trkpt>
      <trkpt lat="45.749021787196398" lon="7.162438854575157">
        <ele>2429.71</ele>
        <time>2022-03-27T12:27:32Z</time>
      </trkpt>
      <trkpt lat="45.749020026996732" lon="7.16244095005095">
        <ele>2429.8499999999999</ele>
        <time>2022-03-27T12:27:55Z</time>
      </trkpt>
      <trkpt lat="45.74901751242578" lon="7.162448409944773">
        <ele>2430.0799999999999</ele>
        <time>2022-03-27T12:28:12Z</time>
      </trkpt>
      <trkpt lat="45.74901114217937" lon="7.162449331954122">
        <ele>2429.8400000000001</ele>
        <time>2022-03-27T12:28:28Z</time>
      </trkpt>
      <trkpt lat="45.749010723084211" lon="7.162441620603204">
        <ele>2430.46</ele>
        <time>2022-03-27T12:28:43Z</time>
      </trkpt>
      <trkpt lat="45.749011058360338" lon="7.16243801638484">
        <ele>2430.4000000000001</ele>
        <time>2022-03-27T12:28:58Z</time>
      </trkpt>
      <trkpt lat="45.749010555446148" lon="7.162541784346104">
        <ele>2429.29</ele>
        <time>2022-03-27T12:29:10Z</time>
      </trkpt>
      <trkpt lat="45.749057326465845" lon="7.162566930055618">
        <ele>2429.4000000000001</ele>
        <time>2022-03-27T12:29:16Z</time>
      </trkpt>
      <trkpt lat="45.749074257910252" lon="7.162598948925734">
        <ele>2428.5999999999999</ele>
        <time>2022-03-27T12:29:19Z</time>
      </trkpt>
      <trkpt lat="45.749124884605408" lon="7.162743285298348">
        <ele>2426.3699999999999</ele>
        <time>2022-03-27T12:29:32Z</time>
      </trkpt>
      <trkpt lat="45.749150617048144" lon="7.162819309160113">
        <ele>2424.8800000000001</ele>
        <time>2022-03-27T12:29:42Z</time>
      </trkpt>
      <trkpt lat="45.749170146882534" lon="7.162903882563114">
        <ele>2424.96</ele>
        <time>2022-03-27T12:29:55Z</time>
      </trkpt>
      <trkpt lat="45.749179199337959" lon="7.162931794300675">
        <ele>2425.29</ele>
        <time>2022-03-27T12:30:07Z</time>
      </trkpt>
      <trkpt lat="45.749200489372015" lon="7.162962472066283">
        <ele>2425.1300000000001</ele>
        <time>2022-03-27T12:30:21Z</time>
      </trkpt>
      <trkpt lat="45.749243907630444" lon="7.163030365481973">
        <ele>2424.2800000000002</ele>
        <time>2022-03-27T12:30:32Z</time>
      </trkpt>
      <trkpt lat="45.749277686700225" lon="7.163128349930048">
        <ele>2424.4400000000001</ele>
        <time>2022-03-27T12:30:46Z</time>
      </trkpt>
      <trkpt lat="45.749246589839458" lon="7.163164643570781">
        <ele>2425.2199999999998</ele>
        <time>2022-03-27T12:30:58Z</time>
      </trkpt>
      <trkpt lat="45.749226724728942" lon="7.163207642734051">
        <ele>2425.3200000000002</ele>
        <time>2022-03-27T12:31:09Z</time>
      </trkpt>
      <trkpt lat="45.749223455786705" lon="7.163208397105336">
        <ele>2423.6700000000001</ele>
        <time>2022-03-27T12:31:13Z</time>
      </trkpt>
      <trkpt lat="45.749221779406071" lon="7.163202445954084">
        <ele>2423.73</ele>
        <time>2022-03-27T12:31:41Z</time>
      </trkpt>
      <trkpt lat="45.74921247549355" lon="7.163211582228541">
        <ele>2423.71</ele>
        <time>2022-03-27T12:32:10Z</time>
      </trkpt>
      <trkpt lat="45.749213146045804" lon="7.163216862827539">
        <ele>2423.4899999999998</ele>
        <time>2022-03-27T12:33:02Z</time>
      </trkpt>
      <trkpt lat="45.749215744435787" lon="7.163214683532715">
        <ele>2423.54</ele>
        <time>2022-03-27T12:33:42Z</time>
      </trkpt>
      <trkpt lat="45.749217923730612" lon="7.163209319114685">
        <ele>2423.6799999999998</ele>
        <time>2022-03-27T12:34:16Z</time>
      </trkpt>
      <trkpt lat="45.749221947044134" lon="7.163208397105336">
        <ele>2424.1500000000001</ele>
        <time>2022-03-27T12:34:58Z</time>
      </trkpt>
      <trkpt lat="45.749225132167339" lon="7.163200518116355">
        <ele>2424.4299999999998</ele>
        <time>2022-03-27T12:35:36Z</time>
      </trkpt>
      <trkpt lat="45.749216079711914" lon="7.1632085647434">
        <ele>2424.54</ele>
        <time>2022-03-27T12:36:11Z</time>
      </trkpt>
      <trkpt lat="45.74921540915966" lon="7.163206972181797">
        <ele>2424.5599999999999</ele>
        <time>2022-03-27T12:36:53Z</time>
      </trkpt>
      <trkpt lat="45.749222114682198" lon="7.16320269741118">
        <ele>2424.4400000000001</ele>
        <time>2022-03-27T12:37:37Z</time>
      </trkpt>
      <trkpt lat="45.749217085540295" lon="7.163204038515687">
        <ele>2424.3000000000002</ele>
        <time>2022-03-27T12:38:25Z</time>
      </trkpt>
      <trkpt lat="45.749220522120595" lon="7.16320906765759">
        <ele>2424.6100000000001</ele>
        <time>2022-03-27T12:39:07Z</time>
      </trkpt>
      <trkpt lat="45.74922270141542" lon="7.163202362135053">
        <ele>2424.9499999999998</ele>
        <time>2022-03-27T12:39:49Z</time>
      </trkpt>
      <trkpt lat="45.749222617596388" lon="7.163197668269277">
        <ele>2425.0500000000002</ele>
        <time>2022-03-27T12:40:24Z</time>
      </trkpt>
      <trkpt lat="45.749217001721263" lon="7.163192722946405">
        <ele>2425.96</ele>
        <time>2022-03-27T12:40:36Z</time>
      </trkpt>
      <trkpt lat="45.749221779406071" lon="7.163204625248909">
        <ele>2426.0599999999999</ele>
        <time>2022-03-27T12:40:47Z</time>
      </trkpt>
      <trkpt lat="45.749225048348308" lon="7.163226502016187">
        <ele>2425.8499999999999</ele>
        <time>2022-03-27T12:41:01Z</time>
      </trkpt>
      <trkpt lat="45.749218929558992" lon="7.163251228630543">
        <ele>2425.9099999999999</ele>
        <time>2022-03-27T12:41:14Z</time>
      </trkpt>
      <trkpt lat="45.749214319512248" lon="7.163268914446235">
        <ele>2426.4899999999998</ele>
        <time>2022-03-27T12:41:38Z</time>
      </trkpt>
      <trkpt lat="45.749188000336289" lon="7.163317026570439">
        <ele>2426.27</ele>
        <time>2022-03-27T12:41:51Z</time>
      </trkpt>
      <trkpt lat="45.749154891818762" lon="7.163458094000816">
        <ele>2424.9400000000001</ele>
        <time>2022-03-27T12:42:05Z</time>
      </trkpt>
      <trkpt lat="45.749090854078531" lon="7.163614081218839">
        <ele>2423.6199999999999</ele>
        <time>2022-03-27T12:42:18Z</time>
      </trkpt>
      <trkpt lat="45.749085070565343" lon="7.163706701248884">
        <ele>2422.5100000000002</ele>
        <time>2022-03-27T12:42:30Z</time>
      </trkpt>
      <trkpt lat="45.749058919027448" lon="7.163845086470246">
        <ele>2420.4499999999998</ele>
        <time>2022-03-27T12:42:42Z</time>
      </trkpt>
      <trkpt lat="45.749060343950987" lon="7.163947010412812">
        <ele>2419.6199999999999</ele>
        <time>2022-03-27T12:42:51Z</time>
      </trkpt>
      <trkpt lat="45.74910057708621" lon="7.164033846929669">
        <ele>2417.4499999999998</ele>
        <time>2022-03-27T12:43:02Z</time>
      </trkpt>
      <trkpt lat="45.749098816886544" lon="7.164136189967394">
        <ele>2415.3099999999999</ele>
        <time>2022-03-27T12:43:14Z</time>
      </trkpt>
      <trkpt lat="45.749100325629115" lon="7.164200562983751">
        <ele>2413.1700000000001</ele>
        <time>2022-03-27T12:43:25Z</time>
      </trkpt>
      <trkpt lat="45.749097559601068" lon="7.164199724793434">
        <ele>2412.7399999999998</ele>
        <time>2022-03-27T12:43:33Z</time>
      </trkpt>
      <trkpt lat="45.749102421104908" lon="7.164253536611795">
        <ele>2411.8499999999999</ele>
        <time>2022-03-27T12:43:47Z</time>
      </trkpt>
      <trkpt lat="45.749097978696227" lon="7.164323106408119">
        <ele>2410.3600000000001</ele>
        <time>2022-03-27T12:43:54Z</time>
      </trkpt>
      <trkpt lat="45.749071408063173" lon="7.164401644840837">
        <ele>2407.5</ele>
        <time>2022-03-27T12:44:00Z</time>
      </trkpt>
      <trkpt lat="45.749067049473524" lon="7.164407931268215">
        <ele>2407.5100000000002</ele>
        <time>2022-03-27T12:44:01Z</time>
      </trkpt>
      <trkpt lat="45.749037461355329" lon="7.164442045614123">
        <ele>2404.9099999999999</ele>
        <time>2022-03-27T12:44:11Z</time>
      </trkpt>
      <trkpt lat="45.748995300382376" lon="7.164481021463871">
        <ele>2402.2800000000002</ele>
        <time>2022-03-27T12:44:23Z</time>
      </trkpt>
      <trkpt lat="45.748979542404413" lon="7.164500718936324">
        <ele>2400.8699999999999</ele>
        <time>2022-03-27T12:44:26Z</time>
      </trkpt>
      <trkpt lat="45.748944589868188" lon="7.164576658979058">
        <ele>2398.8800000000001</ele>
        <time>2022-03-27T12:44:37Z</time>
      </trkpt>
      <trkpt lat="45.748922377824783" lon="7.164634242653847">
        <ele>2397.71</ele>
        <time>2022-03-27T12:44:49Z</time>
      </trkpt>
      <trkpt lat="45.748886084184051" lon="7.164680510759354">
        <ele>2394.8899999999999</ele>
        <time>2022-03-27T12:44:59Z</time>
      </trkpt>
      <trkpt lat="45.748829673975706" lon="7.164724180474877">
        <ele>2393.4000000000001</ele>
        <time>2022-03-27T12:45:11Z</time>
      </trkpt>
      <trkpt lat="45.748808300122619" lon="7.16475703753531">
        <ele>2391.23</ele>
        <time>2022-03-27T12:45:15Z</time>
      </trkpt>
      <trkpt lat="45.748773599043489" lon="7.164768017828465">
        <ele>2389.71</ele>
        <time>2022-03-27T12:45:20Z</time>
      </trkpt>
      <trkpt lat="45.748753063380718" lon="7.164797270670533">
        <ele>2388.75</ele>
        <time>2022-03-27T12:45:23Z</time>
      </trkpt>
      <trkpt lat="45.748640997335315" lon="7.164902295917273">
        <ele>2385.5900000000001</ele>
        <time>2022-03-27T12:45:38Z</time>
      </trkpt>
      <trkpt lat="45.748587688431144" lon="7.164997849613428">
        <ele>2382.1599999999999</ele>
        <time>2022-03-27T12:45:49Z</time>
      </trkpt>
      <trkpt lat="45.748530942946672" lon="7.165065407752991">
        <ele>2380.4000000000001</ele>
        <time>2022-03-27T12:46:02Z</time>
      </trkpt>
      <trkpt lat="45.748547622933984" lon="7.165150986984372">
        <ele>2379.6100000000001</ele>
        <time>2022-03-27T12:46:15Z</time>
      </trkpt>
      <trkpt lat="45.748547539114952" lon="7.165232542902231">
        <ele>2377.9000000000001</ele>
        <time>2022-03-27T12:46:25Z</time>
      </trkpt>
      <trkpt lat="45.748500600457191" lon="7.16529943048954">
        <ele>2376.8000000000002</ele>
        <time>2022-03-27T12:46:38Z</time>
      </trkpt>
      <trkpt lat="45.748458774760365" lon="7.165327845141292">
        <ele>2373.5999999999999</ele>
        <time>2022-03-27T12:46:46Z</time>
      </trkpt>
      <trkpt lat="45.748449387028813" lon="7.165326839312911">
        <ele>2372.5900000000001</ele>
        <time>2022-03-27T12:46:48Z</time>
      </trkpt>
      <trkpt lat="45.748424828052521" lon="7.165367156267166">
        <ele>2371.9499999999998</ele>
        <time>2022-03-27T12:47:02Z</time>
      </trkpt>
      <trkpt lat="45.748398844152689" lon="7.165448125451803">
        <ele>2368.8299999999999</ele>
        <time>2022-03-27T12:47:12Z</time>
      </trkpt>
      <trkpt lat="45.74840035289526" lon="7.165505290031433">
        <ele>2367.8699999999999</ele>
        <time>2022-03-27T12:47:23Z</time>
      </trkpt>
      <trkpt lat="45.748334638774395" lon="7.165561197325587">
        <ele>2364.7600000000002</ele>
        <time>2022-03-27T12:47:35Z</time>
      </trkpt>
      <trkpt lat="45.748248808085918" lon="7.165582571178675">
        <ele>2361.4400000000001</ele>
        <time>2022-03-27T12:47:47Z</time>
      </trkpt>
      <trkpt lat="45.748242270201445" lon="7.165585337206721">
        <ele>2361.1500000000001</ele>
        <time>2022-03-27T12:47:48Z</time>
      </trkpt>
      <trkpt lat="45.748179154470563" lon="7.165560275316238">
        <ele>2359.3299999999999</ele>
        <time>2022-03-27T12:47:59Z</time>
      </trkpt>
      <trkpt lat="45.748152583837509" lon="7.165579469874501">
        <ele>2358.5300000000002</ele>
        <time>2022-03-27T12:48:09Z</time>
      </trkpt>
      <trkpt lat="45.748107321560383" lon="7.165654907003045">
        <ele>2355.48</ele>
        <time>2022-03-27T12:48:20Z</time>
      </trkpt>
      <trkpt lat="45.748055521398783" lon="7.165646860376">
        <ele>2353.2800000000002</ele>
        <time>2022-03-27T12:48:31Z</time>
      </trkpt>
      <trkpt lat="45.748003050684929" lon="7.165677370503545">
        <ele>2350.5</ele>
        <time>2022-03-27T12:48:45Z</time>
      </trkpt>
      <trkpt lat="45.747961308807135" lon="7.165745766833425">
        <ele>2347.8400000000001</ele>
        <time>2022-03-27T12:48:58Z</time>
      </trkpt>
      <trkpt lat="45.747933061793447" lon="7.165803350508213">
        <ele>2345.7199999999998</ele>
        <time>2022-03-27T12:49:12Z</time>
      </trkpt>
      <trkpt lat="45.747900204733014" lon="7.165889432653785">
        <ele>2343.04</ele>
        <time>2022-03-27T12:49:25Z</time>
      </trkpt>
      <trkpt lat="45.747839771211147" lon="7.165985321626067">
        <ele>2339.5599999999999</ele>
        <time>2022-03-27T12:49:39Z</time>
      </trkpt>
      <trkpt lat="45.747772883623838" lon="7.166080120950937">
        <ele>2336.8200000000002</ele>
        <time>2022-03-27T12:49:52Z</time>
      </trkpt>
      <trkpt lat="45.747735500335693" lon="7.16616821475327">
        <ele>2334.6399999999999</ele>
        <time>2022-03-27T12:50:02Z</time>
      </trkpt>
      <trkpt lat="45.747690824791789" lon="7.166297882795334">
        <ele>2333.1599999999999</ele>
        <time>2022-03-27T12:50:15Z</time>
      </trkpt>
      <trkpt lat="45.747635001316667" lon="7.166388323530555">
        <ele>2331.1500000000001</ele>
        <time>2022-03-27T12:50:28Z</time>
      </trkpt>
      <trkpt lat="45.747597953304648" lon="7.166425622999668">
        <ele>2328.02</ele>
        <time>2022-03-27T12:50:37Z</time>
      </trkpt>
      <trkpt lat="45.747571215033531" lon="7.166454456746578">
        <ele>2326.8499999999999</ele>
        <time>2022-03-27T12:50:48Z</time>
      </trkpt>
      <trkpt lat="45.747537016868591" lon="7.166474321857095">
        <ele>2325.98</ele>
        <time>2022-03-27T12:50:55Z</time>
      </trkpt>
      <trkpt lat="45.747514050453901" lon="7.166490834206343">
        <ele>2324.3200000000002</ele>
        <time>2022-03-27T12:50:58Z</time>
      </trkpt>
      <trkpt lat="45.747450012713671" lon="7.16653810814023">
        <ele>2321.27</ele>
        <time>2022-03-27T12:51:10Z</time>
      </trkpt>
      <trkpt lat="45.747380359098315" lon="7.166617987677455">
        <ele>2318.21</ele>
        <time>2022-03-27T12:51:22Z</time>
      </trkpt>
      <trkpt lat="45.747355632483959" lon="7.16662704013288">
        <ele>2315.4299999999998</ele>
        <time>2022-03-27T12:51:26Z</time>
      </trkpt>
      <trkpt lat="45.747312046587467" lon="7.166665596887469">
        <ele>2315.1700000000001</ele>
        <time>2022-03-27T12:51:33Z</time>
      </trkpt>
      <trkpt lat="45.747284637764096" lon="7.166715050116181">
        <ele>2315.4200000000001</ele>
        <time>2022-03-27T12:51:45Z</time>
      </trkpt>
      <trkpt lat="45.747326714918017" lon="7.166861398145556">
        <ele>2312.1599999999999</ele>
        <time>2022-03-27T12:51:59Z</time>
      </trkpt>
      <trkpt lat="45.747348172590137" lon="7.166997939348221">
        <ele>2309.1399999999999</ele>
        <time>2022-03-27T12:52:13Z</time>
      </trkpt>
      <trkpt lat="45.747361667454243" lon="7.167037334293127">
        <ele>2307.3400000000001</ele>
        <time>2022-03-27T12:52:24Z</time>
      </trkpt>
      <trkpt lat="45.747373569756746" lon="7.16707019135356">
        <ele>2306.4200000000001</ele>
        <time>2022-03-27T12:52:39Z</time>
      </trkpt>
      <trkpt lat="45.747450012713671" lon="7.167138671502471">
        <ele>2303.7800000000002</ele>
        <time>2022-03-27T12:52:53Z</time>
      </trkpt>
      <trkpt lat="45.747496616095304" lon="7.167264316231012">
        <ele>2300.3200000000002</ele>
        <time>2022-03-27T12:53:04Z</time>
      </trkpt>
      <trkpt lat="45.747488653287292" lon="7.167330700904131">
        <ele>2298.73</ele>
        <time>2022-03-27T12:53:14Z</time>
      </trkpt>
      <trkpt lat="45.747486557811499" lon="7.167336735874414">
        <ele>2299.3099999999999</ele>
        <time>2022-03-27T12:53:30Z</time>
      </trkpt>
      <trkpt lat="45.747480439022183" lon="7.167342687025666">
        <ele>2298.7800000000002</ele>
        <time>2022-03-27T12:53:49Z</time>
      </trkpt>
      <trkpt lat="45.747474487870932" lon="7.16734922491014">
        <ele>2298.4499999999998</ele>
        <time>2022-03-27T12:54:20Z</time>
      </trkpt>
      <trkpt lat="45.747477086260915" lon="7.167349476367235">
        <ele>2298.3800000000001</ele>
        <time>2022-03-27T12:54:37Z</time>
      </trkpt>
      <trkpt lat="45.747479265555739" lon="7.167351068928838">
        <ele>2298.5700000000002</ele>
        <time>2022-03-27T12:54:57Z</time>
      </trkpt>
      <trkpt lat="45.747476248070598" lon="7.167363474145532">
        <ele>2298.6500000000001</ele>
        <time>2022-03-27T12:55:18Z</time>
      </trkpt>
      <trkpt lat="45.747470464557409" lon="7.167362635955215">
        <ele>2297.8600000000001</ele>
        <time>2022-03-27T12:55:39Z</time>
      </trkpt>
      <trkpt lat="45.747468117624521" lon="7.167356936261058">
        <ele>2299.0300000000002</ele>
        <time>2022-03-27T12:55:56Z</time>
      </trkpt>
      <trkpt lat="45.747470799833536" lon="7.167355008423328">
        <ele>2298.4000000000001</ele>
        <time>2022-03-27T12:56:13Z</time>
      </trkpt>
      <trkpt lat="45.747474320232868" lon="7.16734578832984">
        <ele>2297.25</ele>
        <time>2022-03-27T12:56:27Z</time>
      </trkpt>
      <trkpt lat="45.747472560033202" lon="7.167344111949205">
        <ele>2297.2800000000002</ele>
        <time>2022-03-27T12:57:38Z</time>
      </trkpt>
      <trkpt lat="45.74746954254806" lon="7.167355343699455">
        <ele>2297.46</ele>
        <time>2022-03-27T12:58:43Z</time>
      </trkpt>
      <trkpt lat="45.747470129281282" lon="7.16735215857625">
        <ele>2297.4299999999998</ele>
        <time>2022-03-27T12:59:22Z</time>
      </trkpt>
      <trkpt lat="45.747474152594805" lon="7.1673599537462">
        <ele>2298.29</ele>
        <time>2022-03-27T12:59:39Z</time>
      </trkpt>
      <trkpt lat="45.747476080432534" lon="7.167351739481092">
        <ele>2298.1599999999999</ele>
        <time>2022-03-27T12:59:51Z</time>
      </trkpt>
      <trkpt lat="45.747480522841215" lon="7.167349141091108">
        <ele>2298.6799999999998</ele>
        <time>2022-03-27T13:00:08Z</time>
      </trkpt>
      <trkpt lat="45.747507009655237" lon="7.167400270700455">
        <ele>2298.75</ele>
        <time>2022-03-27T13:00:16Z</time>
      </trkpt>
      <trkpt lat="45.747514804825187" lon="7.167408317327499">
        <ele>2298.73</ele>
        <time>2022-03-27T13:00:17Z</time>
      </trkpt>
      <trkpt lat="45.747568365186453" lon="7.16747771948576">
        <ele>2297.4899999999998</ele>
        <time>2022-03-27T13:00:24Z</time>
      </trkpt>
      <trkpt lat="45.747515643015504" lon="7.167610405012965">
        <ele>2293.9499999999998</ele>
        <time>2022-03-27T13:00:36Z</time>
      </trkpt>
      <trkpt lat="45.747487898916006" lon="7.1676932182163">
        <ele>2291.5999999999999</ele>
        <time>2022-03-27T13:00:47Z</time>
      </trkpt>
      <trkpt lat="45.747469961643219" lon="7.16774258762598">
        <ele>2289.9499999999998</ele>
        <time>2022-03-27T13:01:03Z</time>
      </trkpt>
      <trkpt lat="45.747442301362753" lon="7.167828837409616">
        <ele>2286.8200000000002</ele>
        <time>2022-03-27T13:01:14Z</time>
      </trkpt>
      <trkpt lat="45.747427213937044" lon="7.167916763573885">
        <ele>2284.6199999999999</ele>
        <time>2022-03-27T13:01:26Z</time>
      </trkpt>
      <trkpt lat="45.747403157874942" lon="7.168018938973546">
        <ele>2284.9299999999998</ele>
        <time>2022-03-27T13:01:38Z</time>
      </trkpt>
      <trkpt lat="45.74740600772202" lon="7.168057663366199">
        <ele>2285.0799999999999</ele>
        <time>2022-03-27T13:01:52Z</time>
      </trkpt>
      <trkpt lat="45.74740651063621" lon="7.168059507384896">
        <ele>2285.6700000000001</ele>
        <time>2022-03-27T13:02:07Z</time>
      </trkpt>
      <trkpt lat="45.747400224208832" lon="7.16804844327271">
        <ele>2285.1999999999998</ele>
        <time>2022-03-27T13:02:19Z</time>
      </trkpt>
      <trkpt lat="45.747401984408498" lon="7.168053891509771">
        <ele>2284.96</ele>
        <time>2022-03-27T13:02:37Z</time>
      </trkpt>
      <trkpt lat="45.747396200895309" lon="7.168051963672042">
        <ele>2285.5100000000002</ele>
        <time>2022-03-27T13:03:09Z</time>
      </trkpt>
      <trkpt lat="45.747402403503656" lon="7.16805774718523">
        <ele>2285.1900000000001</ele>
        <time>2022-03-27T13:03:32Z</time>
      </trkpt>
      <trkpt lat="45.747406678274274" lon="7.168049784377217">
        <ele>2284.8499999999999</ele>
        <time>2022-03-27T13:03:48Z</time>
      </trkpt>
      <trkpt lat="45.747406845912337" lon="7.168048191815615">
        <ele>2283.9200000000001</ele>
        <time>2022-03-27T13:04:02Z</time>
      </trkpt>
      <trkpt lat="45.74739083647728" lon="7.168063279241324">
        <ele>2283.7800000000002</ele>
        <time>2022-03-27T13:04:28Z</time>
      </trkpt>
      <trkpt lat="45.747392345219851" lon="7.168061519041657">
        <ele>2284.0599999999999</ele>
        <time>2022-03-27T13:04:39Z</time>
      </trkpt>
      <trkpt lat="45.747395278885961" lon="7.168051963672042">
        <ele>2284.4000000000001</ele>
        <time>2022-03-27T13:04:55Z</time>
      </trkpt>
      <trkpt lat="45.747401397675276" lon="7.168048694729805">
        <ele>2284.6599999999999</ele>
        <time>2022-03-27T13:05:12Z</time>
      </trkpt>
      <trkpt lat="45.747398212552071" lon="7.168071996420622">
        <ele>2284.6199999999999</ele>
        <time>2022-03-27T13:05:29Z</time>
      </trkpt>
      <trkpt lat="45.747391926124692" lon="7.168101835995913">
        <ele>2284.96</ele>
        <time>2022-03-27T13:05:42Z</time>
      </trkpt>
      <trkpt lat="45.747387483716011" lon="7.168103847652674">
        <ele>2285.23</ele>
        <time>2022-03-27T13:05:49Z</time>
      </trkpt>
      <trkpt lat="45.747384466230869" lon="7.168104099109769">
        <ele>2283.8600000000001</ele>
        <time>2022-03-27T13:06:08Z</time>
      </trkpt>
      <trkpt lat="45.747391507029533" lon="7.168095968663693">
        <ele>2284.3600000000001</ele>
        <time>2022-03-27T13:06:28Z</time>
      </trkpt>
      <trkpt lat="45.747421011328697" lon="7.168150870129466">
        <ele>2285.9499999999998</ele>
        <time>2022-03-27T13:06:52Z</time>
      </trkpt>
      <trkpt lat="45.747432662174106" lon="7.168198311701417">
        <ele>2285.9299999999998</ele>
        <time>2022-03-27T13:06:56Z</time>
      </trkpt>
      <trkpt lat="45.747485803440213" lon="7.168358657509089">
        <ele>2284.9899999999998</ele>
        <time>2022-03-27T13:07:08Z</time>
      </trkpt>
      <trkpt lat="45.747496113181114" lon="7.168449768796563">
        <ele>2285.2600000000002</ele>
        <time>2022-03-27T13:07:15Z</time>
      </trkpt>
      <trkpt lat="45.74746903963387" lon="7.168548842892051">
        <ele>2282.8000000000002</ele>
        <time>2022-03-27T13:07:23Z</time>
      </trkpt>
      <trkpt lat="45.747462082654238" lon="7.168584633618593">
        <ele>2281.9499999999998</ele>
        <time>2022-03-27T13:07:36Z</time>
      </trkpt>
      <trkpt lat="45.74742017313838" lon="7.168604834005237">
        <ele>2280.3699999999999</ele>
        <time>2022-03-27T13:07:46Z</time>
      </trkpt>
      <trkpt lat="45.747401984408498" lon="7.168605756014586">
        <ele>2279.3499999999999</ele>
        <time>2022-03-27T13:07:48Z</time>
      </trkpt>
      <trkpt lat="45.747299557551742" lon="7.168598379939795">
        <ele>2275.6100000000001</ele>
        <time>2022-03-27T13:08:01Z</time>
      </trkpt>
      <trkpt lat="45.747193275019526" lon="7.168595194816589">
        <ele>2272.6700000000001</ele>
        <time>2022-03-27T13:08:13Z</time>
      </trkpt>
      <trkpt lat="45.747177265584469" lon="7.16860793530941">
        <ele>2271.98</ele>
        <time>2022-03-27T13:08:15Z</time>
      </trkpt>
      <trkpt lat="45.747100990265608" lon="7.168687395751476">
        <ele>2268.6599999999999</ele>
        <time>2022-03-27T13:08:28Z</time>
      </trkpt>
      <trkpt lat="45.747089507058263" lon="7.16877406463027">
        <ele>2265.4499999999998</ele>
        <time>2022-03-27T13:08:38Z</time>
      </trkpt>
      <trkpt lat="45.747068887576461" lon="7.168785212561488">
        <ele>2263.02</ele>
        <time>2022-03-27T13:08:44Z</time>
      </trkpt>
      <trkpt lat="45.747031420469284" lon="7.168803736567497">
        <ele>2262.2800000000002</ele>
        <time>2022-03-27T13:08:53Z</time>
      </trkpt>
      <trkpt lat="45.746982302516699" lon="7.168879006057978">
        <ele>2259.2600000000002</ele>
        <time>2022-03-27T13:09:03Z</time>
      </trkpt>
      <trkpt lat="45.746970903128386" lon="7.168944636359811">
        <ele>2257.9400000000001</ele>
        <time>2022-03-27T13:09:09Z</time>
      </trkpt>
      <trkpt lat="45.746971657499671" lon="7.169012194499373">
        <ele>2257.25</ele>
        <time>2022-03-27T13:09:14Z</time>
      </trkpt>
      <trkpt lat="45.746928909793496" lon="7.169116130098701">
        <ele>2255.4200000000001</ele>
        <time>2022-03-27T13:09:24Z</time>
      </trkpt>
      <trkpt lat="45.74687878601253" lon="7.169238086789846">
        <ele>2253.46</ele>
        <time>2022-03-27T13:09:36Z</time>
      </trkpt>
      <trkpt lat="45.746855903416872" lon="7.169309752061963">
        <ele>2250.3400000000001</ele>
        <time>2022-03-27T13:09:44Z</time>
      </trkpt>
      <trkpt lat="45.746850538998842" lon="7.169408574700356">
        <ele>2247.52</ele>
        <time>2022-03-27T13:09:55Z</time>
      </trkpt>
      <trkpt lat="45.746832769364119" lon="7.169537488371134">
        <ele>2244.4000000000001</ele>
        <time>2022-03-27T13:10:08Z</time>
      </trkpt>
      <trkpt lat="45.746821286156774" lon="7.169629940763116">
        <ele>2241.3699999999999</ele>
        <time>2022-03-27T13:10:19Z</time>
      </trkpt>
      <trkpt lat="45.746833439916372" lon="7.16966288164258">
        <ele>2241.1900000000001</ele>
        <time>2022-03-27T13:10:26Z</time>
      </trkpt>
      <trkpt lat="45.746814832091331" lon="7.169724572449923">
        <ele>2239.52</ele>
        <time>2022-03-27T13:10:31Z</time>
      </trkpt>
      <trkpt lat="45.746791195124388" lon="7.169814510270953">
        <ele>2236.4899999999998</ele>
        <time>2022-03-27T13:10:40Z</time>
      </trkpt>
      <trkpt lat="45.746759762987494" lon="7.169868154451251">
        <ele>2234.6300000000001</ele>
        <time>2022-03-27T13:10:49Z</time>
      </trkpt>
      <trkpt lat="45.746740065515041" lon="7.169937388971448">
        <ele>2231.5599999999999</ele>
        <time>2022-03-27T13:10:57Z</time>
      </trkpt>
      <trkpt lat="45.746735204011202" lon="7.169966557994485">
        <ele>2230.6500000000001</ele>
        <time>2022-03-27T13:11:02Z</time>
      </trkpt>
      <trkpt lat="45.746725313365459" lon="7.170035960152745">
        <ele>2228.5700000000002</ele>
        <time>2022-03-27T13:11:08Z</time>
      </trkpt>
      <trkpt lat="45.746694887056947" lon="7.170134196057916">
        <ele>2226.6799999999998</ele>
        <time>2022-03-27T13:11:19Z</time>
      </trkpt>
      <trkpt lat="45.746645266190171" lon="7.170210722833872">
        <ele>2224.1100000000001</ele>
        <time>2022-03-27T13:11:33Z</time>
      </trkpt>
      <trkpt lat="45.746605284512043" lon="7.17020426876843">
        <ele>2221.8200000000002</ele>
        <time>2022-03-27T13:11:45Z</time>
      </trkpt>
      <trkpt lat="45.746585000306368" lon="7.170297307893634">
        <ele>2219.9299999999998</ele>
        <time>2022-03-27T13:11:56Z</time>
      </trkpt>
      <trkpt lat="45.746563961729407" lon="7.170401159673929">
        <ele>2216.71</ele>
        <time>2022-03-27T13:12:09Z</time>
      </trkpt>
      <trkpt lat="45.74656312353909" lon="7.170492270961404">
        <ele>2213.5799999999999</ele>
        <time>2022-03-27T13:12:20Z</time>
      </trkpt>
      <trkpt lat="45.746569745242596" lon="7.170603582635522">
        <ele>2211.1900000000001</ele>
        <time>2022-03-27T13:12:31Z</time>
      </trkpt>
      <trkpt lat="45.746517777442932" lon="7.170635685324669">
        <ele>2208.8899999999999</ele>
        <time>2022-03-27T13:12:41Z</time>
      </trkpt>
      <trkpt lat="45.746486680582166" lon="7.17076325789094">
        <ele>2206.7199999999998</ele>
        <time>2022-03-27T13:12:54Z</time>
      </trkpt>
      <trkpt lat="45.746448542922735" lon="7.170836767181754">
        <ele>2203.5500000000002</ele>
        <time>2022-03-27T13:13:03Z</time>
      </trkpt>
      <trkpt lat="45.746416607871652" lon="7.170937014743686">
        <ele>2201.6500000000001</ele>
        <time>2022-03-27T13:13:16Z</time>
      </trkpt>
      <trkpt lat="45.746399760246277" lon="7.171039190143347">
        <ele>2198.8899999999999</ele>
        <time>2022-03-27T13:13:26Z</time>
      </trkpt>
      <trkpt lat="45.746300769969821" lon="7.171148741617799">
        <ele>2195.8200000000002</ele>
        <time>2022-03-27T13:13:41Z</time>
      </trkpt>
      <trkpt lat="45.746214352548122" lon="7.171283606439829">
        <ele>2193.52</ele>
        <time>2022-03-27T13:13:57Z</time>
      </trkpt>
      <trkpt lat="45.746185099706054" lon="7.171294167637825">
        <ele>2192.8499999999999</ele>
        <time>2022-03-27T13:14:07Z</time>
      </trkpt>
      <trkpt lat="45.74611209332943" lon="7.171358875930309">
        <ele>2189.46</ele>
        <time>2022-03-27T13:14:18Z</time>
      </trkpt>
      <trkpt lat="45.746066411957145" lon="7.171430792659521">
        <ele>2186.3499999999999</ele>
        <time>2022-03-27T13:14:28Z</time>
      </trkpt>
      <trkpt lat="45.746027855202556" lon="7.171538835391402">
        <ele>2183.9099999999999</ele>
        <time>2022-03-27T13:14:42Z</time>
      </trkpt>
      <trkpt lat="45.745994411408901" lon="7.171629695221782">
        <ele>2181.6599999999999</ele>
        <time>2022-03-27T13:14:55Z</time>
      </trkpt>
      <trkpt lat="45.745957363396883" lon="7.171735810115933">
        <ele>2178.5500000000002</ele>
        <time>2022-03-27T13:15:09Z</time>
      </trkpt>
      <trkpt lat="45.745930038392544" lon="7.171769086271524">
        <ele>2177.1900000000001</ele>
        <time>2022-03-27T13:15:21Z</time>
      </trkpt>
      <trkpt lat="45.745882848277688" lon="7.171846954151988">
        <ele>2174.4400000000001</ele>
        <time>2022-03-27T13:15:30Z</time>
      </trkpt>
      <trkpt lat="45.745819648727775" lon="7.171927001327276">
        <ele>2170.8699999999999</ele>
        <time>2022-03-27T13:15:41Z</time>
      </trkpt>
      <trkpt lat="45.745754856616259" lon="7.172034960240126">
        <ele>2167.8600000000001</ele>
        <time>2022-03-27T13:15:54Z</time>
      </trkpt>
      <trkpt lat="45.745692411437631" lon="7.172128837555647">
        <ele>2165.5900000000001</ele>
        <time>2022-03-27T13:16:07Z</time>
      </trkpt>
      <trkpt lat="45.745637509971857" lon="7.172235623002052">
        <ele>2162.5100000000002</ele>
        <time>2022-03-27T13:16:20Z</time>
      </trkpt>
      <trkpt lat="45.745623428374529" lon="7.172310808673501">
        <ele>2161.1599999999999</ele>
        <time>2022-03-27T13:16:29Z</time>
      </trkpt>
      <trkpt lat="45.745571963489056" lon="7.172387503087521">
        <ele>2158.4299999999998</ele>
        <time>2022-03-27T13:16:39Z</time>
      </trkpt>
      <trkpt lat="45.745550254359841" lon="7.172428742051125">
        <ele>2157.6199999999999</ele>
        <time>2022-03-27T13:16:48Z</time>
      </trkpt>
      <trkpt lat="45.745528629049659" lon="7.172455731779337">
        <ele>2156.29</ele>
        <time>2022-03-27T13:16:51Z</time>
      </trkpt>
      <trkpt lat="45.745487054809928" lon="7.17252479866147">
        <ele>2154.3400000000001</ele>
        <time>2022-03-27T13:16:58Z</time>
      </trkpt>
      <trkpt lat="45.745477667078376" lon="7.172704339027405">
        <ele>2151.77</ele>
        <time>2022-03-27T13:17:13Z</time>
      </trkpt>
      <trkpt lat="45.74540457688272" lon="7.172791510820389">
        <ele>2148.96</ele>
        <time>2022-03-27T13:17:27Z</time>
      </trkpt>
      <trkpt lat="45.745324864983559" lon="7.172908103093505">
        <ele>2146.9200000000001</ele>
        <time>2022-03-27T13:17:41Z</time>
      </trkpt>
      <trkpt lat="45.745265269652009" lon="7.17305788770318">
        <ele>2145</ele>
        <time>2022-03-27T13:17:54Z</time>
      </trkpt>
      <trkpt lat="45.745252948254347" lon="7.173096612095833">
        <ele>2144.4200000000001</ele>
        <time>2022-03-27T13:18:08Z</time>
      </trkpt>
      <trkpt lat="45.745223527774215" lon="7.173227453604341">
        <ele>2143.0799999999999</ele>
        <time>2022-03-27T13:18:20Z</time>
      </trkpt>
      <trkpt lat="45.745156304910779" lon="7.173357037827373">
        <ele>2140.8299999999999</ele>
        <time>2022-03-27T13:18:32Z</time>
      </trkpt>
      <trkpt lat="45.745146162807941" lon="7.173379668965936">
        <ele>2140.5100000000002</ele>
        <time>2022-03-27T13:18:34Z</time>
      </trkpt>
      <trkpt lat="45.745099978521466" lon="7.173491902649403">
        <ele>2139.3899999999999</ele>
        <time>2022-03-27T13:18:45Z</time>
      </trkpt>
      <trkpt lat="45.7450654450804" lon="7.173558874055743">
        <ele>2137.3899999999999</ele>
        <time>2022-03-27T13:18:53Z</time>
      </trkpt>
      <trkpt lat="45.744960336014628" lon="7.173731625080109">
        <ele>2135.5300000000002</ele>
        <time>2022-03-27T13:19:10Z</time>
      </trkpt>
      <trkpt lat="45.744904428720474" lon="7.173871854320169">
        <ele>2134.4299999999998</ele>
        <time>2022-03-27T13:19:21Z</time>
      </trkpt>
      <trkpt lat="45.744838295504451" lon="7.174085425212979">
        <ele>2131.4400000000001</ele>
        <time>2022-03-27T13:19:38Z</time>
      </trkpt>
      <trkpt lat="45.744826812297106" lon="7.174072600901127">
        <ele>2131.8099999999999</ele>
        <time>2022-03-27T13:19:47Z</time>
      </trkpt>
      <trkpt lat="45.744816586375237" lon="7.17406296171248">
        <ele>2131.6799999999998</ele>
        <time>2022-03-27T13:20:10Z</time>
      </trkpt>
      <trkpt lat="45.744812311604619" lon="7.174065979197621">
        <ele>2130.4400000000001</ele>
        <time>2022-03-27T13:20:36Z</time>
      </trkpt>
      <trkpt lat="45.744814071804285" lon="7.174080312252045">
        <ele>2130.75</ele>
        <time>2022-03-27T13:20:38Z</time>
      </trkpt>
      <trkpt lat="45.744802337139845" lon="7.174128675833345">
        <ele>2130.8800000000001</ele>
        <time>2022-03-27T13:20:42Z</time>
      </trkpt>
      <trkpt lat="45.744700999930501" lon="7.17421006411314">
        <ele>2129.5300000000002</ele>
        <time>2022-03-27T13:20:54Z</time>
      </trkpt>
      <trkpt lat="45.744649032130837" lon="7.174278041347861">
        <ele>2128.6399999999999</ele>
        <time>2022-03-27T13:21:02Z</time>
      </trkpt>
      <trkpt lat="45.744635537266731" lon="7.174345012754202">
        <ele>2127.98</ele>
        <time>2022-03-27T13:21:07Z</time>
      </trkpt>
      <trkpt lat="45.744602764025331" lon="7.174398824572563">
        <ele>2125.5300000000002</ele>
        <time>2022-03-27T13:21:22Z</time>
      </trkpt>
      <trkpt lat="45.744564039632678" lon="7.174456659704447">
        <ele>2124.4499999999998</ele>
        <time>2022-03-27T13:21:28Z</time>
      </trkpt>
      <trkpt lat="45.744530847296119" lon="7.174500497058034">
        <ele>2124.1100000000001</ele>
        <time>2022-03-27T13:21:32Z</time>
      </trkpt>
      <trkpt lat="45.744500337168574" lon="7.174513572826982">
        <ele>2122.0599999999999</ele>
        <time>2022-03-27T13:21:41Z</time>
      </trkpt>
      <trkpt lat="45.744393467903137" lon="7.174456911161542">
        <ele>2122.8800000000001</ele>
        <time>2022-03-27T13:21:56Z</time>
      </trkpt>
      <trkpt lat="45.74439506046474" lon="7.174459425732493">
        <ele>2123.25</ele>
        <time>2022-03-27T13:22:13Z</time>
      </trkpt>
      <trkpt lat="45.744376871734858" lon="7.174466885626316">
        <ele>2122.5599999999999</ele>
        <time>2022-03-27T13:22:25Z</time>
      </trkpt>
      <trkpt lat="45.744381230324507" lon="7.174463616684079">
        <ele>2122.9099999999999</ele>
        <time>2022-03-27T13:22:47Z</time>
      </trkpt>
      <trkpt lat="45.744384750723839" lon="7.174454228952527">
        <ele>2122.29</ele>
        <time>2022-03-27T13:23:13Z</time>
      </trkpt>
      <trkpt lat="45.744384750723839" lon="7.174460515379906">
        <ele>2121.3000000000002</ele>
        <time>2022-03-27T13:23:34Z</time>
      </trkpt>
      <trkpt lat="45.744383493438363" lon="7.17446219176054">
        <ele>2122.7600000000002</ele>
        <time>2022-03-27T13:23:41Z</time>
      </trkpt>
      <trkpt lat="45.744381230324507" lon="7.174463449046016">
        <ele>2123.79</ele>
        <time>2022-03-27T13:23:54Z</time>
      </trkpt>
      <trkpt lat="45.7443833258003" lon="7.174464538693428">
        <ele>2123</ele>
        <time>2022-03-27T13:24:11Z</time>
      </trkpt>
      <trkpt lat="45.74438039213419" lon="7.17446755617857">
        <ele>2123.6199999999999</ele>
        <time>2022-03-27T13:24:24Z</time>
      </trkpt>
      <trkpt lat="45.744372429326177" lon="7.174469735473394">
        <ele>2123.5100000000002</ele>
        <time>2022-03-27T13:24:42Z</time>
      </trkpt>
      <trkpt lat="45.744370333850384" lon="7.174461102113128">
        <ele>2118.1100000000001</ele>
        <time>2022-03-27T13:24:48Z</time>
      </trkpt>
      <trkpt lat="45.74437016621232" lon="7.174460766837001">
        <ele>2119.5900000000001</ele>
        <time>2022-03-27T13:24:49Z</time>
      </trkpt>
      <trkpt lat="45.744371423497796" lon="7.174461102113128">
        <ele>2120.8099999999999</ele>
        <time>2022-03-27T13:24:51Z</time>
      </trkpt>
      <trkpt lat="45.744372345507145" lon="7.174461437389255">
        <ele>2129.1999999999998</ele>
        <time>2022-03-27T13:24:52Z</time>
      </trkpt>
      <trkpt lat="45.744372680783272" lon="7.174460431560874">
        <ele>2128.1999999999998</ele>
        <time>2022-03-27T13:24:53Z</time>
      </trkpt>
      <trkpt lat="45.744371842592955" lon="7.174458922818303">
        <ele>2123.4000000000001</ele>
        <time>2022-03-27T13:24:56Z</time>
      </trkpt>
      <trkpt lat="45.744369747117162" lon="7.174466047435999">
        <ele>2123.4299999999998</ele>
        <time>2022-03-27T13:25:21Z</time>
      </trkpt>
      <trkpt lat="45.744366059079766" lon="7.174460012465715">
        <ele>2124.2399999999998</ele>
        <time>2022-03-27T13:25:37Z</time>
      </trkpt>
      <trkpt lat="45.74435306712985" lon="7.174460180103779">
        <ele>2124.4400000000001</ele>
        <time>2022-03-27T13:26:10Z</time>
      </trkpt>
      <trkpt lat="45.744352899491787" lon="7.174463700503111">
        <ele>2123.3400000000001</ele>
        <time>2022-03-27T13:26:25Z</time>
      </trkpt>
      <trkpt lat="45.744354743510485" lon="7.174459425732493">
        <ele>2122.5700000000002</ele>
        <time>2022-03-27T13:26:38Z</time>
      </trkpt>
      <trkpt lat="45.744355330243707" lon="7.174455989152193">
        <ele>2125.9899999999998</ele>
        <time>2022-03-27T13:26:41Z</time>
      </trkpt>
      <trkpt lat="45.744355078786612" lon="7.174453306943178">
        <ele>2126.21</ele>
        <time>2022-03-27T13:26:42Z</time>
      </trkpt>
      <trkpt lat="45.744353989139199" lon="7.17445288784802">
        <ele>2123.1300000000001</ele>
        <time>2022-03-27T13:26:46Z</time>
      </trkpt>
      <trkpt lat="45.744355916976929" lon="7.174459006637335">
        <ele>2123.5799999999999</ele>
        <time>2022-03-27T13:27:06Z</time>
      </trkpt>
      <trkpt lat="45.744357341900468" lon="7.174455653876066">
        <ele>2123.75</ele>
        <time>2022-03-27T13:27:16Z</time>
      </trkpt>
      <trkpt lat="45.744355749338865" lon="7.17445875518024">
        <ele>2122.98</ele>
        <time>2022-03-27T13:27:33Z</time>
      </trkpt>
      <trkpt lat="45.744359269738197" lon="7.174456408247352">
        <ele>2124.0900000000001</ele>
        <time>2022-03-27T13:27:59Z</time>
      </trkpt>
      <trkpt lat="45.744337728247046" lon="7.174444841220975">
        <ele>2124.5100000000002</ele>
        <time>2022-03-27T13:28:12Z</time>
      </trkpt>
      <trkpt lat="45.744315097108483" lon="7.174439812079072">
        <ele>2123.9000000000001</ele>
        <time>2022-03-27T13:28:34Z</time>
      </trkpt>
      <trkpt lat="45.744255585595965" lon="7.174450876191258">
        <ele>2122.8000000000002</ele>
        <time>2022-03-27T13:28:43Z</time>
      </trkpt>
      <trkpt lat="45.744215436279774" lon="7.174447607249022">
        <ele>2121.5</ele>
        <time>2022-03-27T13:28:47Z</time>
      </trkpt>
      <trkpt lat="45.744104543700814" lon="7.174446601420641">
        <ele>2118.2600000000002</ele>
        <time>2022-03-27T13:28:59Z</time>
      </trkpt>
      <trkpt lat="45.744016030803323" lon="7.174435285851359">
        <ele>2117.5500000000002</ele>
        <time>2022-03-27T13:29:12Z</time>
      </trkpt>
      <trkpt lat="45.743991052731872" lon="7.17444215901196">
        <ele>2114.9899999999998</ele>
        <time>2022-03-27T13:29:16Z</time>
      </trkpt>
      <trkpt lat="45.743945706635714" lon="7.174453306943178">
        <ele>2113.54</ele>
        <time>2022-03-27T13:29:22Z</time>
      </trkpt>
      <trkpt lat="45.743926260620356" lon="7.174442242830992">
        <ele>2112.8200000000002</ele>
        <time>2022-03-27T13:29:24Z</time>
      </trkpt>
      <trkpt lat="45.743908826261759" lon="7.174434531480074">
        <ele>2112.04</ele>
        <time>2022-03-27T13:29:26Z</time>
      </trkpt>
      <trkpt lat="45.74387370608747" lon="7.174444338306785">
        <ele>2111.1700000000001</ele>
        <time>2022-03-27T13:29:30Z</time>
      </trkpt>
      <trkpt lat="45.743765914812684" lon="7.174415672197938">
        <ele>2107.7399999999998</ele>
        <time>2022-03-27T13:29:41Z</time>
      </trkpt>
      <trkpt lat="45.74372174218297" lon="7.17440502718091">
        <ele>2106.4499999999998</ele>
        <time>2022-03-27T13:29:46Z</time>
      </trkpt>
      <trkpt lat="45.743653094395995" lon="7.174415672197938">
        <ele>2104.3099999999999</ele>
        <time>2022-03-27T13:29:53Z</time>
      </trkpt>
      <trkpt lat="45.743577992543578" lon="7.174441823735833">
        <ele>2103.5700000000002</ele>
        <time>2022-03-27T13:30:01Z</time>
      </trkpt>
      <trkpt lat="45.743540776893497" lon="7.174466466531158">
        <ele>2103.1199999999999</ele>
        <time>2022-03-27T13:30:05Z</time>
      </trkpt>
      <trkpt lat="45.743401385843754" lon="7.174535784870386">
        <ele>2100.1199999999999</ele>
        <time>2022-03-27T13:30:19Z</time>
      </trkpt>
      <trkpt lat="45.74329225346446" lon="7.174610886722803">
        <ele>2097.5999999999999</ele>
        <time>2022-03-27T13:30:32Z</time>
      </trkpt>
      <trkpt lat="45.743224946781993" lon="7.174649359658361">
        <ele>2093.6599999999999</ele>
        <time>2022-03-27T13:30:38Z</time>
      </trkpt>
      <trkpt lat="45.743216732516885" lon="7.174666794016957">
        <ele>2093.4000000000001</ele>
        <time>2022-03-27T13:30:39Z</time>
      </trkpt>
      <trkpt lat="45.743159651756287" lon="7.174830073490739">
        <ele>2091.3000000000002</ele>
        <time>2022-03-27T13:30:53Z</time>
      </trkpt>
      <trkpt lat="45.743125956505537" lon="7.174924537539482">
        <ele>2088.1799999999998</ele>
        <time>2022-03-27T13:31:06Z</time>
      </trkpt>
      <trkpt lat="45.743078263476491" lon="7.174999052658677">
        <ele>2085.1599999999999</ele>
        <time>2022-03-27T13:31:16Z</time>
      </trkpt>
      <trkpt lat="45.743026714771986" lon="7.175008021295071">
        <ele>2081.73</ele>
        <time>2022-03-27T13:31:23Z</time>
      </trkpt>
      <trkpt lat="45.742988828569651" lon="7.175028137862682">
        <ele>2079.8200000000002</ele>
        <time>2022-03-27T13:31:28Z</time>
      </trkpt>
      <trkpt lat="45.742875337600708" lon="7.175048170611262">
        <ele>2076.27</ele>
        <time>2022-03-27T13:31:39Z</time>
      </trkpt>
      <trkpt lat="45.74285538867116" lon="7.175060492008925">
        <ele>2075.5100000000002</ele>
        <time>2022-03-27T13:31:41Z</time>
      </trkpt>
      <trkpt lat="45.742801325395703" lon="7.175108436495066">
        <ele>2074.3000000000002</ele>
        <time>2022-03-27T13:31:47Z</time>
      </trkpt>
      <trkpt lat="45.742703005671501" lon="7.17530163936317">
        <ele>2072.4499999999998</ele>
        <time>2022-03-27T13:32:04Z</time>
      </trkpt>
      <trkpt lat="45.742696467787027" lon="7.17532217502594">
        <ele>2072.29</ele>
        <time>2022-03-27T13:32:06Z</time>
      </trkpt>
      <trkpt lat="45.74266436509788" lon="7.175424853339791">
        <ele>2068.9699999999998</ele>
        <time>2022-03-27T13:32:16Z</time>
      </trkpt>
      <trkpt lat="45.742659503594041" lon="7.175436588004232">
        <ele>2068.8000000000002</ele>
        <time>2022-03-27T13:32:17Z</time>
      </trkpt>
      <trkpt lat="45.742622036486864" lon="7.175523340702057">
        <ele>2066.9899999999998</ele>
        <time>2022-03-27T13:32:25Z</time>
      </trkpt>
      <trkpt lat="45.742601919919252" lon="7.175564328208566">
        <ele>2065.5300000000002</ele>
        <time>2022-03-27T13:32:29Z</time>
      </trkpt>
      <trkpt lat="45.742557663470507" lon="7.175677986815572">
        <ele>2062.73</ele>
        <time>2022-03-27T13:32:39Z</time>
      </trkpt>
      <trkpt lat="45.742498571053147" lon="7.175758956000209">
        <ele>2059.6300000000001</ele>
        <time>2022-03-27T13:32:48Z</time>
      </trkpt>
      <trkpt lat="45.74240637011826" lon="7.175845457240939">
        <ele>2056.6700000000001</ele>
        <time>2022-03-27T13:33:02Z</time>
      </trkpt>
      <trkpt lat="45.74239413253963" lon="7.175854677334428">
        <ele>2055.8200000000002</ele>
        <time>2022-03-27T13:33:05Z</time>
      </trkpt>
      <trkpt lat="45.742369070649147" lon="7.175946459174156">
        <ele>2054.8400000000001</ele>
        <time>2022-03-27T13:33:12Z</time>
      </trkpt>
      <trkpt lat="45.742358257994056" lon="7.176003120839596">
        <ele>2054.6599999999999</ele>
        <time>2022-03-27T13:33:16Z</time>
      </trkpt>
      <trkpt lat="45.742317019030452" lon="7.176157683134079">
        <ele>2051.3699999999999</ele>
        <time>2022-03-27T13:33:28Z</time>
      </trkpt>
      <trkpt lat="45.742306960746646" lon="7.17618802562356">
        <ele>2049.77</ele>
        <time>2022-03-27T13:33:39Z</time>
      </trkpt>
      <trkpt lat="45.742307296022773" lon="7.176194144412875">
        <ele>2050</ele>
        <time>2022-03-27T13:33:40Z</time>
      </trkpt>
      <trkpt lat="45.742294136434793" lon="7.17626572586596">
        <ele>2049.6599999999999</ele>
        <time>2022-03-27T13:33:45Z</time>
      </trkpt>
      <trkpt lat="45.742273014038801" lon="7.176333535462618">
        <ele>2048.1799999999998</ele>
        <time>2022-03-27T13:33:54Z</time>
      </trkpt>
      <trkpt lat="45.742250215262175" lon="7.176330601796508">
        <ele>2047.45</ele>
        <time>2022-03-27T13:33:56Z</time>
      </trkpt>
      <trkpt lat="45.742161786183715" lon="7.176354406401515">
        <ele>2043.9100000000001</ele>
        <time>2022-03-27T13:34:02Z</time>
      </trkpt>
      <trkpt lat="45.7420848403126" lon="7.176374774426222">
        <ele>2040.28</ele>
        <time>2022-03-27T13:34:07Z</time>
      </trkpt>
      <trkpt lat="45.742074614390731" lon="7.176378378644586">
        <ele>2040.1500000000001</ele>
        <time>2022-03-27T13:34:08Z</time>
      </trkpt>
      <trkpt lat="45.742046283558011" lon="7.176394974812865">
        <ele>2039.6900000000001</ele>
        <time>2022-03-27T13:34:11Z</time>
      </trkpt>
      <trkpt lat="45.74196171015501" lon="7.176470244303346">
        <ele>2037.1900000000001</ele>
        <time>2022-03-27T13:34:24Z</time>
      </trkpt>
      <trkpt lat="45.741915106773376" lon="7.176478458568454">
        <ele>2034.02</ele>
        <time>2022-03-27T13:34:30Z</time>
      </trkpt>
      <trkpt lat="45.741872526705265" lon="7.176516428589821">
        <ele>2030.4200000000001</ele>
        <time>2022-03-27T13:34:38Z</time>
      </trkpt>
      <trkpt lat="45.74186590500176" lon="7.176520870998502">
        <ele>2030.24</ele>
        <time>2022-03-27T13:34:39Z</time>
      </trkpt>
      <trkpt lat="45.74184151366353" lon="7.176529671996832">
        <ele>2027.9200000000001</ele>
        <time>2022-03-27T13:34:42Z</time>
      </trkpt>
      <trkpt lat="45.741774458438158" lon="7.176547273993492">
        <ele>2024.1500000000001</ele>
        <time>2022-03-27T13:34:51Z</time>
      </trkpt>
      <trkpt lat="45.741762556135654" lon="7.176579041406512">
        <ele>2023.48</ele>
        <time>2022-03-27T13:34:54Z</time>
      </trkpt>
      <trkpt lat="45.741730118170381" lon="7.176616340875626">
        <ele>2021.05</ele>
        <time>2022-03-27T13:34:59Z</time>
      </trkpt>
      <trkpt lat="45.74170270934701" lon="7.176645090803504">
        <ele>2019.24</ele>
        <time>2022-03-27T13:35:04Z</time>
      </trkpt>
      <trkpt lat="45.741671193391085" lon="7.176679205149412">
        <ele>2016.0599999999999</ele>
        <time>2022-03-27T13:35:09Z</time>
      </trkpt>
      <trkpt lat="45.741656525060534" lon="7.176690101623535">
        <ele>2015.3299999999999</ele>
        <time>2022-03-27T13:35:11Z</time>
      </trkpt>
      <trkpt lat="45.741641856729984" lon="7.176698567345738">
        <ele>2015.1900000000001</ele>
        <time>2022-03-27T13:35:13Z</time>
      </trkpt>
      <trkpt lat="45.741604557260871" lon="7.176708290353417">
        <ele>2012.8299999999999</ele>
        <time>2022-03-27T13:35:17Z</time>
      </trkpt>
      <trkpt lat="45.741592068225145" lon="7.176713403314352">
        <ele>2014.6300000000001</ele>
        <time>2022-03-27T13:35:25Z</time>
      </trkpt>
      <trkpt lat="45.741586368530989" lon="7.176713068038225">
        <ele>2013.8599999999999</ele>
        <time>2022-03-27T13:35:26Z</time>
      </trkpt>
      <trkpt lat="45.741546470671892" lon="7.176741482689977">
        <ele>2011.1900000000001</ele>
        <time>2022-03-27T13:35:31Z</time>
      </trkpt>
      <trkpt lat="45.741463992744684" lon="7.176836784929037">
        <ele>2007.1400000000001</ele>
        <time>2022-03-27T13:35:41Z</time>
      </trkpt>
      <trkpt lat="45.741447396576405" lon="7.176849944517016">
        <ele>2006.45</ele>
        <time>2022-03-27T13:35:43Z</time>
      </trkpt>
      <trkpt lat="45.74136265553534" lon="7.176947761327028">
        <ele>2003.8599999999999</ele>
        <time>2022-03-27T13:35:54Z</time>
      </trkpt>
      <trkpt lat="45.741290487349033" lon="7.177084973081946">
        <ele>2001.05</ele>
        <time>2022-03-27T13:36:06Z</time>
      </trkpt>
      <trkpt lat="45.741252517327666" lon="7.177123613655567">
        <ele>1998.46</ele>
        <time>2022-03-27T13:36:11Z</time>
      </trkpt>
      <trkpt lat="45.741138020530343" lon="7.177216820418835">
        <ele>1996.0799999999999</ele>
        <time>2022-03-27T13:36:25Z</time>
      </trkpt>
      <trkpt lat="45.741094602271914" lon="7.177248755469918">
        <ele>1992.98</ele>
        <time>2022-03-27T13:36:31Z</time>
      </trkpt>
      <trkpt lat="45.741011705249548" lon="7.177322683855891">
        <ele>1989.4200000000001</ele>
        <time>2022-03-27T13:36:43Z</time>
      </trkpt>
      <trkpt lat="45.741004245355725" lon="7.177327964454889">
        <ele>1989.4400000000001</ele>
        <time>2022-03-27T13:36:44Z</time>
      </trkpt>
      <trkpt lat="45.740937609225512" lon="7.177385380491614">
        <ele>1987.73</ele>
        <time>2022-03-27T13:36:56Z</time>
      </trkpt>
      <trkpt lat="45.740870218724012" lon="7.177438689395785">
        <ele>1984.3699999999999</ele>
        <time>2022-03-27T13:37:05Z</time>
      </trkpt>
      <trkpt lat="45.740805342793465" lon="7.177494848147035">
        <ele>1981.3499999999999</ele>
        <time>2022-03-27T13:37:14Z</time>
      </trkpt>
      <trkpt lat="45.740755554288626" lon="7.177520580589771">
        <ele>1980.04</ele>
        <time>2022-03-27T13:37:26Z</time>
      </trkpt>
      <trkpt lat="45.740702748298645" lon="7.177603980526328">
        <ele>1976.76</ele>
        <time>2022-03-27T13:37:37Z</time>
      </trkpt>
      <trkpt lat="45.740690343081951" lon="7.177635999396443">
        <ele>1975.46</ele>
        <time>2022-03-27T13:37:40Z</time>
      </trkpt>
      <trkpt lat="45.740677434951067" lon="7.177664246410132">
        <ele>1974.46</ele>
        <time>2022-03-27T13:37:43Z</time>
      </trkpt>
      <trkpt lat="45.740606104955077" lon="7.177783520892263">
        <ele>1971.04</ele>
        <time>2022-03-27T13:37:55Z</time>
      </trkpt>
      <trkpt lat="45.740491021424532" lon="7.177926935255528">
        <ele>1968.3599999999999</ele>
        <time>2022-03-27T13:38:10Z</time>
      </trkpt>
      <trkpt lat="45.740433521568775" lon="7.178068924695253">
        <ele>1965.27</ele>
        <time>2022-03-27T13:38:23Z</time>
      </trkpt>
      <trkpt lat="45.740369819104671" lon="7.178158862516284">
        <ele>1962.1900000000001</ele>
        <time>2022-03-27T13:38:33Z</time>
      </trkpt>
      <trkpt lat="45.740295890718699" lon="7.178219882771373">
        <ele>1959.53</ele>
        <time>2022-03-27T13:38:43Z</time>
      </trkpt>
      <trkpt lat="45.740262698382139" lon="7.17823538929224">
        <ele>1957.2</ele>
        <time>2022-03-27T13:38:47Z</time>
      </trkpt>
      <trkpt lat="45.740139903500676" lon="7.178201777860522">
        <ele>1953.8699999999999</ele>
        <time>2022-03-27T13:39:00Z</time>
      </trkpt>
      <trkpt lat="45.740060610696673" lon="7.178245699033141">
        <ele>1950.72</ele>
        <time>2022-03-27T13:39:10Z</time>
      </trkpt>
      <trkpt lat="45.740038817748427" lon="7.178268246352673">
        <ele>1950.1300000000001</ele>
        <time>2022-03-27T13:39:13Z</time>
      </trkpt>
      <trkpt lat="45.739946952089667" lon="7.178415516391397">
        <ele>1946.8800000000001</ele>
        <time>2022-03-27T13:39:27Z</time>
      </trkpt>
      <trkpt lat="45.739905461668968" lon="7.178552057594061">
        <ele>1945.8199999999999</ele>
        <time>2022-03-27T13:39:40Z</time>
      </trkpt>
      <trkpt lat="45.739896660670638" lon="7.178570916876197">
        <ele>1945.5699999999999</ele>
        <time>2022-03-27T13:39:53Z</time>
      </trkpt>
      <trkpt lat="45.739873442798853" lon="7.178611988201737">
        <ele>1943.3599999999999</ele>
        <time>2022-03-27T13:40:10Z</time>
      </trkpt>
      <trkpt lat="45.739834802225232" lon="7.178668985143304">
        <ele>1941.1500000000001</ele>
        <time>2022-03-27T13:40:21Z</time>
      </trkpt>
      <trkpt lat="45.739797335118055" lon="7.178686251863837">
        <ele>1938.9200000000001</ele>
        <time>2022-03-27T13:40:33Z</time>
      </trkpt>
      <trkpt lat="45.739781744778156" lon="7.178687509149313">
        <ele>1937.6600000000001</ele>
        <time>2022-03-27T13:40:39Z</time>
      </trkpt>
      <trkpt lat="45.739754252135754" lon="7.178684491664171">
        <ele>1935</ele>
        <time>2022-03-27T13:40:46Z</time>
      </trkpt>
      <trkpt lat="45.739676468074322" lon="7.178661525249481">
        <ele>1932.02</ele>
        <time>2022-03-27T13:40:59Z</time>
      </trkpt>
      <trkpt lat="45.739615866914392" lon="7.178705027326942">
        <ele>1929.73</ele>
        <time>2022-03-27T13:41:11Z</time>
      </trkpt>
      <trkpt lat="45.739553840830922" lon="7.17870787717402">
        <ele>1926.3499999999999</ele>
        <time>2022-03-27T13:41:22Z</time>
      </trkpt>
      <trkpt lat="45.739472452551126" lon="7.178708212450147">
        <ele>1924.3</ele>
        <time>2022-03-27T13:41:34Z</time>
      </trkpt>
      <trkpt lat="45.739431465044618" lon="7.178738135844469">
        <ele>1921.24</ele>
        <time>2022-03-27T13:41:41Z</time>
      </trkpt>
      <trkpt lat="45.73933532461524" lon="7.178730173036456">
        <ele>1918.24</ele>
        <time>2022-03-27T13:41:53Z</time>
      </trkpt>
      <trkpt lat="45.739288469776511" lon="7.178736543282867">
        <ele>1917.6099999999999</ele>
        <time>2022-03-27T13:41:58Z</time>
      </trkpt>
      <trkpt lat="45.739260306581855" lon="7.178734699264169">
        <ele>1916.3699999999999</ele>
        <time>2022-03-27T13:42:01Z</time>
      </trkpt>
      <trkpt lat="45.739197274670005" lon="7.178735285997391">
        <ele>1914.4000000000001</ele>
        <time>2022-03-27T13:42:08Z</time>
      </trkpt>
      <trkpt lat="45.739145809784532" lon="7.178718522191048">
        <ele>1912.52</ele>
        <time>2022-03-27T13:42:14Z</time>
      </trkpt>
      <trkpt lat="45.739019494503736" lon="7.178686503320932">
        <ele>1909.9000000000001</ele>
        <time>2022-03-27T13:42:29Z</time>
      </trkpt>
      <trkpt lat="45.738923102617264" lon="7.178631937131286">
        <ele>1907.1900000000001</ele>
        <time>2022-03-27T13:42:42Z</time>
      </trkpt>
      <trkpt lat="45.738852526992559" lon="7.178591620177031">
        <ele>1905.3599999999999</ele>
        <time>2022-03-27T13:42:52Z</time>
      </trkpt>
      <trkpt lat="45.738737275823951" lon="7.178544932976365">
        <ele>1902.3399999999999</ele>
        <time>2022-03-27T13:43:06Z</time>
      </trkpt>
      <trkpt lat="45.738620515912771" lon="7.178517272695899">
        <ele>1899.28</ele>
        <time>2022-03-27T13:43:20Z</time>
      </trkpt>
      <trkpt lat="45.738518591970205" lon="7.178479889407754">
        <ele>1896.1900000000001</ele>
        <time>2022-03-27T13:43:31Z</time>
      </trkpt>
      <trkpt lat="45.738402837887406" lon="7.178423898294568">
        <ele>1893.6300000000001</ele>
        <time>2022-03-27T13:43:44Z</time>
      </trkpt>
      <trkpt lat="45.738281467929482" lon="7.178362710401416">
        <ele>1891.1500000000001</ele>
        <time>2022-03-27T13:43:59Z</time>
      </trkpt>
      <trkpt lat="45.738219441846013" lon="7.178314682096243">
        <ele>1889.74</ele>
        <time>2022-03-27T13:44:08Z</time>
      </trkpt>
      <trkpt lat="45.738141406327486" lon="7.178244274109602">
        <ele>1888.4100000000001</ele>
        <time>2022-03-27T13:44:18Z</time>
      </trkpt>
      <trkpt lat="45.738017437979579" lon="7.178287357091904">
        <ele>1884.8599999999999</ele>
        <time>2022-03-27T13:44:32Z</time>
      </trkpt>
      <trkpt lat="45.737864887341857" lon="7.178329853340983">
        <ele>1882</ele>
        <time>2022-03-27T13:44:51Z</time>
      </trkpt>
      <trkpt lat="45.737806549295783" lon="7.17834485694766">
        <ele>1880.4300000000001</ele>
        <time>2022-03-27T13:44:58Z</time>
      </trkpt>
      <trkpt lat="45.737717365846038" lon="7.178403027355671">
        <ele>1878.1800000000001</ele>
        <time>2022-03-27T13:45:11Z</time>
      </trkpt>
      <trkpt lat="45.73771015740931" lon="7.178405206650496">
        <ele>1877.8800000000001</ele>
        <time>2022-03-27T13:45:12Z</time>
      </trkpt>
      <trkpt lat="45.737613849341869" lon="7.178507884964347">
        <ele>1875.45</ele>
        <time>2022-03-27T13:45:28Z</time>
      </trkpt>
      <trkpt lat="45.737563977017999" lon="7.178643587976694">
        <ele>1873.28</ele>
        <time>2022-03-27T13:45:42Z</time>
      </trkpt>
      <trkpt lat="45.737539418041706" lon="7.178683234378696">
        <ele>1872.0699999999999</ele>
        <time>2022-03-27T13:45:46Z</time>
      </trkpt>
      <trkpt lat="45.737439254298806" lon="7.178801922127605">
        <ele>1868.98</ele>
        <time>2022-03-27T13:46:01Z</time>
      </trkpt>
      <trkpt lat="45.737399272620678" lon="7.17881441116333">
        <ele>1868.25</ele>
        <time>2022-03-27T13:46:06Z</time>
      </trkpt>
      <trkpt lat="45.737277818843722" lon="7.178943576291204">
        <ele>1866.98</ele>
        <time>2022-03-27T13:46:21Z</time>
      </trkpt>
      <trkpt lat="45.737244039773941" lon="7.178967883810401">
        <ele>1866.5799999999999</ele>
        <time>2022-03-27T13:46:25Z</time>
      </trkpt>
      <trkpt lat="45.737183354794979" lon="7.17900007031858">
        <ele>1865.6600000000001</ele>
        <time>2022-03-27T13:46:31Z</time>
      </trkpt>
      <trkpt lat="45.737020997330546" lon="7.179108448326588">
        <ele>1862.78</ele>
        <time>2022-03-27T13:46:48Z</time>
      </trkpt>
      <trkpt lat="45.736886383965611" lon="7.17924926429987">
        <ele>1859.97</ele>
        <time>2022-03-27T13:47:04Z</time>
      </trkpt>
      <trkpt lat="45.736799715086818" lon="7.179410783573985">
        <ele>1857.8699999999999</ele>
        <time>2022-03-27T13:47:17Z</time>
      </trkpt>
      <trkpt lat="45.736698294058442" lon="7.179658720269799">
        <ele>1855.54</ele>
        <time>2022-03-27T13:47:34Z</time>
      </trkpt>
      <trkpt lat="45.736605171114206" lon="7.179876063019037">
        <ele>1853.0599999999999</ele>
        <time>2022-03-27T13:47:50Z</time>
      </trkpt>
      <trkpt lat="45.736487237736583" lon="7.180072786286473">
        <ele>1850.2</ele>
        <time>2022-03-27T13:48:06Z</time>
      </trkpt>
      <trkpt lat="45.736368130892515" lon="7.180273616686463">
        <ele>1847.1199999999999</ele>
        <time>2022-03-27T13:48:22Z</time>
      </trkpt>
      <trkpt lat="45.736226895824075" lon="7.180534545332193">
        <ele>1844.24</ele>
        <time>2022-03-27T13:48:42Z</time>
      </trkpt>
      <trkpt lat="45.736108878627419" lon="7.180769825354219">
        <ele>1841.9300000000001</ele>
        <time>2022-03-27T13:49:00Z</time>
      </trkpt>
      <trkpt lat="45.735983150079846" lon="7.18097266741097">
        <ele>1839.6700000000001</ele>
        <time>2022-03-27T13:49:17Z</time>
      </trkpt>
      <trkpt lat="45.735847866162658" lon="7.181231835857034">
        <ele>1836.8099999999999</ele>
        <time>2022-03-27T13:49:37Z</time>
      </trkpt>
      <trkpt lat="45.735766813158989" lon="7.18142369762063">
        <ele>1834.8900000000001</ele>
        <time>2022-03-27T13:49:51Z</time>
      </trkpt>
      <trkpt lat="45.735673103481531" lon="7.181696696206927">
        <ele>1832.21</ele>
        <time>2022-03-27T13:50:10Z</time>
      </trkpt>
      <trkpt lat="45.735599678009748" lon="7.181948656216264">
        <ele>1829.49</ele>
        <time>2022-03-27T13:50:27Z</time>
      </trkpt>
      <trkpt lat="45.735536897554994" lon="7.18218251131475">
        <ele>1828.9000000000001</ele>
        <time>2022-03-27T13:50:42Z</time>
      </trkpt>
      <trkpt lat="45.735482918098569" lon="7.182466657832265">
        <ele>1826.9100000000001</ele>
        <time>2022-03-27T13:51:00Z</time>
      </trkpt>
      <trkpt lat="45.735449474304914" lon="7.182766646146774">
        <ele>1825.1600000000001</ele>
        <time>2022-03-27T13:51:18Z</time>
      </trkpt>
      <trkpt lat="45.735426256433129" lon="7.183043416589499">
        <ele>1823.6900000000001</ele>
        <time>2022-03-27T13:51:35Z</time>
      </trkpt>
      <trkpt lat="45.735420137643814" lon="7.183165540918708">
        <ele>1823.21</ele>
        <time>2022-03-27T13:51:43Z</time>
      </trkpt>
      <trkpt lat="45.735407397150993" lon="7.183257909491658">
        <ele>1822.2</ele>
        <time>2022-03-27T13:51:49Z</time>
      </trkpt>
      <trkpt lat="45.735402703285217" lon="7.183422362431884">
        <ele>1821.47</ele>
        <time>2022-03-27T13:52:00Z</time>
      </trkpt>
      <trkpt lat="45.735482834279537" lon="7.183588491752744">
        <ele>1819.25</ele>
        <time>2022-03-27T13:52:16Z</time>
      </trkpt>
      <trkpt lat="45.735491551458836" lon="7.183688823133707">
        <ele>1817.5</ele>
        <time>2022-03-27T13:52:23Z</time>
      </trkpt>
      <trkpt lat="45.735418545082211" lon="7.183862663805485">
        <ele>1814.4000000000001</ele>
        <time>2022-03-27T13:52:40Z</time>
      </trkpt>
      <trkpt lat="45.735415862873197" lon="7.183871297165752">
        <ele>1814.23</ele>
        <time>2022-03-27T13:52:41Z</time>
      </trkpt>
      <trkpt lat="45.735391974449158" lon="7.184039773419499">
        <ele>1810.8800000000001</ele>
        <time>2022-03-27T13:52:54Z</time>
      </trkpt>
      <trkpt lat="45.735330367460847" lon="7.184140691533685">
        <ele>1807.6400000000001</ele>
        <time>2022-03-27T13:53:06Z</time>
      </trkpt>
      <trkpt lat="45.735274376347661" lon="7.184256697073579">
        <ele>1804.8399999999999</ele>
        <time>2022-03-27T13:53:19Z</time>
      </trkpt>
      <trkpt lat="45.73522450402379" lon="7.184383179992437">
        <ele>1801.6600000000001</ele>
        <time>2022-03-27T13:53:32Z</time>
      </trkpt>
      <trkpt lat="45.735233053565025" lon="7.184522990137339">
        <ele>1798.54</ele>
        <time>2022-03-27T13:53:44Z</time>
      </trkpt>
      <trkpt lat="45.735233472660184" lon="7.18453380279243">
        <ele>1798.26</ele>
        <time>2022-03-27T13:53:45Z</time>
      </trkpt>
      <trkpt lat="45.735188378021121" lon="7.184711247682571">
        <ele>1794.99</ele>
        <time>2022-03-27T13:54:00Z</time>
      </trkpt>
      <trkpt lat="45.73519860394299" lon="7.184703955426812">
        <ele>1795.28</ele>
        <time>2022-03-27T13:54:07Z</time>
      </trkpt>
      <trkpt lat="45.735215786844492" lon="7.18469113111496">
        <ele>1795.51</ele>
        <time>2022-03-27T13:54:09Z</time>
      </trkpt>
      <trkpt lat="45.735296169295907" lon="7.18464863486588">
        <ele>1795.46</ele>
        <time>2022-03-27T13:54:18Z</time>
      </trkpt>
      <trkpt lat="45.735363140702248" lon="7.184655172750354">
        <ele>1793.53</ele>
        <time>2022-03-27T13:54:25Z</time>
      </trkpt>
      <trkpt lat="45.735370265319943" lon="7.184832114726305">
        <ele>1791.29</ele>
        <time>2022-03-27T13:54:38Z</time>
      </trkpt>
      <trkpt lat="45.735262054949999" lon="7.184989862143993">
        <ele>1789.5</ele>
        <time>2022-03-27T13:54:53Z</time>
      </trkpt>
      <trkpt lat="45.735227772966027" lon="7.185108801349998">
        <ele>1788.55</ele>
        <time>2022-03-27T13:55:08Z</time>
      </trkpt>
      <trkpt lat="45.735212182626128" lon="7.185128666460514">
        <ele>1787.6800000000001</ele>
        <time>2022-03-27T13:55:15Z</time>
      </trkpt>
      <trkpt lat="45.735209165140986" lon="7.185111064463854">
        <ele>1787.4400000000001</ele>
        <time>2022-03-27T13:55:33Z</time>
      </trkpt>
      <trkpt lat="45.735210254788399" lon="7.185124810785055">
        <ele>1787.3399999999999</ele>
        <time>2022-03-27T13:56:00Z</time>
      </trkpt>
      <trkpt lat="45.735217547044158" lon="7.18511869199574">
        <ele>1787.3</ele>
        <time>2022-03-27T13:56:22Z</time>
      </trkpt>
      <trkpt lat="45.735207321122289" lon="7.185115674510598">
        <ele>1787.29</ele>
        <time>2022-03-27T13:56:29Z</time>
      </trkpt>
      <trkpt lat="45.735197095200419" lon="7.185107795521617">
        <ele>1787.25</ele>
        <time>2022-03-27T13:56:37Z</time>
      </trkpt>
      <trkpt lat="45.735199274495244" lon="7.18511525541544">
        <ele>1787.26</ele>
        <time>2022-03-27T13:56:49Z</time>
      </trkpt>
      <trkpt lat="45.735177816823125" lon="7.185120955109596">
        <ele>1787.96</ele>
        <time>2022-03-27T13:57:40Z</time>
      </trkpt>
      <trkpt lat="45.735185192897916" lon="7.185120368376374">
        <ele>1787.5899999999999</ele>
        <time>2022-03-27T13:58:16Z</time>
      </trkpt>
      <trkpt lat="45.735191982239485" lon="7.18512162566185">
        <ele>1787.46</ele>
        <time>2022-03-27T13:58:59Z</time>
      </trkpt>
      <trkpt lat="45.735195418819785" lon="7.185114249587059">
        <ele>1787.51</ele>
        <time>2022-03-27T13:59:22Z</time>
      </trkpt>
      <trkpt lat="45.73517463169992" lon="7.185110310092568">
        <ele>1788.1800000000001</ele>
        <time>2022-03-27T13:59:44Z</time>
      </trkpt>
      <trkpt lat="45.7351756375283" lon="7.185121541842818">
        <ele>1787.8599999999999</ele>
        <time>2022-03-27T14:00:07Z</time>
      </trkpt>
      <trkpt lat="45.735169183462858" lon="7.185129839926958">
        <ele>1787.95</ele>
        <time>2022-03-27T14:00:31Z</time>
      </trkpt>
      <trkpt lat="45.73516583070159" lon="7.185135455802083">
        <ele>1788.01</ele>
        <time>2022-03-27T14:00:52Z</time>
      </trkpt>
      <trkpt lat="45.735188713297248" lon="7.185107376426458">
        <ele>1788.0999999999999</ele>
        <time>2022-03-27T14:01:16Z</time>
      </trkpt>
      <trkpt lat="45.735192401334643" lon="7.185124391689897">
        <ele>1787.77</ele>
        <time>2022-03-27T14:01:52Z</time>
      </trkpt>
      <trkpt lat="45.735198687762022" lon="7.18511282466352">
        <ele>1787.5999999999999</ele>
        <time>2022-03-27T14:02:28Z</time>
      </trkpt>
      <trkpt lat="45.735201621428132" lon="7.185103017836809">
        <ele>1787.23</ele>
        <time>2022-03-27T14:02:59Z</time>
      </trkpt>
      <trkpt lat="45.735195418819785" lon="7.185099497437477">
        <ele>1787.1400000000001</ele>
        <time>2022-03-27T14:03:38Z</time>
      </trkpt>
      <trkpt lat="45.735202040523291" lon="7.185089020058513">
        <ele>1787.73</ele>
        <time>2022-03-27T14:03:57Z</time>
      </trkpt>
      <trkpt lat="45.735177397727966" lon="7.185087343677878">
        <ele>1787.47</ele>
        <time>2022-03-27T14:04:26Z</time>
      </trkpt>
      <trkpt lat="45.735169015824795" lon="7.185074687004089">
        <ele>1788.1099999999999</ele>
        <time>2022-03-27T14:04:40Z</time>
      </trkpt>
      <trkpt lat="45.735179074108601" lon="7.185070915147662">
        <ele>1788.4400000000001</ele>
        <time>2022-03-27T14:04:53Z</time>
      </trkpt>
      <trkpt lat="45.735130291432142" lon="7.184980139136314">
        <ele>1787.78</ele>
        <time>2022-03-27T14:05:04Z</time>
      </trkpt>
      <trkpt lat="45.735071366652846" lon="7.185015678405762">
        <ele>1787.03</ele>
        <time>2022-03-27T14:05:12Z</time>
      </trkpt>
      <trkpt lat="45.73495720513165" lon="7.185151046141982">
        <ele>1784.6700000000001</ele>
        <time>2022-03-27T14:05:28Z</time>
      </trkpt>
      <trkpt lat="45.734965419396758" lon="7.185184909030795">
        <ele>1784.23</ele>
        <time>2022-03-27T14:05:37Z</time>
      </trkpt>
      <trkpt lat="45.734964413568377" lon="7.185160936787725">
        <ele>1783.7</ele>
        <time>2022-03-27T14:05:52Z</time>
      </trkpt>
      <trkpt lat="45.734967682510614" lon="7.185153309255838">
        <ele>1784.6300000000001</ele>
        <time>2022-03-27T14:05:58Z</time>
      </trkpt>
    </trkseg>
  </trk>

</gpx>